[[{"header":{"parameterUnit":"m.s-1","parameterCategory":1,"la1":30.6,"la2":28.766,"lo1":-90.7593,"lo2":-88.6598,"dy":0.0162,"dx":0.0183,"nx":116,"ny":114,"refTime":"2024-02-09T18:00:00:Z","depth":0,"parameterNumber":2,"parameterNumberName":"U-component_of_WINDS"},"data":[0.0,0.0,0.0,0.0,0.0,0.0,0.0,0.0,0.0,0.0,0.0,0.0,0.0,0.0,0.0,0.0,0.0,0.0,0.0,0.0,0.0,0.0,0.0,0.0,0.0,0.0,0.0,0.0,0.0,0.0,0.0,0.0,0.0,0.0,0.0,0.0,0.0,0.0,0.0,0.0,0.0,0.0,0.0,0.0,0.0,0.0,0.0,0.0,0.0,0.0,0.0,0.0,0.0,0.0,0.0,0.0,0.0,0.0,0.0,0.0,0.0,0.0,0.0,0.0,0.0,0.0,0.0,0.0,0.0,0.0,0.0,0.0,0.0,0.0,0.0,0.0,0.0,0.0,0.0,0.0,0.0,0.0,0.0,0.0,0.0,0.0,0.0,0.0,0.0,0.0,0.0,0.0,0.0,0.0,0.0,0.0,0.0,0.0,0.0,0.0,0.0,0.0,0.0,0.0,0.0,0.0,0.0,0.0,0.0,0.0,0.0,0.0,0.0,0.0,0.0,0.0,0.0,0.0,0.0,0.0,0.0,0.0,0.0,0.0,0.0,0.0,0.0,0.0,0.0,0.0,0.0,0.0,0.0,0.0,0.0,0.0,0.0,0.0,0.0,0.0,0.0,0.0,0.0,0.0,0.0,0.0,0.0,0.0,0.0,0.0,0.0,0.0,0.0,0.0,0.0,0.0,0.0,0.0,0.0,0.0,0.0,0.0,0.0,0.0,0.0,0.0,0.0,0.0,0.0,0.0,0.0,0.0,0.0,0.0,0.0,0.0,0.0,0.0,0.0,0.0,0.0,0.0,0.0,0.0,0.0,0.0,0.0,0.0,0.0,0.0,0.0,0.0,0.0,0.0,0.0,0.0,0.0,0.0,0.0,0.0,0.0,0.0,0.0,0.0,0.0,0.0,0.0,0.0,0.0,0.0,0.0,0.0,0.0,0.0,0.0,0.0,0.0,0.0,0.0,0.0,0.0,0.0,0.0,0.0,0.0,0.0,0.0,0.0,0.0,0.0,0.0,0.0,0.0,0.0,0.0,0.0,0.0,0.0,0.0,0.0,0.0,0.0,0.0,0.0,0.0,0.0,0.0,0.0,0.0,0.0,0.0,0.0,0.0,0.0,0.0,0.0,0.0,0.0,0.0,0.0,0.0,0.0,0.0,0.0,0.0,0.0,0.0,0.0,0.0,0.0,0.0,0.0,0.0,0.0,0.0,0.0,0.0,0.0,0.0,0.0,0.0,0.0,0.0,0.0,0.0,0.0,0.0,0.0,0.0,0.0,0.0,0.0,0.0,0.0,0.0,0.0,0.0,0.0,0.0,0.0,0.0,0.0,0.0,0.0,0.0,0.0,0.0,0.0,0.0,0.0,0.0,0.0,0.0,0.0,0.0,0.0,0.0,0.0,0.0,0.0,0.0,0.0,0.0,0.0,0.0,0.0,0.0,0.0,0.0,0.0,0.0,0.0,0.0,0.0,0.0,0.0,0.0,0.0,0.0,0.0,0.0,0.0,0.0,0.0,0.0,0.0,0.0,0.0,0.0,0.0,0.0,0.0,0.0,0.0,0.0,0.0,0.0,0.0,0.0,0.0,0.0,0.0,0.0,0.0,0.0,0.0,0.0,0.0,0.0,0.0,0.0,0.0,0.0,0.0,0.0,0.0,0.0,0.0,0.0,0.0,0.0,0.0,0.0,0.0,0.0,0.0,0.0,0.0,0.0,0.0,0.0,0.0,0.0,0.0,0.0,0.0,0.0,0.0,0.0,0.0,0.0,0.0,0.0,0.0,0.0,0.0,0.0,0.0,0.0,0.0,0.0,0.0,0.0,0.0,0.0,0.0,0.0,0.0,0.0,0.0,0.0,0.0,0.0,0.0,0.0,0.0,0.0,0.0,0.0,0.0,0.0,0.0,0.0,0.0,0.0,0.0,0.0,0.0,0.0,0.0,0.0,0.0,0.0,0.0,0.0,0.0,0.0,0.0,0.0,0.0,0.0,0.0,0.0,0.0,0.0,0.0,0.0,0.0,0.0,0.0,0.0,0.0,0.0,0.0,0.0,0.0,0.0,0.0,0.0,0.0,0.0,0.0,0.0,0.0,0.0,0.0,0.0,0.0,0.0,0.0,0.0,0.0,0.0,0.0,0.0,0.0,0.0,0.0,0.0,0.0,0.0,0.0,0.0,0.0,0.0,0.0,0.0,0.0,0.0,0.0,0.0,0.0,0.0,0.0,0.0,0.0,0.0,0.0,0.0,0.0,0.0,0.0,0.0,0.0,0.0,0.0,0.0,0.0,0.0,0.0,0.0,0.0,0.0,0.0,0.0,0.0,0.0,0.0,0.0,0.0,0.0,0.0,0.0,0.0,0.0,0.0,0.0,0.0,0.0,0.0,0.0,0.0,0.0,0.0,0.0,0.0,0.0,0.0,0.0,0.0,0.0,0.0,0.0,0.0,0.0,0.0,0.0,0.0,0.0,0.0,0.0,0.0,0.0,0.0,0.0,0.0,0.0,0.0,0.0,0.0,0.0,0.0,0.0,0.0,0.0,0.0,0.0,0.0,0.0,0.0,0.0,0.0,0.0,0.0,0.0,0.0,0.0,0.0,0.0,0.0,0.0,0.0,0.0,0.0,0.0,0.0,0.0,0.0,0.0,0.0,0.0,0.0,0.0,0.0,0.0,0.0,0.0,0.0,0.0,0.0,0.0,0.0,0.0,0.0,0.0,0.0,0.0,0.0,0.0,0.0,0.0,0.0,0.0,0.0,0.0,0.0,0.0,0.0,0.0,0.0,0.0,0.0,0.0,0.0,0.0,0.0,0.0,0.0,0.0,0.0,0.0,0.0,0.0,0.0,0.0,0.0,0.0,0.0,0.0,0.0,0.0,0.0,0.0,0.0,0.0,0.0,0.0,0.0,0.0,0.0,0.0,0.0,0.0,0.0,0.0,0.0,0.0,0.0,0.0,0.0,0.0,0.0,0.0,0.0,0.0,0.0,0.0,0.0,0.0,0.0,0.0,0.0,0.0,0.0,0.0,0.0,0.0,0.0,0.0,0.0,0.0,0.0,0.0,0.0,0.0,0.0,0.0,0.0,0.0,0.0,0.0,0.0,0.0,0.0,0.0,0.0,0.0,0.0,0.0,0.0,0.0,0.0,0.0,0.0,0.0,0.0,0.0,0.0,0.0,0.0,0.0,0.0,0.0,0.0,0.0,0.0,0.0,0.0,0.0,0.0,0.0,0.0,0.0,0.0,0.0,0.0,0.0,0.0,0.0,0.0,0.0,0.0,0.0,0.0,0.0,0.0,0.0,0.0,0.0,0.0,0.0,0.0,0.0,0.0,0.0,0.0,0.0,0.0,0.0,0.0,0.0,0.0,0.0,0.0,0.0,0.0,0.0,0.0,0.0,0.0,0.0,0.0,0.0,0.0,0.0,0.0,0.0,0.0,0.0,0.0,0.0,0.0,0.0,0.0,0.0,0.0,0.0,0.0,0.0,0.0,0.0,0.0,0.0,0.0,0.0,0.0,0.0,0.0,0.0,0.0,0.0,0.0,0.0,0.0,0.0,0.0,0.0,0.0,0.0,0.0,0.0,0.0,0.0,0.0,0.0,0.0,0.0,0.0,0.0,0.0,0.0,0.0,0.0,0.0,0.0,0.0,0.0,0.0,0.0,0.0,0.0,0.0,0.0,0.0,0.0,0.0,0.0,0.0,0.0,0.0,0.0,0.0,0.0,0.0,0.0,0.0,0.0,0.0,0.0,0.0,0.0,0.0,0.0,0.0,0.0,0.0,0.0,0.0,0.0,0.0,0.0,0.0,0.0,0.0,0.0,0.0,0.0,0.0,0.0,0.0,0.0,0.0,0.0,0.0,0.0,0.0,0.0,0.0,0.0,0.0,0.0,0.0,0.0,0.0,0.0,0.0,0.0,0.0,0.0,0.0,0.0,0.0,0.0,0.0,0.0,0.0,0.0,0.0,0.0,0.0,0.0,0.0,0.0,0.0,0.0,0.0,0.0,0.0,0.0,0.0,0.0,0.0,0.0,0.0,0.0,0.0,0.0,0.0,0.0,0.0,0.0,0.0,0.0,0.0,0.0,0.0,0.0,0.0,0.0,0.0,0.0,0.0,0.0,0.0,0.0,0.0,0.0,0.0,0.0,0.0,0.0,0.0,0.0,0.0,0.0,0.0,0.0,0.0,0.0,0.0,0.0,0.0,0.0,0.0,0.0,0.0,0.0,0.0,0.0,0.0,0.0,0.0,0.0,0.0,0.0,0.0,0.0,0.0,0.0,0.0,0.0,0.0,0.0,0.0,0.0,0.0,0.0,0.0,0.0,0.0,0.0,0.0,0.0,0.0,0.0,0.0,0.0,0.0,0.0,0.0,0.0,0.0,0.0,0.0,0.0,0.0,0.0,0.0,0.0,0.0,0.0,0.0,0.0,0.0,0.0,0.0,0.0,0.0,0.0,0.0,0.0,0.0,0.0,0.0,0.0,0.0,0.0,0.0,0.0,0.0,0.0,0.0,0.0,0.0,0.0,0.0,0.0,0.0,0.0,0.0,0.0,0.0,0.0,0.0,0.0,0.0,0.0,0.0,0.0,0.0,0.0,0.0,0.0,0.0,0.0,0.0,0.0,0.0,0.0,0.0,0.0,0.0,0.0,0.0,0.0,0.0,0.0,0.0,0.0,0.0,0.0,0.0,0.0,0.0,0.0,0.0,0.0,0.0,0.0,0.0,0.0,0.0,0.0,0.0,0.0,0.0,0.0,0.0,0.0,0.0,0.0,0.0,0.0,0.0,0.0,0.0,0.0,0.0,0.0,0.0,0.0,0.0,0.0,0.0,0.0,0.0,0.0,0.0,0.0,0.0,0.0,0.0,0.0,0.0,0.0,0.0,0.0,0.0,0.0,0.0,0.0,0.0,0.0,0.0,0.0,0.0,0.0,0.0,0.0,0.0,0.0,0.0,0.0,0.0,0.0,0.0,0.0,0.0,0.0,0.0,0.0,0.0,0.0,0.0,0.0,0.0,0.0,0.0,0.0,0.0,0.0,0.0,0.0,0.0,0.0,0.0,0.0,0.0,0.0,0.0,0.0,0.0,0.0,0.0,0.0,0.0,0.0,0.0,0.0,0.0,0.0,0.0,0.0,0.0,0.0,0.0,0.0,0.0,0.0,0.0,0.0,0.0,0.0,0.0,0.0,0.0,0.0,0.0,0.0,0.0,0.0,0.0,0.0,0.0,0.0,0.0,0.0,0.0,0.0,0.0,0.0,0.0,0.0,0.0,0.0,0.0,0.0,0.0,0.0,0.0,0.0,0.0,0.0,0.0,0.0,0.0,0.0,0.0,0.0,0.0,0.0,0.0,0.0,0.0,0.0,0.0,0.0,0.0,0.0,0.0,0.0,0.0,0.0,0.0,0.0,0.0,0.0,0.0,0.0,0.0,0.0,0.0,0.0,0.0,0.0,0.0,0.0,0.0,0.0,0.0,0.0,0.0,0.0,0.0,0.0,0.0,0.0,0.0,0.0,0.0,0.0,0.0,0.0,0.0,0.0,0.0,0.0,0.0,0.0,0.0,0.0,0.0,0.0,0.0,0.0,0.0,0.0,0.0,0.0,0.0,0.0,0.0,0.0,0.0,0.0,0.0,0.0,0.0,0.0,0.0,0.0,0.0,0.0,0.0,0.0,0.0,0.0,0.0,0.0,0.0,0.0,0.0,0.0,0.0,0.0,0.0,0.0,0.0,0.0,0.0,0.0,0.0,0.0,0.0,0.0,0.0,0.0,0.0,0.0,0.0,0.0,0.0,0.0,0.0,0.0,0.0,0.0,0.0,0.0,0.0,0.0,0.0,0.0,0.0,0.0,0.0,0.0,0.0,0.0,0.0,0.0,0.0,0.0,0.0,0.0,0.0,0.0,0.0,0.0,0.0,0.0,0.0,0.0,0.0,0.0,0.0,0.0,0.0,0.0,0.0,0.0,0.0,0.0,0.0,0.0,0.0,0.0,0.0,0.0,0.0,0.0,0.0,0.0,0.0,0.0,0.0,0.0,0.0,0.0,0.0,0.0,0.0,0.0,0.0,0.0,0.0,0.0,0.0,0.0,0.0,-4.1257,-4.0784,0.0,0.0,0.0,0.0,0.0,0.0,0.0,0.0,0.0,0.0,0.0,0.0,0.0,0.0,0.0,0.0,0.0,0.0,0.0,0.0,0.0,0.0,0.0,0.0,0.0,0.0,0.0,0.0,0.0,0.0,0.0,0.0,0.0,0.0,-4.6308,-4.6308,-4.6308,-4.6308,-4.6308,-4.6308,-4.6308,-4.6308,-4.6308,-4.6308,0.0,0.0,0.0,0.0,0.0,0.0,0.0,0.0,0.0,0.0,0.0,0.0,0.0,0.0,0.0,0.0,0.0,0.0,0.0,0.0,0.0,0.0,0.0,0.0,0.0,0.0,0.0,0.0,0.0,0.0,0.0,0.0,0.0,0.0,0.0,0.0,0.0,0.0,0.0,0.0,0.0,0.0,0.0,0.0,0.0,0.0,0.0,0.0,0.0,0.0,0.0,0.0,0.0,0.0,0.0,0.0,0.0,0.0,0.0,0.0,0.0,0.0,0.0,0.0,0.0,0.0,0.0,0.0,0.0,0.0,-4.3715,-4.2266,0.0,0.0,0.0,0.0,0.0,0.0,0.0,0.0,0.0,0.0,0.0,0.0,0.0,0.0,0.0,0.0,0.0,0.0,0.0,0.0,0.0,0.0,0.0,-4.589,-4.5899,-4.5899,-4.5998,-4.6072,0.0,0.0,0.0,0.0,0.0,-4.6268,-4.6268,-4.6289,-4.6308,-4.6308,-4.6601,-4.6894,-4.7187,-4.7344,-4.7422,-4.7383,-4.6621,0.0,0.0,0.0,0.0,0.0,0.0,0.0,0.0,0.0,0.0,0.0,0.0,0.0,0.0,0.0,0.0,0.0,0.0,0.0,0.0,0.0,0.0,0.0,0.0,0.0,0.0,0.0,0.0,0.0,0.0,0.0,0.0,0.0,0.0,0.0,0.0,0.0,0.0,0.0,0.0,0.0,0.0,0.0,0.0,0.0,0.0,0.0,0.0,0.0,0.0,0.0,0.0,0.0,0.0,0.0,0.0,0.0,0.0,0.0,0.0,0.0,0.0,0.0,-5.1683,-5.1702,-5.2327,-5.151,-5.1231,-5.1174,-4.7625,-4.5313,-4.4026,-4.3743,0.0,0.0,0.0,0.0,0.0,0.0,0.0,0.0,0.0,0.0,0.0,0.0,0.0,0.0,0.0,0.0,0.0,0.0,0.0,0.0,0.0,-4.5871,-4.5899,-4.5899,-4.5916,-4.5924,-4.5924,-4.5936,-4.5944,-4.5944,-4.6053,-4.614,-4.614,-4.6246,-4.6308,-4.6308,-4.7812,-4.9297,-5.0742,-5.1504,-5.1855,-5.1699,-4.7969,-4.7148,-4.8457,0.0,0.0,0.0,0.0,0.0,0.0,0.0,0.0,0.0,0.0,0.0,0.0,0.0,0.0,0.0,0.0,0.0,0.0,0.0,0.0,0.0,0.0,0.0,0.0,0.0,0.0,0.0,0.0,0.0,0.0,0.0,0.0,0.0,0.0,0.0,0.0,0.0,0.0,0.0,0.0,0.0,-4.5479,-4.5594,0.0,0.0,0.0,0.0,0.0,0.0,0.0,0.0,0.0,0.0,0.0,0.0,0.0,-5.0952,-5.251,-5.3395,-5.3933,-5.4164,-5.4049,-5.4049,-5.4126,-5.326,-5.328,-5.3972,-5.3395,0.0,-4.7334,-4.5879,0.0,0.0,0.0,0.0,0.0,0.0,0.0,0.0,0.0,0.0,0.0,0.0,0.0,0.0,0.0,0.0,0.0,0.0,0.0,0.0,0.0,-4.6158,-4.6266,-4.5763,-4.7527,-4.7848,-4.5964,-4.7294,-4.7512,-4.6063,-4.6144,-4.6203,-4.6203,-4.6268,-4.7012,-4.8496,-5.0195,-5.166,-5.2871,-5.3242,-5.3437,-5.3359,-5.1465,-4.998,-4.8828,-4.7558,0.0,0.0,0.0,0.0,0.0,0.0,0.0,0.0,0.0,0.0,0.0,0.0,0.0,0.0,0.0,0.0,0.0,0.0,0.0,0.0,0.0,0.0,0.0,0.0,0.0,0.0,0.0,0.0,0.0,0.0,0.0,0.0,0.0,0.0,0.0,0.0,0.0,0.0,0.0,-4.547,-4.6144,-4.5671,-4.6028,-4.5797,0.0,0.0,0.0,0.0,0.0,0.0,0.0,0.0,0.0,-5.2202,-5.3068,-5.4318,-5.6049,-5.6896,-5.803,-5.9454,-5.9454,-5.9954,-6.0877,-5.9992,-5.9819,-6.0146,-5.9665,-5.7838,-5.4914,-5.0837,-4.7855,-4.574,0.0,0.0,0.0,0.0,-4.3616,-4.3964,0.0,0.0,0.0,0.0,0.0,0.0,0.0,0.0,0.0,0.0,0.0,0.0,-4.6182,-4.7028,-4.7451,-4.7221,-4.9181,-4.9386,-4.688,-4.8049,-4.8004,-4.6112,-4.617,-4.6247,-4.6247,-4.6933,-4.8457,-5.084,-5.2754,-5.4258,-5.5332,-5.5547,-5.5644,-5.5625,-5.543,-5.3555,-5.0449,-4.8906,-4.8008,-4.7539,0.0,0.0,0.0,0.0,0.0,0.0,0.0,0.0,0.0,0.0,0.0,0.0,0.0,0.0,0.0,0.0,0.0,0.0,0.0,0.0,0.0,0.0,0.0,0.0,0.0,0.0,0.0,0.0,0.0,0.0,0.0,0.0,0.0,0.0,0.0,0.0,0.0,-4.5855,-4.6817,-4.5729,-4.7124,-4.7259,0.0,0.0,0.0,0.0,0.0,0.0,-5.0664,-5.251,-5.4337,-5.6049,-5.7107,-5.8473,-6.0223,-6.0839,-6.2185,-6.4282,-6.407,-6.4647,-6.5859,-6.4993,-6.4474,-6.4224,-6.3589,-6.2474,-6.0723,-5.5395,-5.1837,-4.9529,-4.7394,-4.6306,-4.5951,-4.6163,-4.6105,-4.6182,0.0,0.0,0.0,0.0,0.0,0.0,0.0,0.0,0.0,0.0,0.0,-4.621,-4.7798,-4.8759,-4.9894,-5.1442,-5.0289,-4.9394,-4.9221,-4.7202,-4.5938,-4.5828,-4.5994,-4.6113,-4.6113,-4.8668,-5.0859,-5.2578,-5.5156,-5.7265,-5.8965,-5.9726,-6.0078,-6.0039,-5.9277,-5.7461,-5.4765,-5.1465,-5.0488,-5.0859,-4.7617,0.0,0.0,0.0,0.0,0.0,0.0,0.0,0.0,0.0,0.0,0.0,0.0,0.0,0.0,0.0,0.0,0.0,0.0,0.0,0.0,0.0,0.0,0.0,0.0,0.0,0.0,0.0,0.0,0.0,0.0,0.0,0.0,0.0,0.0,0.0,0.0,0.0,0.0,-4.5787,-4.9183,0.0,0.0,0.0,0.0,-4.9202,-5.151,-5.3318,-5.4203,-5.6626,-5.8742,-6.0435,-6.207,-6.3762,-6.5493,-6.5551,-6.6032,-6.6898,-6.6128,-6.582,-6.5859,-6.4993,-6.4147,-6.3346,-6.332,-6.282,-6.1755,-5.8215,-5.5722,-5.3857,-5.051,-4.9683,-5.0192,-4.8567,-4.899,-5.0289,0.0,0.0,0.0,0.0,0.0,0.0,0.0,0.0,-4.5594,-4.5594,-4.6528,-4.7855,-4.9586,-5.151,-5.3126,-5.4241,-5.4299,-5.3587,-5.1952,-5.0061,-4.8532,-4.7448,-4.6563,-4.6672,-4.7885,-5.0437,-5.2883,-5.5215,-5.8359,-6.0488,-6.166,-6.2519,-6.2617,-6.2051,-6.1777,-6.0508,-5.832,-5.4336,-5.1855,-5.0469,-4.8691,-4.7305,0.0,0.0,0.0,0.0,0.0,0.0,0.0,0.0,0.0,0.0,0.0,0.0,0.0,0.0,0.0,0.0,0.0,0.0,0.0,0.0,0.0,0.0,0.0,0.0,0.0,0.0,0.0,0.0,0.0,0.0,0.0,0.0,0.0,0.0,0.0,0.0,0.0,-5.126,-5.4107,0.0,-5.3136,-5.354,-5.378,-5.3472,-5.5818,-5.7627,-5.8511,-6.0973,-6.3128,-6.4801,-6.5436,-6.6571,-6.8321,-6.834,-6.8744,-6.9533,-6.8725,-6.834,-6.8302,-6.6859,-6.5763,-6.4936,-6.4378,-6.3666,-6.2743,-6.1004,-5.8954,-5.6703,-5.4376,-5.2991,-5.2222,-5.1606,-5.1414,-5.151,0.0,0.0,0.0,0.0,0.0,0.0,0.0,0.0,-4.5594,-4.5594,-4.7317,-4.9413,-5.1722,-5.426,-5.6453,-5.8127,-5.7492,-5.6041,-5.3799,-5.1327,-4.9202,-4.7525,-4.711,-4.7769,-4.9563,-5.2425,-5.5031,-5.7375,-6.0272,-6.2148,-6.3008,-6.3281,-6.3437,-6.3437,-6.3125,-6.2519,-6.1504,-5.8379,-5.5058,-5.1777,-5.0039,-4.8984,-4.8105,0.0,0.0,0.0,0.0,0.0,0.0,0.0,0.0,0.0,0.0,0.0,0.0,0.0,0.0,0.0,0.0,0.0,0.0,0.0,0.0,0.0,0.0,0.0,0.0,0.0,0.0,0.0,0.0,0.0,0.0,0.0,0.0,0.0,0.0,-5.0433,-5.3942,-5.4799,-5.8165,-5.9742,-5.8011,-5.8088,-5.8261,-5.8261,-6.0377,-6.2166,-6.3301,-6.5493,-6.7359,-6.8783,-6.8821,-6.9379,-7.0533,-7.0244,-7.0379,-7.0898,-7.0071,-6.9552,-6.9206,-6.7475,-6.6244,-6.5416,-6.4551,-6.3685,-6.2858,-6.2332,-6.0762,-5.8569,-5.7126,-5.5895,-5.4857,-5.426,-5.3683,-5.3183,0.0,0.0,0.0,0.0,0.0,0.0,0.0,-4.5594,-4.5594,-4.5594,-4.7855,-5.0779,-5.4203,-5.6876,-5.9762,-6.3077,-5.9511,-5.6368,-5.4684,-5.067,-4.7596,-4.5951,-4.7578,-4.9352,-5.1113,-5.4628,-5.7283,-5.902,-6.0873,-6.2226,-6.3066,-6.2246,-6.2754,-6.4297,-6.3457,-6.3535,-6.4238,-6.3398,-6.0137,-5.5234,-5.1816,-5.1348,-5.2246,0.0,0.0,0.0,0.0,0.0,0.0,0.0,0.0,0.0,0.0,0.0,0.0,0.0,0.0,0.0,0.0,0.0,0.0,0.0,0.0,0.0,0.0,0.0,0.0,0.0,0.0,0.0,0.0,0.0,0.0,0.0,0.0,0.0,-4.7135,-5.2904,-5.6838,-5.6107,-6.1185,-6.3455,-6.0146,-6.207,-6.3519,-6.3512,-6.5109,-6.6782,-6.8385,-7.0071,-7.1341,-7.2129,-7.2187,-7.2187,-7.2187,-7.1341,-7.0898,-7.0898,-7.0052,-6.9186,-6.8282,-6.6609,-6.5378,-6.4474,-6.3628,-6.2801,-6.2062,-6.2043,-6.1012,-5.9415,-5.8646,-5.8319,-5.805,-5.6357,-5.5703,-5.5434,0.0,0.0,0.0,0.0,0.0,0.0,-4.5594,-4.5594,-4.5594,-4.5594,-4.8875,-5.25,-5.5942,-5.9146,-6.2166,-6.4936,-6.1281,-5.8107,-5.6434,-5.178,-4.8649,-4.7654,-4.8605,-5.0894,-5.4611,-5.6344,-5.8695,-6.1732,-6.2981,-6.4023,-6.4883,-6.5293,-6.539,-6.5234,-6.498,-6.4668,-6.4277,-6.4043,-6.2754,-6.0586,-5.7168,-5.4531,-5.25,0.0,0.0,0.0,0.0,0.0,0.0,0.0,0.0,0.0,0.0,0.0,0.0,0.0,0.0,0.0,0.0,0.0,0.0,0.0,0.0,0.0,0.0,0.0,0.0,0.0,0.0,0.0,0.0,0.0,0.0,0.0,-4.8221,-5.0962,-5.2222,-5.6646,-6.0589,-6.282,-6.6167,-6.7936,-6.6994,-6.8071,-6.8571,-6.7975,-6.9513,-7.0379,-7.0225,-7.186,-7.2322,-7.1283,-7.186,-7.2187,-7.2187,-7.1341,-7.0898,-7.0879,-6.9436,-6.7994,-6.6551,-6.5455,-6.4166,-6.2762,-6.2531,-6.1954,-6.1108,-6.0473,-5.9935,-5.9473,-5.9261,-5.8434,-5.7311,-5.683,-5.5857,-5.4664,0.0,0.0,0.0,0.0,0.0,0.0,-4.5594,-4.5594,-4.5594,-4.5594,-4.9913,-5.401,-5.6703,-6.0358,-6.3339,-6.5186,-6.1127,-5.7588,-5.5538,-5.1298,-4.8988,-4.9291,-5.1067,-5.361,-5.695,-5.8671,-6.0727,-6.3213,-6.3889,-6.4683,-6.5605,-6.5742,-6.5937,-6.6133,-6.6133,-6.5859,-6.5449,-6.6133,-6.5742,-6.4453,-6.2461,-5.957,-5.6172,-5.3516,-5.2246,-5.1777,-5.0664,-5.0703,-5.0918,-4.8672,0.0,0.0,0.0,0.0,0.0,0.0,0.0,0.0,0.0,0.0,0.0,0.0,0.0,0.0,0.0,0.0,0.0,0.0,0.0,0.0,0.0,0.0,0.0,0.0,-5.1741,-5.5145,-5.83,-6.1166,-6.407,-6.7128,-6.909,-7.0494,-7.1225,-7.1379,-7.1398,-7.1302,-7.2187,-7.2668,-7.2495,-7.3456,-7.3553,-7.2514,-7.2668,-7.2399,-7.1648,-7.0821,-7.0206,-6.984,-6.8148,-6.684,-6.584,-6.4262,-6.3012,-6.2082,-6.1716,-6.105,-6.0223,-5.9704,-5.9088,-5.8454,0.0,0.0,0.0,0.0,-5.4568,-5.3337,0.0,0.0,0.0,0.0,0.0,0.0,-4.5575,-4.5594,-4.5594,-4.5594,-5.0702,-5.4953,-5.656,-6.0396,-6.3262,-6.4224,-5.9742,-5.5808,-5.3356,-5.0279,-4.9394,-5.1327,-5.453,-5.7088,-5.8838,-6.1408,-6.3222,-6.4215,-6.432,-6.4863,-6.5839,-6.4979,-6.539,-6.6894,-6.6894,-6.6953,-6.7148,-6.8633,-6.8457,-6.7187,-6.6972,-6.4863,-6.1328,-5.6543,-5.5976,-5.7441,-5.5019,-5.3789,-5.3008,-5.123,0.0,0.0,0.0,0.0,0.0,0.0,0.0,0.0,0.0,0.0,0.0,0.0,0.0,0.0,0.0,0.0,0.0,0.0,0.0,0.0,0.0,0.0,0.0,0.0,-5.5628,-5.9061,-6.4166,-6.5628,-6.7051,-6.9417,-7.0571,-7.1725,-7.3091,-7.286,-7.286,-7.3476,-7.3687,-7.4053,-7.4668,-7.4707,0.0,0.0,0.0,-7.2418,-7.0783,-6.986,-6.9013,-6.8244,-6.6551,-6.5705,-6.5532,-6.3178,-6.2062,-6.1908,-6.1127,-6.03,-5.9492,-5.9396,-5.8319,-5.6714,-5.6714,-5.6195,-5.5222,-5.3645,-5.251,-5.175,0.0,0.0,0.0,0.0,0.0,0.0,-4.5498,-4.5594,-4.5594,-4.5594,-5.0183,-5.3837,-5.4876,-5.8127,-6.0877,-6.2435,-5.8511,-5.5164,-5.3318,-5.1923,-5.2549,-5.5656,-5.8357,-6.0608,-6.23,-6.4316,-6.5809,-6.6697,-6.6198,-6.6474,-6.7434,-6.6558,-6.6428,-6.6894,-6.6894,-6.7285,-6.7969,-6.8281,-6.8652,-6.8867,-6.7461,-6.5234,-6.248,-6.0078,-5.8203,-5.6699,-5.5488,-5.584,-5.6523,-5.4082,-5.4551,-5.5488,-5.1621,-4.9961,0.0,0.0,0.0,0.0,0.0,0.0,0.0,0.0,0.0,0.0,0.0,0.0,0.0,0.0,0.0,0.0,0.0,0.0,0.0,-5.4539,-5.7418,-6.08,-6.5897,-6.7378,-6.8359,-6.9571,-7.1648,-7.2591,-7.1514,-7.3745,-7.4764,-7.3591,-7.4745,-7.5284,-7.4726,-7.4707,-7.4091,-7.2726,-7.1841,-7.0937,-6.9937,-6.8379,-6.7513,-6.7321,-6.5647,0.0,-6.3762,-6.2608,-6.1716,-6.1031,-6.0858,-6.03,-5.9454,-5.88,-5.7126,-5.4972,-5.4972,-5.4453,-5.3568,-5.2519,-5.1625,-5.0818,0.0,0.0,0.0,0.0,0.0,0.0,-4.5479,-4.5594,-4.5594,-4.5594,-4.9298,-5.2106,-5.2549,-5.5222,-5.7165,-5.7607,-5.4914,-5.301,-5.2577,-5.3741,-5.6165,-5.9992,-6.2204,-6.4339,-6.6455,-6.7432,-6.816,-6.8655,-6.8323,-6.8251,-6.8393,-6.8051,-6.7944,-6.807,-6.8573,-6.8828,-6.8906,-6.9746,-6.9844,-6.9414,-6.8984,-6.7519,-6.5351,-6.3183,-6.1289,-5.9746,-5.9316,-5.914,-5.8828,-5.668,-5.6523,-5.6719,-5.3652,-5.1836,-5.0547,0.0,0.0,0.0,0.0,0.0,0.0,0.0,0.0,0.0,0.0,0.0,0.0,0.0,0.0,-4.6842,-4.8929,0.0,-5.3113,-5.7721,-6.012,-6.2743,-6.6551,-6.8225,-6.9513,-7.0802,-7.1687,-7.2206,-7.2206,-7.3745,-7.4572,-7.413,-7.488,-7.5361,-7.5361,-7.4572,-7.3726,-7.2879,-7.2014,-7.0744,-6.9071,-6.8186,-6.7109,-6.582,-6.457,-6.3512,-6.2666,-6.182,-6.1204,-6.08,-6.08,-6.0089,-5.88,-5.753,-5.6011,-5.4453,-5.401,-5.3318,-5.2442,-5.1606,-5.1096,-5.0673,0.0,0.0,0.0,0.0,0.0,0.0,0.0,-4.5594,-4.5594,-4.5594,-4.8442,-5.0385,-5.0212,-5.2318,-5.3337,-5.2299,-5.1587,-5.1664,-5.2818,-5.6088,-5.9877,-6.4109,-6.6109,-6.8013,-6.9898,-7.0264,-7.0414,-7.0341,-7.0341,-6.9992,-6.9344,-6.934,-6.9274,-6.9182,-7.0022,-7.0134,-6.9782,-7.1152,-7.1035,-6.9941,-7.0293,-6.9648,-6.8144,-6.5547,-6.4004,-6.3164,-6.25,-6.125,-5.9687,-5.8164,-5.7187,-5.6328,-5.4746,-5.3281,-5.1894,-5.0586,-4.9082,0.0,0.0,0.0,0.0,0.0,0.0,0.0,0.0,-4.4336,-4.5449,-4.7187,-4.8704,-5.0465,-5.2862,-5.4513,-5.673,-6.0433,-6.248,-6.4354,-6.6564,-6.8205,-6.9763,-7.1283,-7.1283,-7.1648,-7.2879,-7.3437,-7.388,-7.4187,-7.4668,-7.513,-7.5495,-7.4226,-7.3418,-7.3245,-7.2091,-7.0475,-6.8417,-6.7917,-6.6628,-6.4589,-6.357,-6.2724,-6.2082,-6.1204,-6.08,-6.0781,-6.0454,-5.955,-5.8165,-5.6415,-5.5235,-5.4477,-5.3764,-5.2868,-5.1883,-5.1047,-5.0618,-5.0318,0.0,0.0,0.0,0.0,0.0,0.0,0.0,0.0,-4.5594,-4.5594,-4.7894,-4.924,-4.849,-5.0029,-5.0452,-4.8817,-5.1279,-5.3914,-5.6291,-5.9638,-6.3397,-6.7648,-7.0187,-7.1264,-7.0783,-7.2283,-7.2701,-7.1934,-7.1934,-7.16,-7.0922,-7.0167,-6.9498,-6.8949,-6.9237,-6.9751,-7.042,-7.0718,-7.1172,-7.1582,-7.0137,-6.9433,-6.8984,-6.6426,-6.4902,-6.3769,-6.0723,-5.9004,-5.8027,-5.707,-5.668,-5.6426,-5.5469,-5.5019,-5.4258,-5.1113,-4.9512,-4.8398,-4.6758,-4.5176,-4.4121,-4.4707,-4.4199,-4.4375,0.0,-4.8848,-4.9941,-5.1641,-5.2734,-5.3964,-5.58,-5.7391,-5.9022,-6.0876,-6.3125,-6.4955,-6.5909,-6.6821,-6.7744,-6.8706,-7.0744,-7.1822,-7.1245,-7.3245,-7.3995,-7.2572,-7.4572,-7.5245,-7.386,-7.3596,-7.3149,-7.236,-7.0071,-6.8706,-6.8385,-6.6167,-6.4878,-6.4589,-6.2993,-6.2197,-6.2082,-6.1204,-6.08,-6.0723,-5.9223,-5.8473,-5.8165,-5.6415,-5.5297,-5.466,-5.4564,-5.3603,-5.2144,-5.1215,-4.9983,-4.8759,0.0,0.0,0.0,0.0,0.0,0.0,0.0,0.0,0.0,-4.5594,-4.6537,-4.7048,-4.6682,-4.7307,-4.7441,-4.6701,-4.976,-5.3453,-5.7492,-6.1858,-6.6628,-7.1841,-7.3572,-7.4687,-7.5303,-7.5572,-7.5284,-7.4399,-7.4399,-7.3776,-7.2521,-7.2247,-7.1959,-7.1695,-7.1907,-7.2195,-7.2557,-7.2717,-7.2707,-7.2475,-7.1365,-7.0019,-6.8359,-6.5254,-6.2949,-6.1133,-5.9707,-5.7988,0.0,-5.5371,-5.5098,-5.5019,-5.4668,-5.3848,-5.2656,-5.0762,-4.9219,-4.7871,-4.6641,-4.5391,-4.4785,-4.6172,-4.6621,-4.7363,-4.9805,-5.1426,-5.2891,-5.4629,-5.6074,-5.7383,-5.8594,-5.9688,-6.0961,-6.2613,-6.357,-6.4551,-6.5842,-6.6232,-6.634,-6.6205,-6.7571,-6.8975,-7.009,-7.1591,-7.2418,-7.2206,-7.3187,-7.3707,-7.3514,-7.2552,-7.1822,-7.1456,-6.9956,-6.8667,-6.7648,-6.659,-6.557,-6.4589,-6.3378,-6.2551,-6.2082,-6.1204,-6.08,-6.0716,-5.9107,-5.8414,-5.8288,-5.6659,-5.5835,-5.5476,-5.4465,-5.3696,-5.305,-5.2075,-5.1021,-5.0004,0.0,0.0,0.0,0.0,0.0,0.0,0.0,0.0,0.0,0.0,-4.5594,-4.5594,-4.5594,-4.5594,-4.5594,-4.5594,-4.8288,-5.2145,-5.7242,-6.2358,-6.7821,-7.3745,-7.5515,-7.7034,-7.8472,-7.7919,-7.7323,-7.6688,-7.6688,-7.5822,-7.4187,-7.4288,-7.4088,-7.3655,-7.3849,-7.3915,-7.3923,-7.413,-7.3705,-7.2812,-7.1622,-6.9767,-6.7267,-6.3344,-6.0241,-5.7957,-5.7558,-5.5898,-5.3769,-5.2891,-5.2598,-5.2637,-5.2871,-5.2246,-5.1191,-5.0156,-4.8613,-4.7168,-4.6758,-4.6191,-4.6191,-4.8164,-4.9297,-5.0449,-5.2383,-5.4004,-5.5508,-5.7012,-5.832,-5.9375,-5.9961,-6.0889,-6.1954,-6.3182,-6.3776,-6.4404,-6.5325,-6.5352,-6.4933,-6.4074,-6.4273,-6.5397,-6.7705,-6.9302,-7.0379,-7.0764,-7.1668,-7.2264,-7.2437,-7.1475,-7.0802,-7.0571,-6.9533,-6.8379,-6.7109,-6.6628,-6.5686,-6.4224,-6.3378,-6.2531,-6.1716,-6.1089,-6.0808,-6.0762,-5.9185,-5.8524,-5.844,-5.6846,-5.6217,-5.611,-5.461,-5.3949,-5.3735,-5.2773,-5.1773,-5.0834,0.0,0.0,0.0,0.0,0.0,0.0,0.0,0.0,0.0,0.0,0.0,0.0,0.0,-4.5594,-4.5594,-4.5594,-4.7182,-5.0337,-5.5453,-6.055,-6.6051,-7.2014,-7.5476,-7.765,-7.8477,-7.8477,-7.8438,-7.8419,-7.8419,-7.7573,-7.5918,-7.5933,-7.5067,-7.3504,-7.3644,-7.3719,-7.3721,-7.3923,-7.3521,-7.2496,-7.0,-6.7969,-6.5898,-6.0847,-5.7308,-5.4838,-5.3408,-5.1797,-5.0215,-4.9355,-4.9043,-4.9199,-5.0058,-5.0801,-5.1074,-4.9414,-4.7695,-4.6523,-4.7344,-4.7539,-4.8125,-5.0644,-5.1933,-5.3262,-5.5859,-5.7148,-5.8047,-5.8945,-5.916,-5.9219,-5.9238,-6.0586,-6.1676,-6.1593,-6.3644,-6.4934,-6.4006,-6.3748,-6.335,-6.247,-6.1537,-6.1627,-6.3339,-6.6519,-6.8148,-6.7321,-7.0321,-7.1495,-6.9898,-7.0494,-7.0533,-6.9763,-6.8071,-6.7148,-6.709,-6.5493,-6.4224,-6.3339,-6.2512,-6.1678,-6.0839,-6.08,-6.0871,-6.0891,-5.9226,-5.8571,-5.856,-5.6892,-5.6284,-5.6308,-5.541,-5.4626,-5.3887,-5.3008,-5.164,-5.0234,0.0,0.0,0.0,0.0,0.0,0.0,0.0,0.0,0.0,0.0,0.0,0.0,0.0,0.0,0.0,0.0,-4.7124,-4.9798,-5.378,-5.8819,-6.3551,-6.7821,-7.2879,-7.5707,-7.5976,-7.763,-7.8227,-7.7688,-7.7688,-7.7111,-7.5995,-7.5995,-7.5707,-7.5149,-7.5218,-7.5233,-7.5188,-7.4814,-7.3849,-7.2268,-6.8688,-6.5886,-6.3245,-5.7532,-5.4105,-5.208,0.0,-4.8745,-4.8227,-4.744,-4.7168,-4.7226,-4.7519,-4.7793,-4.791,-4.7344,-4.6758,-4.6621,-4.8066,-4.8457,-4.9355,-5.3066,-5.4219,-5.5117,-5.7734,-5.8555,-5.8672,-5.8398,-5.7871,-5.7305,-5.6719,-5.7558,-5.8671,-5.9799,-6.1549,-6.3068,-6.3877,-6.3856,-6.2963,-6.0879,-6.0846,-6.0499,-5.9246,-6.2704,-6.5609,-6.6994,-6.8167,-6.8821,-6.884,-6.909,-6.8859,-6.7994,-6.7398,-6.6571,-6.5455,-6.4878,-6.4166,-6.3288,-6.2474,-6.1684,-6.0935,-6.0935,-6.0715,-6.0287,-5.9224,-5.8451,-5.7888,-5.6872,-5.6488,-5.6458,-5.5579,-5.4724,-5.3887,-5.3027,-5.1973,-5.0996,0.0,0.0,0.0,0.0,0.0,0.0,0.0,0.0,0.0,0.0,0.0,0.0,0.0,0.0,0.0,0.0,0.0,-4.8529,-5.1645,-5.5761,-5.9608,-6.3031,-6.7686,-7.0341,-7.0629,-7.2225,-7.2976,-7.2764,-7.336,-7.336,-7.2822,-7.3456,-7.3572,-7.3283,-7.3283,-7.3283,-7.324,-7.2493,-7.1216,-6.9333,-6.5485,-6.2416,-5.9544,-5.4155,-5.1237,0.0,-4.7498,-4.677,-4.6764,-4.631,-4.6198,-4.6225,-4.6225,-4.6268,-4.6367,-4.668,-4.6992,-4.7676,-4.9707,-5.0703,-5.207,-5.5762,-5.6699,-5.7207,-5.918,-5.8672,-5.7656,-5.709,-5.5547,-5.4141,-5.3574,-5.3945,-5.498,-5.7012,-5.8428,-6.0206,-6.2863,-6.2543,-6.1645,-6.0546,-6.0305,-5.9661,-5.8143,-6.0455,-6.2841,-6.4717,-6.5974,-6.6917,-6.7475,-6.7782,-6.7686,-6.7109,-6.6821,-6.6147,-6.507,-6.5051,-6.4504,-6.3395,-6.2249,-6.1486,-6.1112,-6.1112,-6.0728,-6.0034,-5.9248,-5.8448,-5.7652,-5.6912,-5.6601,-5.6484,-5.5293,-5.4492,-5.3867,-5.2676,-5.1875,-5.1406,0.0,0.0,0.0,0.0,0.0,0.0,0.0,0.0,0.0,0.0,0.0,0.0,0.0,0.0,0.0,0.0,0.0,0.0,-4.9048,-5.1587,-5.4453,-5.7703,-6.0416,-6.2204,-6.2974,-6.3108,-6.3589,-6.4416,-6.5994,-6.6782,-6.6801,-6.8475,-6.8802,-6.8013,-6.8013,-6.8013,-6.7942,-6.7071,-6.5763,-6.3974,-6.055,-5.7703,-5.5049,-5.0856,-4.8759,-4.7844,-4.6339,-4.579,-4.5796,-4.5881,-4.5995,-4.6113,-4.6152,-4.6258,-4.6543,-4.7461,-4.8379,-4.9648,-5.2148,-5.4101,-5.6055,-5.8613,-5.9199,-5.9336,-6.0098,-5.7656,-5.5195,-5.5078,-5.2383,-5.0039,-4.9941,-5.0039,-5.0976,-5.3516,-5.4785,-5.6914,-6.1172,-6.0277,-5.9775,-6.1376,-6.0032,-5.9217,-5.9827,-5.9919,-6.0218,-6.0842,-6.3921,-6.5782,-6.582,-6.659,-6.7032,-6.7032,-6.6301,-6.5878,-6.582,-6.5769,-6.496,-6.3456,-6.1808,-6.1128,-6.132,-6.1256,-6.0847,-6.0102,-5.9221,-5.8455,-5.7773,-5.6933,-5.6601,-5.6445,-5.4785,-5.4101,-5.3867,-5.2168,-5.1504,-5.1465,0.0,0.0,0.0,0.0,0.0,0.0,0.0,0.0,0.0,0.0,0.0,0.0,0.0,0.0,0.0,0.0,0.0,0.0,-4.6537,-4.8952,-5.076,-5.1625,-5.5925,-5.8407,-5.8588,-6.0473,-6.155,-6.1762,-6.2204,-6.2397,-6.2416,-6.2858,-6.2954,-6.2743,-6.2743,-6.2743,-6.2685,-6.182,-6.0858,-5.9608,-5.6184,-5.403,-5.2491,-4.8913,-4.7413,-4.7067,-4.602,-4.566,-4.5681,-4.5971,-4.6144,-4.6364,-4.7009,-4.7245,-4.7578,-4.9082,-5.0586,-5.2168,-5.4101,-5.5918,-5.7695,-5.9629,-5.916,-5.8281,-5.8496,-5.6367,-5.3789,-5.1894,-4.9766,-4.7871,-4.6562,-4.793,-5.0078,-5.2617,-5.539,-5.8515,-6.2168,-6.2811,-6.2803,-6.2496,-6.261,-6.2247,-6.1044,-6.1492,-6.1959,-6.2126,-6.3271,-6.4262,-6.4897,-6.5743,-6.6205,-6.6205,-6.6013,-6.559,-6.4936,-6.3789,-6.2777,-6.1881,-6.1434,-6.1312,-6.1428,-6.0785,-6.0107,-5.941,-5.8531,-5.7693,-5.6914,-5.6699,-5.6601,-5.6562,-5.6113,-5.5547,-5.4844,-5.373,-5.293,-5.2285,0.0,0.0,0.0,0.0,0.0,0.0,0.0,0.0,0.0,0.0,0.0,0.0,0.0,0.0,0.0,0.0,0.0,0.0,0.0,-4.6941,-4.7721,-4.7721,-5.0481,-5.2001,-5.2001,-5.3405,-5.4491,-5.5222,-5.5607,-5.6165,-5.6896,-5.728,-5.7453,-5.7453,-5.7453,-5.7453,-5.7415,-5.653,-5.5703,0.0,0.0,-5.0471,-4.9462,-4.7182,-4.6336,-4.6278,-4.5787,-4.5866,-4.6302,-4.6872,-4.712,-4.7398,-4.8696,-4.9405,-5.0086,-5.1842,-5.3336,-5.4785,-5.6543,-5.7988,-5.9316,-6.0644,-5.9414,-5.7695,-5.6933,-5.418,-5.1133,-4.8945,-4.6797,-4.5019,-4.4043,-4.5058,-4.7012,-4.998,-5.2754,-5.623,-6.1172,-6.2285,-6.2948,-6.3912,-6.4125,-6.3755,-6.2641,-6.2979,-6.3229,-6.3128,-6.3712,-6.4309,-6.4793,-6.5654,-6.6119,-6.6119,-6.6119,-6.5693,-6.4832,-6.3197,-6.2231,-6.1938,-6.1573,-6.126,-6.0996,-6.0508,-5.9679,-5.8594,-5.8105,-5.7402,-5.6601,-5.6601,-5.6601,-5.6562,-5.6172,-5.5723,-5.5195,-5.4316,-5.3691,-5.3203,0.0,0.0,0.0,0.0,0.0,0.0,0.0,0.0,0.0,0.0,0.0,0.0,0.0,0.0,0.0,0.0,0.0,0.0,0.0,0.0,-4.5729,-4.5614,-4.571,-4.5729,-4.5594,-4.5594,-4.6297,-4.7778,-4.8529,-4.9644,-5.1077,-5.1837,-5.2183,-5.2183,-5.2183,-5.2183,-5.2145,-5.1385,-5.0664,-4.9885,-4.8375,-4.7355,-4.6644,0.0,-4.5594,-4.5594,-4.5594,-4.6116,-4.6967,-4.7927,-4.8447,-4.8974,-5.0786,-5.2016,-5.3163,-5.5032,-5.63,-5.746,-5.9198,-6.0273,-6.1074,-6.1719,-5.9863,-5.7402,-5.5547,-5.1816,-4.8203,-4.6348,-4.4062,-4.2363,-4.2266,-4.2422,-4.375,-4.7363,-4.9394,-5.293,-5.9785,-6.0742,-6.1992,-6.5371,-6.5117,-6.4606,-6.4475,-6.447,-6.4402,-6.4213,-6.4899,-6.5272,-6.5115,-6.5926,-6.6348,-6.6231,-6.6114,-6.5654,-6.4796,-6.3292,-6.2586,-6.2644,-6.1888,-6.1133,-6.039,-6.0293,-5.9375,-5.789,-5.7773,-5.7305,-5.6601,-5.6601,-5.6601,-5.6523,-5.5762,-5.5469,-5.5371,-5.4492,-5.418,-5.416,0.0,0.0,0.0,0.0,0.0,0.0,0.0,0.0,0.0,0.0,-4.6532,-4.5594,0.0,0.0,0.0,0.0,0.0,0.0,0.0,0.0,0.0,-4.5633,-4.6297,-4.6336,-4.5614,-4.5594,-4.5748,-4.6037,-4.6191,-4.6422,-4.6701,-4.6845,-4.6922,-4.6922,-4.6922,-4.6922,-4.6922,-4.6768,-4.6614,-4.646,-4.6172,-4.596,-4.5806,-4.5671,0.0,0.0,-4.5594,-4.5697,-4.6069,-4.7621,-4.9199,-5.0831,-5.2608,-5.3733,-5.4897,-5.7353,-5.8788,-5.9959,-6.1693,-6.2878,-6.3496,-6.293,-6.0312,-5.7246,-5.4785,-5.0918,-4.7129,-4.4668,-4.3223,-4.2207,-4.1523,-4.2539,-4.4844,-4.9062,-5.1172,-5.4668,-6.1582,-6.2558,-6.3574,-6.6348,-6.6543,-6.6445,-6.6424,-6.6405,-6.6404,-6.636,-6.6497,-6.6151,-6.5146,-6.5926,-6.6076,-6.5349,-6.4623,-6.3904,-6.3207,-6.2898,-6.2454,-6.1893,-6.1736,-6.1229,-6.0371,-5.9707,-5.8867,-5.7851,-5.7148,-5.6738,-5.6601,-5.6601,-5.6601,-5.6582,-5.6426,-5.6367,-5.6269,-5.539,-5.5078,-5.4961,0.0,0.0,0.0,0.0,0.0,0.0,0.0,-4.6249,-4.739,-5.0727,-5.0397,-4.928,-4.775,-4.6402,-4.5594,0.0,0.0,0.0,0.0,0.0,0.0,0.0,-4.6432,-4.649,-4.5614,-4.5594,-4.5825,-4.6278,0.0,-4.5825,-4.6278,-4.5806,-4.5594,-4.5594,-4.5594,-4.5594,-4.5594,-4.5594,-4.5594,-4.5594,-4.5594,-4.5594,-4.5594,0.0,0.0,0.0,-4.5594,-4.5893,-4.6451,-4.7702,-4.9326,-5.1219,-5.3386,-5.5296,-5.7143,-5.9257,-6.0928,-6.2348,-6.3653,-6.4357,-6.4525,-6.3722,-6.0272,-5.6412,-5.3906,-4.9648,-4.5625,-4.3476,-4.2363,-4.166,-4.1269,-4.2207,-4.4141,-4.7617,-4.9238,-5.2461,-5.9375,-6.0742,-6.2324,-6.5801,-6.6621,-6.6894,-6.6894,-6.6894,-6.6894,-6.6894,-6.6484,-6.6167,-6.6043,-6.5998,-6.5585,-6.4707,-6.3845,-6.3238,-6.2915,-6.2446,-6.2043,-6.1699,-6.1699,-6.1015,-5.9765,-5.9375,-5.8476,-5.7207,-5.6777,-5.6601,-5.6601,-5.6601,-5.6601,-5.6601,-5.6601,-5.6601,-5.6543,-5.6133,-5.5976,-5.5918,0.0,0.0,0.0,0.0,0.0,0.0,0.0,-4.82,-4.9498,-5.3836,-5.4186,-5.3143,-5.0749,-4.823,-4.6402,0.0,0.0,0.0,0.0,0.0,0.0,0.0,0.0,0.0,-4.5614,0.0,0.0,-4.6624,-4.5932,0.0,0.0,0.0,0.0,0.0,-4.5594,-4.5594,-4.5594,-4.5594,-4.5594,0.0,0.0,-4.5594,0.0,0.0,0.0,0.0,0.0,-4.6028,-4.6759,-4.7567,-4.8875,-5.0529,-5.2722,-5.548,-5.8226,-5.9919,-6.2012,-6.398,-6.5023,-6.5478,-6.5401,-6.446,-6.0212,-5.563,-5.3213,-4.8669,-4.4471,-4.2754,-4.2051,-4.1621,-4.1269,-4.1855,-4.3262,-4.5879,-4.6875,-4.9726,-5.664,-5.8535,-6.0644,-6.457,-6.6133,-6.6836,-6.664,-6.6797,-6.6894,-6.6894,-6.6094,-6.582,-6.6328,-6.5527,-6.4726,-6.4043,-6.3183,-6.2715,-6.2715,-6.2031,-6.1699,-6.1699,-6.1699,-6.0918,-5.9453,-5.9277,-5.8359,-5.6875,-5.668,-5.6601,-5.6601,-5.6601,-5.6601,-5.6601,-5.6601,-5.6601,-5.6601,-5.6601,-5.6601,-5.6601,0.0,0.0,0.0,0.0,0.0,0.0,0.0,-4.8122,-5.0686,-5.5999,-5.5631,-5.4658,-5.4094,-5.176,-4.898,0.0,0.0,0.0,0.0,0.0,0.0,0.0,0.0,0.0,0.0,0.0,0.0,-4.5729,-4.5633,0.0,0.0,0.0,0.0,0.0,0.0,-4.5594,-4.5594,-4.5594,0.0,0.0,0.0,0.0,0.0,0.0,0.0,0.0,0.0,-4.5652,-4.5845,-4.6721,-4.7605,-4.8529,-4.9548,-5.2665,-5.6304,-5.8036,-6.0963,-6.3976,-6.5575,-6.6679,-6.6984,-6.5401,-6.0567,-5.5555,-5.3072,-4.8528,-4.4351,-4.2734,-4.2969,-4.3008,-4.1484,-4.1855,-4.3262,-4.5879,-4.6367,-4.8828,-5.5742,-5.8144,-6.0195,-6.293,-6.541,-6.6582,-6.5801,-6.6445,-6.6894,-6.6894,-6.6094,-6.5293,-6.457,-6.3711,-6.3203,-6.3125,-6.2265,-6.1816,-6.1816,-6.1738,-6.1699,-6.1699,-6.1699,-6.1191,-6.0254,-5.9531,-5.8672,-5.7734,-5.6933,-5.6601,-5.6601,-5.6601,-5.6601,-5.6601,-5.6601,-5.6601,-5.6601,-5.6601,-5.6601,-5.6601,0.0,0.0,0.0,0.0,0.0,0.0,-4.7847,-4.8363,-5.0854,-5.8253,-5.8095,-5.7542,-5.8227,-5.5549,-5.152,-4.6075,0.0,0.0,0.0,0.0,0.0,0.0,0.0,0.0,0.0,0.0,-4.5594,-4.5594,-4.5594,0.0,0.0,0.0,0.0,0.0,0.0,-4.5594,-4.5594,-4.5594,0.0,0.0,0.0,0.0,0.0,0.0,0.0,0.0,0.0,0.0,-4.6432,-4.6778,-4.7096,-4.7355,-4.7163,-4.8952,-5.1856,-5.5626,-5.9177,-6.2397,-6.4605,-6.6237,-6.6912,-6.5328,-6.0426,-5.554,-5.3708,-4.8889,-4.4639,-4.4081,-4.3828,-4.3496,-4.2832,-4.2539,-4.3086,-4.5176,-4.4648,-4.6016,-5.1914,-5.3359,-5.5508,-6.0156,-6.2519,-6.4258,-6.5488,-6.5918,-6.5683,-6.4629,-6.4726,-6.4219,-6.2812,-6.289,-6.2754,-6.2226,-6.1875,-6.1699,-6.1699,-6.1699,-6.1699,-6.1699,-6.1699,-6.123,-6.0371,-5.957,-5.8711,-5.7851,-5.6973,-5.6601,-5.6601,-5.6601,-5.6601,-5.6601,-5.6601,-5.6601,-5.6601,-5.6601,-5.6601,-5.6601,0.0,0.0,0.0,0.0,0.0,-4.2855,-4.8067,-4.8825,-5.1413,-5.865,-5.9155,-5.9314,-6.0649,-5.7088,-5.2664,-4.7875,-4.6326,0.0,0.0,0.0,0.0,0.0,0.0,0.0,0.0,0.0,-4.597,-4.597,-4.622,-4.622,0.0,0.0,-4.5845,-4.5594,0.0,0.0,0.0,0.0,0.0,0.0,0.0,0.0,0.0,0.0,0.0,0.0,0.0,0.0,0.0,0.0,0.0,-4.6797,-4.6182,-4.6624,-4.8202,-5.2549,-5.678,-6.0492,-6.2531,-6.4686,-6.5967,-6.44,-5.9698,-5.5109,-5.3623,-4.9051,-4.5082,-4.4972,-4.4686,-4.4316,-4.3808,-4.3203,-4.3183,-4.4414,-4.3379,-4.4043,-4.8769,-4.9863,-5.1953,-5.6719,-5.9004,-6.1113,-6.3476,-6.4629,-6.4609,-6.3105,-6.3574,-6.3262,-6.1777,-6.2285,-6.2324,-6.1719,-6.1699,-6.1699,-6.1699,-6.1699,-6.1699,-6.1699,-6.1699,-6.1387,-6.0762,-5.9922,-5.9082,-5.8242,-5.7363,-5.6836,-5.6601,-5.6601,-5.6601,-5.6621,-5.6875,-5.6973,-5.6973,-5.6973,-5.6973,-5.6953,0.0,0.0,0.0,0.0,0.0,0.0,-4.6507,-4.9546,-5.2721,-5.6533,-5.8076,-5.9319,-6.0649,-5.5511,-5.1904,-5.1846,-4.8009,0.0,0.0,0.0,0.0,0.0,0.0,0.0,0.0,0.0,-4.6885,-4.6885,-4.7682,-4.7682,-4.6885,-4.6885,-4.6432,-4.5594,0.0,0.0,0.0,0.0,0.0,0.0,0.0,0.0,0.0,0.0,0.0,0.0,0.0,0.0,0.0,0.0,0.0,0.0,0.0,-4.6317,-4.6133,-4.8702,-5.3664,-5.8511,-5.9338,-6.205,-6.4224,-6.2543,-5.8292,-5.4101,-5.2484,-4.8895,-4.5679,-4.4943,-4.5596,-4.5742,-4.4023,-4.3691,-4.3691,-4.3711,-4.2969,-4.3613,-4.7129,-4.9101,-5.084,-5.2558,-5.5078,-5.7344,-5.9101,-6.2324,-6.3945,-6.3066,-6.3008,-6.2637,-6.1758,-6.1719,-6.1719,-6.1699,-6.1699,-6.1699,-6.1699,-6.1699,-6.1699,-6.1699,-6.1699,-6.1699,-6.166,-6.0781,-5.9941,-5.914,-5.8262,-5.7402,-5.6601,-5.6601,-5.6601,-5.6699,-5.7558,-5.789,-5.789,-5.789,-5.789,-5.7754,0.0,0.0,0.0,0.0,0.0,0.0,0.0,-4.6327,-4.8736,-5.3378,-5.3567,-5.4526,-5.7838,-5.3933,-5.1087,-5.1087,-4.773,0.0,0.0,0.0,0.0,0.0,0.0,0.0,0.0,-4.7298,-4.7721,-4.7721,-4.799,-4.7971,-4.7721,-4.7154,-4.6759,-4.6471,-4.5883,-4.5594,0.0,0.0,0.0,0.0,0.0,0.0,-4.5594,0.0,0.0,0.0,0.0,0.0,0.0,0.0,0.0,0.0,0.0,0.0,0.0,-4.6576,-4.9798,-5.3414,-5.4818,-5.6819,-5.8261,-5.7184,-5.4376,-5.1636,-5.0627,-4.8037,-4.5793,-4.5716,-4.5947,-4.6022,-4.5566,-4.498,-4.4785,-4.5371,-4.4746,-4.4766,-4.6465,-4.8203,-5.0371,-5.3242,-5.7969,-6.1191,-6.1738,-6.332,-6.3691,-6.2226,-6.2656,-6.2617,-6.1758,-6.1699,-6.1699,-6.1699,-6.1699,-6.1699,-6.1699,-6.1699,-6.1699,-6.1699,-6.1699,-6.1699,-6.168,-6.0801,-6.0254,-5.9941,-5.8515,-5.7734,-5.748,-5.748,-5.748,-5.7578,-5.8457,-5.8418,-5.789,-5.789,-5.7519,-5.6973,0.0,0.0,0.0,0.0,0.0,0.0,0.0,-4.5312,-4.7293,-5.0746,-5.0615,-5.1828,-5.606,-5.2183,-4.9779,-5.1048,-4.7749,0.0,0.0,0.0,0.0,0.0,0.0,0.0,-4.6904,-4.8009,-4.8894,-4.9519,-4.9856,-5.0029,-5.001,-4.951,-4.8586,-4.7336,-4.6797,-4.6191,0.0,0.0,0.0,0.0,0.0,0.0,-4.5594,0.0,0.0,0.0,0.0,0.0,0.0,0.0,0.0,0.0,0.0,0.0,0.0,0.0,-4.7114,-4.9211,-5.1221,-5.3222,-5.4568,-5.3722,-5.1856,-4.999,-4.9206,-4.7366,-4.584,-4.5951,-4.6053,-4.6138,-4.6202,-4.5545,-4.5176,-4.5723,-4.5078,-4.4805,-4.5683,-4.7598,-5.0176,-5.3594,-5.8183,-6.1074,-6.1074,-6.2441,-6.2871,-6.1777,-6.2207,-6.2265,-6.1738,-6.1699,-6.1699,-6.1699,-6.1699,-6.1699,-6.1699,-6.1699,-6.1699,-6.1699,-6.1699,-6.1523,-6.1191,-6.0996,-6.0371,-5.9414,-5.8691,-5.8027,0.0,-5.7402,-5.7598,-5.7949,-5.8496,-5.8574,-5.8359,-5.8027,-5.7558,-5.7031,0.0,0.0,0.0,0.0,0.0,0.0,0.0,-4.5975,-4.7747,-4.8568,-4.8948,-5.0625,-5.4549,-5.0087,-4.8058,-5.1173,0.0,0.0,0.0,0.0,0.0,0.0,0.0,0.0,-4.6981,-4.8625,-5.0279,-5.1904,-5.2779,-5.3241,-5.3299,-5.3299,-5.1529,-4.8375,-4.8259,-4.7221,-4.5594,-4.5594,-4.5633,-4.5691,-4.5614,-4.5633,0.0,0.0,0.0,0.0,0.0,0.0,0.0,0.0,0.0,0.0,0.0,0.0,0.0,0.0,0.0,0.0,0.0,-5.0856,-5.2472,-5.1654,-5.0279,-4.8913,-4.8105,-4.6804,0.0,-4.5796,-4.5957,-4.608,-4.6108,-4.5536,-4.5078,-4.5098,-4.4414,-4.418,-4.498,-4.75,-5.0508,-5.3887,-5.6582,-5.8144,-5.8086,-6.0273,-6.1699,-6.1699,-6.164,-6.1621,-6.1699,-6.164,-6.1601,-6.1601,-6.1601,-6.1601,-6.1601,-6.1543,-6.1523,-6.1523,-6.1523,-6.1094,-6.0332,-6.1152,-6.0234,-5.8027,-5.8789,-5.8183,-5.6699,-5.6758,-5.7226,-5.791,-5.8027,-5.8496,-5.9004,-5.8203,-5.7851,-5.7695,0.0,0.0,0.0,0.0,0.0,0.0,0.0,0.0,0.0,0.0,-4.6443,-4.6864,-4.7865,-4.6749,-4.622,0.0,0.0,0.0,0.0,0.0,0.0,0.0,0.0,0.0,-4.7817,-4.951,-5.0894,-5.1904,-5.2779,-5.3549,-5.4184,-5.4184,-5.3049,-5.0942,-4.9663,-4.7778,-4.5594,-4.5594,-4.597,-4.6547,-4.5883,-4.599,0.0,0.0,0.0,0.0,-4.6663,-4.7548,0.0,0.0,0.0,0.0,0.0,0.0,0.0,0.0,-4.5594,-4.5729,-4.6326,0.0,-4.7336,-4.7124,-4.6778,-4.6441,0.0,-4.5898,-4.568,-4.5769,-4.5846,-4.592,-4.6072,-4.5962,-4.5883,-4.5976,-4.582,-4.5762,-4.5976,-4.9922,-5.3848,-5.664,-5.9258,-6.0547,-5.9883,-6.0957,-6.1699,-6.1699,-6.1074,-6.0996,-6.166,-6.1074,-6.0703,-6.0703,-6.0703,-6.0703,-6.0703,-6.0098,-5.9785,-5.9785,-5.9785,-5.9687,-5.9492,-5.9687,-5.9453,-5.8867,-5.8418,-5.7969,-5.7656,-5.8301,-5.832,-5.8027,-5.9316,-5.914,-5.8183,-5.7988,-5.748,-5.6875,0.0,0.0,0.0,0.0,0.0,0.0,0.0,0.0,0.0,0.0,0.0,0.0,0.0,0.0,0.0,0.0,0.0,0.0,0.0,0.0,0.0,0.0,0.0,-4.8298,-4.8682,-5.001,-5.1491,-5.3087,-5.3568,-5.4645,-5.6222,-5.5818,-5.4511,-5.2365,-4.9529,-4.7259,-4.5594,-4.5594,-4.5874,-4.6259,-4.5787,0.0,0.0,0.0,0.0,0.0,-4.6124,-4.6836,0.0,-4.8529,-4.824,-4.7605,0.0,0.0,0.0,0.0,-4.5594,-4.5594,-4.5594,-4.5594,-4.5594,-4.5594,-4.5594,-4.5594,-4.5594,-4.5594,-4.5629,-4.5685,-4.5761,-4.5838,-4.5974,-4.6069,-4.6145,-4.6289,-4.6308,-4.6992,-4.8965,-5.1992,-5.5254,-5.8633,-6.0254,-6.1074,-6.0996,-6.1055,-6.1094,-6.1094,-6.0312,-6.0058,-6.0527,-6.0117,-5.9844,-5.9844,-5.9453,-5.9433,-5.9844,-5.9414,-5.9199,-5.9199,-5.9199,-5.8984,-5.8613,-5.9023,-5.8769,-5.8008,-5.793,-5.7676,-5.7344,-5.7812,-5.7969,-5.7949,-5.8457,-5.8359,-5.7851,-5.7441,-5.6992,-5.6601,0.0,0.0,0.0,0.0,0.0,0.0,0.0,0.0,0.0,0.0,0.0,0.0,0.0,0.0,0.0,0.0,0.0,0.0,0.0,0.0,0.0,0.0,-4.7682,-4.8567,-4.9586,-5.0327,-5.1962,-5.4491,-5.4895,-5.6242,-5.8492,-5.8127,-5.6319,-5.3241,-4.9385,-4.6971,-4.5806,-4.5806,-4.5806,-4.5787,-4.5652,0.0,0.0,0.0,0.0,0.0,0.0,0.0,0.0,-4.7702,-4.7471,-4.7019,-4.7702,0.0,0.0,0.0,0.0,0.0,-4.5768,-4.5806,-4.5768,-4.5633,-4.5594,-4.5594,-4.5594,-4.5594,-4.5594,-4.5594,-4.5708,-4.5821,-4.5872,-4.6112,-4.6339,-4.6442,-4.6816,-4.8496,-5.2539,-5.3965,-5.5996,-5.9765,-6.0449,-6.084,-6.1445,-6.082,-6.039,-6.039,-5.9531,-5.9062,-5.9199,-5.9062,-5.9004,-5.9004,-5.8281,-5.8183,-5.8808,-5.8808,-5.8808,-5.8808,-5.8808,-5.8418,-5.7734,-5.8476,-5.8008,-5.664,-5.7383,-5.7285,-5.6601,-5.6738,-5.7168,-5.7637,-5.7031,-5.7168,-5.7617,-5.6875,-5.6601,-5.6601,0.0,0.0,0.0,0.0,0.0,0.0,0.0,0.0,0.0,0.0,0.0,0.0,0.0,0.0,0.0,0.0,0.0,0.0,0.0,0.0,0.0,-4.6846,-4.7682,-4.8856,-5.0481,-5.0635,-5.1962,-5.4491,-5.6665,-5.828,-5.9358,-6.1396,-5.9454,-5.4203,-5.2077,-4.9481,-4.6701,-4.6701,-4.6701,-4.6644,-4.5893,0.0,0.0,0.0,0.0,0.0,0.0,0.0,0.0,-4.7038,-4.7,-4.6923,-4.7038,0.0,0.0,0.0,0.0,0.0,-4.6509,-4.6701,-4.6528,-4.5787,-4.5594,-4.5594,-4.5594,-4.5594,-4.5594,-4.5594,-4.5708,-4.5809,-4.5815,-4.6575,-4.7205,-4.7235,-4.9135,-5.1621,-5.4492,-5.6289,-5.7812,-5.9219,-6.0644,-6.1269,-6.0664,-6.0488,-6.039,-6.039,-5.8965,-5.8418,-5.916,-5.8496,-5.8105,-5.8105,-5.7969,-5.7617,-5.6992,-5.6992,-5.6992,-5.6992,-5.6992,-5.6933,-5.6797,-5.6933,-5.6855,-5.6601,-5.6738,-5.6719,-5.666,-5.7402,-5.7344,-5.6855,-5.7461,-5.7324,-5.6777,-5.664,-5.6601,-5.6601,0.0,0.0,0.0,0.0,0.0,0.0,0.0,0.0,0.0,0.0,0.0,0.0,0.0,0.0,0.0,0.0,0.0,0.0,0.0,0.0,-4.6595,-4.8856,-4.8856,-4.9394,-5.0673,-5.2058,-5.4203,-5.7203,-5.9319,-6.1243,-6.2916,-6.1339,-5.8165,-5.3683,-5.1029,-4.875,-4.6865,-4.6394,-4.6201,-4.6163,0.0,0.0,0.0,0.0,0.0,0.0,0.0,0.0,0.0,0.0,-4.6586,-4.6278,-4.6759,0.0,0.0,0.0,0.0,0.0,-4.6086,-4.6201,-4.6105,-4.571,-4.5951,-4.6182,-4.571,-4.5594,-4.5594,-4.5594,-4.566,-4.5715,-4.5783,-4.6999,-4.8485,-5.0026,-5.2088,-5.4082,-5.5762,-5.7109,-5.8379,-5.9687,-6.0527,-6.084,-6.0449,-6.0019,-5.9551,-5.9082,-5.789,-5.7363,-5.7773,-5.7422,-5.7207,-5.7207,-5.7207,-5.7012,-5.6601,-5.6601,-5.6601,-5.6601,-5.6601,-5.6601,-5.6601,-5.6601,-5.6601,-5.6601,-5.6601,-5.6601,-5.6621,-5.7031,-5.6953,-5.664,-5.7031,-5.6953,-5.6601,-5.6601,-5.6601,-5.668,0.0,0.0,0.0,0.0,0.0,0.0,0.0,0.0,0.0,0.0,0.0,0.0,0.0,0.0,0.0,0.0,0.0,0.0,0.0,-4.5594,-4.6941,-4.9952,-4.9837,-5.0567,-5.2433,-5.4395,-5.703,-6.0396,-6.2531,-6.4474,-6.607,-6.1166,-5.7069,-5.3645,-5.0644,-4.8509,-4.7144,-4.6471,-4.596,-4.5594,0.0,0.0,0.0,0.0,0.0,0.0,0.0,0.0,0.0,0.0,0.0,0.0,0.0,0.0,0.0,-4.5594,-4.5594,-4.5633,-4.5845,-4.5893,-4.5893,-4.5893,-4.624,-4.6528,-4.624,-4.6191,-4.6306,-4.671,-4.6495,-4.6243,-4.6332,-4.7829,-4.9921,-5.2531,-5.4743,-5.6463,-5.7363,-5.8242,-5.9277,-6.0547,-6.0703,-6.0625,-6.043,-5.9668,-5.8848,-5.7969,-5.709,-5.6601,-5.6601,-5.6601,-5.6601,-5.6601,-5.6601,-5.6601,-5.6601,-5.6601,-5.6601,-5.6601,-5.6601,-5.6601,-5.6601,-5.6601,-5.6601,-5.6601,-5.6601,-5.6601,-5.6601,-5.6601,-5.6601,-5.6601,-5.6601,-5.6601,-5.6601,-5.6601,-5.6601,-5.6719,0.0,0.0,0.0,0.0,0.0,0.0,0.0,0.0,0.0,0.0,0.0,0.0,0.0,0.0,0.0,0.0,0.0,0.0,0.0,-4.5594,-4.6394,-4.8221,-4.9779,-5.2837,-5.7646,-5.7934,-5.9665,-6.3019,-6.634,-6.7628,-6.6917,-6.2627,-5.88,-5.5434,-5.3645,-5.1048,-4.8009,-4.7952,-4.7028,-4.5594,-4.5594,0.0,0.0,0.0,0.0,0.0,0.0,0.0,0.0,0.0,0.0,0.0,0.0,0.0,-4.5594,-4.5594,-4.5594,-4.5787,-4.6586,-4.6817,-4.6817,-4.6817,-4.624,-4.6075,-4.7586,-4.7913,-4.8375,-5.0,-4.9159,-4.8071,-4.7948,-4.9459,-5.1391,-5.3384,-5.6499,-5.8992,-5.9999,-6.0879,-6.1465,-6.1582,-6.1601,-6.1289,-6.0488,-5.9668,-5.8848,-5.7969,-5.709,-5.6601,-5.6601,-5.6601,-5.6601,-5.6601,-5.6601,-5.6601,-5.6601,-5.6601,-5.6601,-5.6601,-5.6601,-5.6601,-5.6601,-5.6601,-5.6601,-5.6601,-5.6601,-5.6601,-5.6601,-5.6601,-5.6601,-5.6601,-5.6601,-5.6601,-5.6601,-5.6601,-5.6601,-5.6719,0.0,0.0,0.0,0.0,0.0,0.0,0.0,0.0,0.0,0.0,0.0,0.0,0.0,0.0,0.0,0.0,0.0,0.0,0.0,-4.5594,-4.6826,-4.9606,-5.0837,-5.3337,-5.7396,-6.0608,-6.4397,-6.8821,-7.0129,-6.9513,-6.6974,-6.1704,-5.7703,-5.4818,-5.2068,-5.0125,-4.8836,-4.7798,-4.699,-4.6355,-4.5825,-4.5594,0.0,0.0,0.0,0.0,0.0,0.0,0.0,0.0,-4.5594,-4.5594,-4.5594,-4.5594,-4.5594,-4.5594,-4.5594,-4.5671,-4.599,-4.6086,-4.6086,-4.6086,-4.5845,-4.6191,-4.8394,-4.8913,-4.9394,-5.1106,-5.0961,-5.0407,-4.993,-5.0867,-5.2499,-5.4892,-5.7715,-5.9931,-6.0946,-6.1364,-6.1412,-6.0957,-6.0898,-6.0351,-5.8984,-5.8574,-5.8027,-5.7168,-5.6797,-5.6601,-5.6601,-5.6601,-5.6601,-5.6601,-5.6601,-5.6601,-5.6601,-5.6601,-5.6601,-5.6601,-5.6601,-5.6601,-5.6601,-5.6601,-5.6601,-5.6601,-5.6601,-5.6601,-5.6601,-5.6601,-5.6601,-5.6601,-5.6601,-5.6601,-5.6601,-5.6601,-5.6933,-5.7539,0.0,0.0,0.0,0.0,0.0,0.0,0.0,0.0,0.0,0.0,0.0,0.0,0.0,0.0,0.0,0.0,0.0,0.0,-4.5594,-4.5594,-4.6883,-4.974,-5.0664,-5.3087,-5.7319,-6.1858,-6.6282,-7.0591,-7.1129,-6.9648,-6.6186,-6.0819,-5.7223,-5.5145,-5.1722,-5.0183,-5.0067,-4.8105,-4.7135,-4.6846,-4.624,-4.6009,0.0,0.0,0.0,0.0,0.0,0.0,0.0,0.0,-4.5594,-4.5594,-4.5594,-4.5594,-4.5594,-4.5594,-4.5594,-4.5594,-4.5594,-4.5594,-4.5594,-4.5594,-4.5998,-4.7124,-4.9952,-5.0394,-5.0818,-5.3049,-5.2654,-5.1751,-5.1302,-5.171,-5.2988,-5.5708,-5.8039,-5.9883,-6.0886,-6.0781,-6.0444,-5.9972,-5.9936,-5.9392,-5.8027,-5.789,-5.7539,-5.668,-5.6601,-5.6601,-5.6601,-5.6601,-5.6465,-5.6191,-5.6465,-5.6465,-5.6191,-5.6465,-5.6465,-5.6191,-5.6191,-5.6191,-5.6191,-5.6191,-5.6191,-5.6191,-5.6484,-5.6601,-5.6601,-5.6601,-5.6601,-5.6601,-5.6601,-5.6601,-5.6621,-5.6914,-5.7383,-5.8066,0.0,0.0,0.0,0.0,0.0,0.0,0.0,0.0,0.0,0.0,0.0,0.0,0.0,0.0,0.0,0.0,0.0,0.0,-4.5594,-4.5594,-4.6336,-4.8029,-4.8933,-5.2183,-5.8088,-6.1531,-6.4532,-6.7109,-6.884,-6.7917,-6.4474,-6.0262,-5.7819,-5.683,-5.3414,-5.1904,-5.1712,-4.9183,-4.7644,-4.6904,-4.6904,-4.6904,-4.6981,0.0,0.0,0.0,0.0,0.0,0.0,0.0,-4.5594,-4.5594,-4.5594,-4.5594,-4.5594,-4.5594,-4.5594,-4.5594,-4.5594,-4.5594,-4.5594,-4.5614,-4.6874,-4.9009,-5.2414,-5.2538,-5.2885,-5.631,-5.4318,-5.1942,-5.1942,-5.1942,-5.2839,-5.5548,-5.7392,-5.8859,-5.9857,-5.9243,-5.8749,-5.8864,-5.8892,-5.8623,-5.7949,-5.789,-5.7539,-5.664,-5.6582,-5.6582,-5.6582,-5.6582,-5.6172,-5.5332,-5.6133,-5.6152,-5.5312,-5.6152,-5.6133,-5.5293,-5.5273,-5.5273,-5.5293,-5.5293,-5.5293,-5.5351,-5.6211,-5.6582,-5.6601,-5.6601,-5.6601,-5.6601,-5.6601,-5.6601,-5.6699,-5.7578,-5.789,-5.8144,0.0,0.0,0.0,0.0,0.0,0.0,0.0,0.0,0.0,0.0,0.0,0.0,0.0,0.0,0.0,0.0,0.0,0.0,-4.5594,-4.5594,-4.6105,-4.7221,-4.9221,-5.0856,-5.201,-5.653,-6.2166,-6.8936,-6.8225,-6.582,-6.1839,-5.8184,-5.5703,-5.428,-5.328,-5.2164,-5.0933,-4.8933,-4.7971,-4.7702,-4.7135,-4.6904,-4.6981,0.0,0.0,0.0,0.0,0.0,0.0,0.0,0.0,0.0,-4.5594,-4.5594,-4.5594,-4.5594,-4.5594,-4.5594,-4.5594,-4.5594,-4.5748,-4.6355,-4.7778,-4.976,-5.2568,-5.3472,-5.453,-5.7338,-5.6126,-5.4568,-5.4568,-5.4568,-5.483,-5.5653,-5.7225,-5.851,-5.889,-5.8726,-5.8389,-5.7902,-5.798,-5.7746,-5.6924,-5.6929,-5.6621,-5.5742,-5.5683,-5.543,-5.4805,-5.4765,-5.4922,-5.5293,-5.4961,-5.4941,-5.5293,-5.4941,-5.4648,-5.4375,-5.3769,-5.3789,-5.4394,-5.4394,-5.4726,-5.5312,-5.5566,-5.6035,-5.6601,-5.6601,-5.6601,-5.6601,-5.6601,-5.6601,-5.6621,-5.6894,-5.7754,-5.8887,0.0,0.0,0.0,0.0,0.0,0.0,0.0,0.0,0.0,0.0,-4.6374,-4.6374,0.0,0.0,0.0,0.0,0.0,0.0,0.0,-4.5594,-4.599,-4.6846,-4.8375,-4.9721,-5.0875,-5.5549,-6.0012,-6.4147,-6.4089,-6.2262,-5.8742,-5.7376,-5.6011,-5.4722,-5.5068,-5.4107,-5.2068,-5.001,-4.874,-4.8067,-4.7567,-4.7586,-4.799,0.0,0.0,0.0,0.0,0.0,0.0,0.0,0.0,0.0,-4.5594,-4.5594,-4.5594,-4.5594,-4.5594,-4.5594,-4.5594,-4.5845,-4.6317,-4.7182,-4.9163,-5.1664,-5.4568,-5.5876,-5.7011,-5.8915,-5.7646,-5.6415,-5.7088,-5.6126,-5.5549,-5.6569,-5.703,-5.7422,-5.7844,-5.7621,-5.7129,-5.6401,-5.6425,-5.6182,-5.5365,-5.5419,-5.5267,-5.4739,-5.4745,-5.4551,-5.4023,-5.4004,-5.4082,-5.4258,-5.4082,-5.4082,-5.4277,-5.4082,-5.3828,-5.3476,-5.2949,-5.2793,-5.2988,-5.332,-5.3769,-5.4316,-5.5,-5.5605,-5.6113,-5.6465,-5.6601,-5.6601,-5.6601,-5.6601,-5.664,-5.6992,-5.7773,-5.873,0.0,0.0,-4.3331,-4.5155,0.0,0.0,0.0,0.0,0.0,0.0,-4.5594,-4.5594,0.0,0.0,0.0,0.0,0.0,0.0,0.0,-4.5594,-4.599,-4.6846,-4.7124,-4.9144,-5.3241,-5.6857,-5.7607,-5.5357,-5.7915,-5.7896,-5.5511,-5.7242,-5.7607,-5.681,-5.7607,-5.6588,-5.4087,-5.1471,-4.9433,-4.799,-4.799,-4.8471,-4.926,-5.0125,0.0,0.0,0.0,0.0,0.0,0.0,0.0,0.0,-4.5594,-4.5594,-4.5594,-4.5594,-4.5594,-4.5594,-4.5594,-4.6297,-4.7212,-4.8105,-5.1029,-5.453,-5.778,-5.9088,-5.9819,-6.0531,-5.8896,-5.7788,-5.9242,-5.7011,-5.5665,-5.7838,-5.6857,-5.603,-5.6676,-5.6088,-5.5344,-5.4644,-5.4568,-5.4328,-5.3646,-5.3704,-5.3755,-5.3677,-5.37,-5.3711,-5.3632,-5.3574,-5.3203,-5.248,-5.3164,-5.3183,-5.248,-5.3183,-5.3144,-5.2344,-5.2422,-5.2012,-5.1191,-5.2148,-5.2617,-5.2793,-5.4531,-5.5254,-5.5254,-5.6211,-5.6543,-5.6484,-5.6562,-5.6601,-5.6699,-5.748,-5.7832,-5.8008,0.0,0.0,-4.4072,-4.45,0.0,0.0,0.0,0.0,0.0,0.0,0.0,0.0,0.0,0.0,0.0,0.0,0.0,0.0,0.0,-4.5594,-4.599,-4.6846,-4.8817,-5.1241,-5.4164,-5.3145,-5.2626,-5.2712,-5.5261,-5.5568,-5.378,-5.5472,-5.5818,-5.5049,-5.5222,-5.426,-5.225,-4.9067,-4.7509,-4.7154,-4.7154,-4.7278,-4.7528,-4.8355,-4.8029,0.0,0.0,0.0,0.0,0.0,0.0,0.0,-4.5594,-4.5594,-4.5594,-4.5594,-4.5594,-4.5594,-4.5594,-4.6701,-4.8221,-4.976,-5.3703,-5.7742,-5.9781,-6.0396,-6.0377,-5.9877,-5.9896,-5.9877,-5.9569,-5.8915,-5.8165,-5.7396,-5.6964,-5.6329,-5.5203,-5.4876,-5.4454,-5.361,-5.3627,-5.3611,-5.346,-5.3563,-5.3364,-5.2658,-5.2102,-5.1533,-5.0889,-5.0309,-5.0215,-5.0723,-5.0254,-5.0234,-5.0723,-5.0254,-4.9902,-4.9726,-5.041,-5.0273,-4.9492,-5.0996,-5.2051,-5.2793,-5.4531,-5.4902,-5.4394,-5.5957,-5.6191,-5.5644,-5.6328,-5.6601,-5.6621,-5.6816,-5.7305,-5.793,0.0,0.0,0.0,0.0,0.0,0.0,0.0,0.0,0.0,0.0,0.0,0.0,0.0,0.0,0.0,0.0,-4.5594,0.0,0.0,-4.5594,-4.6163,-4.7432,-5.0317,-5.1952,-5.2049,-5.1548,-5.1087,-5.0702,-5.1625,-5.2049,-5.2049,-5.4145,-5.4684,-5.3914,-5.4722,-5.3683,-5.1183,-4.9029,-4.7625,-4.6904,-4.6904,-4.7135,-4.7528,-4.7952,-4.7605,-4.6904,-4.6904,0.0,0.0,0.0,0.0,0.0,0.0,0.0,-4.5594,-4.5594,-4.5594,-4.5594,-4.5594,-4.7124,-4.9529,-5.2886,-5.6319,-5.9108,-5.9973,-6.0492,-6.0435,-5.9184,-5.9935,-6.0531,-5.9665,-5.9184,-5.8492,-5.7214,-5.6329,-5.5491,-5.4626,-5.4145,-5.3549,-5.2673,-5.2636,-5.2524,-5.2146,-5.2237,-5.1954,-5.1074,-5.0718,-5.0192,-4.9425,-4.9004,-4.9039,-4.9551,-4.9141,-4.9121,-4.957,-4.9121,-4.8906,-4.8906,-4.9355,-4.9551,-4.9551,-5.043,-5.1289,-5.2148,-5.3476,-5.3808,-5.3476,-5.4805,-5.5332,-5.5351,-5.5801,-5.623,-5.6601,-5.6601,-5.6894,-5.7285,0.0,0.0,0.0,0.0,0.0,0.0,0.0,0.0,0.0,0.0,0.0,0.0,0.0,0.0,-4.5594,0.0,0.0,0.0,0.0,-4.5748,-4.6567,-4.8259,-5.1029,-5.1683,-4.9875,-5.075,-5.0721,-4.9625,-4.8606,-4.9067,-5.0952,-5.3222,-5.3818,-5.3029,-5.428,-5.3203,-5.0404,-4.924,-4.7932,-4.6682,-4.6682,-4.7067,-4.7663,-4.7663,-4.7259,-4.6682,-4.6682,-4.6201,-4.5594,-4.5594,0.0,0.0,0.0,0.0,-4.5594,-4.5594,-4.5594,-4.5594,-4.5594,-4.7663,-5.0952,-5.5618,-5.803,-5.9338,-5.9473,-5.9954,-5.9973,-5.8588,-5.9511,-6.0262,-5.9242,-5.8511,-5.7742,-5.6733,-5.5395,-5.4395,-5.4087,-5.3433,-5.2664,-5.1788,-5.1692,-5.1433,-5.077,-5.0653,-5.0333,-4.9625,-4.9406,-4.9054,-4.8434,-4.8306,-4.8298,-4.8416,-4.8437,-4.8457,-4.8457,-4.8457,-4.8457,-4.8457,-4.8457,-4.8984,-4.998,-4.998,-5.0508,-5.1445,-5.2324,-5.2617,-5.2558,-5.3574,-5.4336,-5.4883,-5.5176,-5.5742,-5.6387,-5.6543,-5.6601,-5.6601,0.0,0.0,0.0,0.0,0.0,0.0,0.0,0.0,0.0,0.0,-4.5594,-4.5594,0.0,0.0,0.0,-4.5594,-4.5594,0.0,-4.5594,0.0,0.0,-4.9144,-4.9663,-5.0433,-5.1538,-4.9615,-4.924,-5.0539,-4.8894,-4.9356,-5.175,-5.2856,-5.2914,-5.2038,-5.1587,-5.0712,-4.9413,-4.7095,-4.5979,-4.5768,-4.5768,-4.5845,-4.5941,-4.5941,-4.5864,-4.5768,-4.5768,-4.571,-4.5594,-4.5594,-4.5594,0.0,0.0,0.0,-4.5594,-4.5594,-4.5594,-4.5594,-4.5594,-4.8529,-5.225,-5.5145,-5.7184,-5.8646,-5.9338,-5.905,-5.8569,-5.8357,-5.9031,-5.9184,-5.7618,-5.7253,-5.6656,-5.5088,-5.4645,-5.3972,-5.2462,-5.2154,-5.1779,-5.0952,-5.0856,-5.0827,-5.0712,-5.0028,-4.9546,-4.945,-4.8156,-4.7327,-4.723,-4.6734,-4.6464,-4.6472,-4.6597,-4.6641,-4.6641,-4.6641,-4.6641,-4.6641,-4.6641,-4.75,-4.9062,-4.9062,-4.9922,-5.1445,-5.2324,-5.2266,-5.1699,-5.332,-5.3613,-5.3203,-5.4707,-5.5371,-5.5566,-5.6328,-5.6601,-5.6601,0.0,0.0,0.0,0.0,0.0,0.0,0.0,0.0,0.0,0.0,0.0,-4.5594,0.0,0.0,0.0,0.0,0.0,0.0,-4.5594,-4.5951,0.0,-4.7952,-4.8432,-4.8817,-4.9096,-4.8452,-4.8259,-4.8567,-4.8259,-4.9163,-5.126,-5.2587,-5.2731,-5.1846,-5.0548,-4.949,-4.8548,-4.6479,-4.5594,-4.5594,-4.5594,-4.5594,-4.5594,-4.5594,-4.5594,-4.5594,-4.5594,-4.5594,-4.5594,-4.5594,-4.5594,-4.5594,-4.5594,0.0,0.0,0.0,-4.5594,-4.5806,-4.674,-4.8702,-5.1241,-5.426,-5.5934,-5.7049,-5.7915,-5.8204,-5.803,-5.7049,-5.7511,-5.7868,-5.7137,-5.7003,-5.6445,-5.4761,-5.4087,-5.3337,-5.2077,-5.151,-5.1106,-5.075,-5.0712,-5.0519,-5.001,-4.9625,-4.9009,-4.8067,-4.7347,-4.6758,-4.6351,-4.6083,-4.5946,-4.5985,-4.6117,-4.6198,-4.6198,-4.6268,-4.6308,-4.6308,-4.6308,-4.6953,-4.8164,-4.8164,-4.9101,-5.0762,-5.1601,-5.1758,-5.1465,-5.2226,-5.2617,-5.2773,-5.3535,-5.4433,-5.5351,-5.5723,-5.6172,-5.6601,0.0,0.0,0.0,0.0,0.0,0.0,0.0,0.0,0.0,0.0,0.0,0.0,0.0,0.0,0.0,0.0,0.0,0.0,-4.5594,0.0,0.0,-4.6547,-4.7144,-4.7182,-4.6586,-4.7163,-4.7278,-4.6904,-4.7509,-4.9009,-5.1356,-5.2395,-5.2876,-5.2788,-5.1106,-4.9644,-4.8336,-4.6855,-4.6249,-4.621,-4.5768,-4.5594,-4.5594,-4.5594,-4.5594,-4.5594,-4.5594,-4.5594,-4.5594,-4.5594,-4.5594,-4.5594,-4.5594,-4.5594,0.0,0.0,0.0,-4.5864,-4.7124,-4.8259,-4.974,-5.251,-5.3818,-5.4703,0.0,0.0,-5.6376,-5.528,-5.5568,-5.6041,-5.6041,-5.6233,-5.5799,-5.4107,-5.3299,-5.2568,-5.1722,-5.0894,-5.0366,-5.0366,-5.0164,-4.9779,-4.9125,-4.8875,-4.8259,-4.6981,-4.6701,-4.6337,-4.5778,-4.5776,-4.582,-4.5872,-4.5981,-4.6072,-4.6108,-4.6226,-4.6308,-4.6308,-4.6308,-4.6641,-4.7285,-4.75,-4.8301,-4.9609,-5.0644,-5.1211,-5.1406,-5.1406,-5.1777,-5.2383,-5.2617,-5.3633,-5.5,-5.5215,-5.5859,-5.6601,0.0,0.0,0.0,0.0,0.0,0.0,0.0,0.0,0.0,0.0,0.0,0.0,-4.5594,-4.5594,-4.5594,-4.5594,-4.5594,0.0,0.0,0.0,0.0,-4.5671,-4.571,0.0,-4.5671,-4.571,-4.6105,-4.6904,-4.6942,-4.9067,-5.3049,-5.2308,-5.3241,-5.5434,-5.376,-5.1645,-4.926,-4.8355,-4.7971,-4.7836,-4.624,-4.5594,-4.5594,-4.5594,-4.5594,-4.5594,-4.5594,-4.5594,-4.5594,-4.5594,-4.5594,-4.5594,-4.5594,-4.5594,-4.5594,0.0,0.0,0.0,-4.571,-4.6913,0.0,-4.9413,-5.0317,-5.1385,0.0,0.0,-5.2442,-5.3183,-5.3376,-5.3395,-5.3395,-5.4068,-5.4068,-5.2308,-5.2,-5.1702,-5.0875,-5.001,-4.9471,-4.9471,-4.874,-4.8221,-4.8182,-4.749,-4.6981,-4.6904,-4.6124,-4.5652,-4.5612,-4.5725,-4.5803,-4.5816,-4.5862,-4.5978,-4.6108,-4.6226,-4.6308,-4.6308,-4.6308,-4.6328,-4.6406,-4.7226,-4.7656,-4.7832,-4.9531,-5.0703,-5.1406,-5.1406,-5.1426,-5.1543,-5.2383,-5.3262,-5.418,-5.5,-5.5859,-5.6601,0.0,0.0,0.0,0.0,0.0,0.0,0.0,0.0,0.0,0.0,0.0,0.0,0.0,-4.5594,-4.5594,-4.5594,-4.5594,0.0,0.0,0.0,0.0,-4.5594,-4.5594,-4.5594,-4.5594,-4.5594,-4.5748,-4.6067,-4.6624,-4.7952,-4.9952,-5.0741,-5.1625,-5.2462,-5.1856,-5.0779,-4.926,-4.7317,-4.649,-4.6432,-4.5845,-4.5594,-4.5594,-4.5594,-4.5594,-4.5594,-4.5594,-4.5594,-4.5594,-4.5594,-4.5594,-4.5594,-4.5594,-4.5594,-4.5594,-4.5594,-4.5594,-4.5594,-4.5594,-4.6037,0.0,-4.8221,-4.8798,-4.9471,-5.1202,-5.1356,-5.1356,-5.2192,-5.2365,-5.2222,-5.1683,-5.2722,-5.328,-5.2096,-5.1904,-5.1423,-5.0048,-4.9606,-4.9183,-4.8625,-4.8298,-4.7894,-4.7394,-4.7058,-4.6682,-4.6105,-4.5787,-4.5594,-4.5594,-4.5651,-4.5673,-4.5673,-4.5783,-4.592,-4.6108,-4.6147,-4.6203,-4.6308,-4.6308,-4.6308,-4.6308,-4.6621,-4.707,-4.7637,-4.8262,-4.9336,-5.0664,-5.1191,-5.1406,-5.1426,-5.1738,-5.2402,-5.3203,-5.3516,-5.4531,-5.5762,0.0,0.0,0.0,0.0,0.0,0.0,0.0,0.0,-4.6124,-4.6394,0.0,0.0,0.0,0.0,-4.5913,-4.5633,-4.5594,-4.5594,-4.5594,-4.5594,-4.5594,-4.5594,-4.5594,-4.5594,-4.5594,-4.5594,-4.5594,-4.5594,-4.6182,-4.7163,-4.8567,-4.9413,-5.0279,-5.1068,-5.0202,-4.9817,-4.9702,-4.773,-4.671,-4.6394,-4.5825,-4.5594,-4.5671,-4.622,-4.6095,-4.5671,-4.6249,-4.6075,-4.5594,-4.5594,-4.5594,-4.5594,-4.5594,-4.5594,-4.5594,-4.5594,-4.5594,-4.5594,-4.5594,-4.5594,-4.5941,-4.7355,-4.749,-4.7702,-4.9433,-4.9625,-4.9644,-5.0462,-5.0615,-5.0471,-4.9933,-5.0741,-5.1298,-5.0712,-5.0865,-5.0567,-4.9163,-4.8721,-4.8355,-4.7778,-4.7432,-4.7048,-4.6528,-4.6471,-4.622,-4.5633,-4.5594,-4.5594,-4.5594,-4.5594,-4.5594,-4.5594,-4.5725,-4.5867,-4.599,-4.6021,-4.608,-4.6171,-4.6202,-4.6202,-4.6173,-4.6203,-4.6514,-4.7051,-4.7344,-4.8508,-5.0234,-5.0781,-5.1152,-5.1406,-5.1406,-5.1933,-5.2695,-5.2695,-5.3808,-5.5293,0.0,0.0,0.0,0.0,0.0,0.0,0.0,0.0,-4.7192,-4.799,0.0,0.0,0.0,0.0,0.0,-4.5748,-4.5652,-4.5633,-4.5594,-4.5594,-4.5594,-4.5594,0.0,0.0,-4.5594,-4.5594,-4.5594,-4.5594,-4.5594,-4.6864,-4.926,-4.8413,-4.9356,-5.1635,-4.9183,-4.899,-5.0539,-4.9663,-4.8817,-4.7913,-4.6259,-4.5614,-4.5806,-4.7413,-4.7009,-4.5806,-4.7432,-4.6971,-4.5594,-4.5594,-4.5594,-4.5594,-4.5594,-4.5594,-4.5594,-4.5594,-4.5594,-4.5594,0.0,0.0,0.0,-4.6644,-4.622,-4.6037,-4.7663,-4.7432,-4.7077,-4.7894,-4.8067,-4.8067,-4.8067,-4.8086,-4.8086,-4.8029,-4.8779,-4.9067,-4.8202,-4.7394,-4.6885,-4.6865,-4.6105,-4.5594,-4.5594,-4.5594,-4.5594,-4.5594,-4.5594,-4.5594,-4.5594,-4.5594,-4.5594,-4.5594,-4.5737,-4.5796,-4.5803,-4.5852,-4.5899,-4.5903,-4.6036,-4.603,-4.5903,-4.6036,-4.6011,-4.5957,-4.6783,-4.8273,-5.0117,-5.0176,-5.0664,-5.1387,-5.1406,-5.1914,-5.2656,-5.2656,-5.375,-5.5234,0.0,0.0,0.0,0.0,0.0,-4.6624,-4.6865,-4.6904,-4.7192,0.0,0.0,0.0,-4.8048,-4.7894,-4.7682,-4.7432,-4.6874,-4.6278,-4.5633,-4.5594,-4.5594,-4.5594,-4.5594,-4.5594,-4.5594,-4.5594,-4.5594,-4.5594,-4.5594,-4.596,-4.6653,-4.6394,-4.7009,-4.825,-4.7538,-4.7509,-4.7894,-4.7009,-4.6874,-4.7144,-4.6028,-4.597,-4.6528,-4.6355,-4.5998,-4.5671,-4.6133,-4.5998,-4.5594,-4.5594,-4.5594,-4.5594,-4.5594,-4.5594,-4.5594,-4.5594,-4.5594,-4.5594,-4.5594,0.0,0.0,0.0,0.0,0.0,-4.6191,-4.6124,-4.6201,-4.7067,-4.7231,-4.7231,-4.7231,-4.7721,-4.7702,-4.649,-4.7509,-4.8163,-4.7355,-4.7038,-4.6682,-4.6028,-4.5748,-4.5594,-4.5594,-4.5594,-4.5594,-4.5594,-4.5594,-4.5594,-4.5594,-4.5594,-4.5594,-4.5594,-4.5635,-4.57,-4.5796,-4.5828,-4.5845,-4.5899,-4.5932,-4.5948,-4.5903,-4.5932,-4.5948,-4.5899,-4.6156,-4.6933,-4.8139,-4.9497,-5.0525,-5.1267,-5.1366,-5.1543,-5.1758,-5.1758,-5.2461,-5.3516,0.0,0.0,-4.6144,-4.6144,-4.7144,-4.7952,-4.7952,-4.7952,-4.8105,0.0,0.0,0.0,-4.8586,-4.8971,-4.8759,-4.7702,-4.7173,-4.6528,-4.5671,-4.5594,-4.5594,-4.5594,-4.5951,-4.6144,-4.6144,-4.6144,-4.6144,-4.6144,-4.5787,-4.5594,-4.5594,-4.5594,-4.5874,-4.6355,-4.6355,-4.6355,-4.6317,-4.5825,-4.5893,-4.6317,-4.5806,-4.6124,-4.6932,-4.7105,-4.6951,-4.674,-4.748,-4.7499,-4.7067,-4.6374,-4.5893,-4.5594,-4.5594,-4.5594,-4.5594,-4.5594,-4.5594,-4.5594,-4.5594,-4.5594,-4.5691,-4.6047,0.0,0.0,-4.6067,-4.5864,-4.5748,-4.624,-4.6355,-4.6355,-4.6355,-4.674,-4.674,-4.5768,-4.6413,-4.6894,-4.6413,-4.6355,-4.6163,-4.5671,-4.5594,-4.5594,-4.5594,-4.5594,-4.5594,-4.5594,-4.5594,-4.5594,-4.5594,-4.5594,-4.5594,-4.5594,-4.5594,-4.5635,-4.5723,-4.5723,-4.5742,-4.5783,-4.5828,-4.5828,-4.5783,-4.5834,-4.5828,-4.5763,-4.5763,-4.6267,-4.7197,-4.8672,-4.982,-5.0657,-5.1106,-5.1273,-5.1277,-5.1315,-5.1867,-5.2748,0.0,0.0,-4.6923,-4.7019,-4.8432,-4.9567,-4.9663,-4.9606,-4.9606,0.0,-4.9817,-4.9856,-4.9952,-5.0423,-4.9779,-4.7528,-4.7058,-4.6528,-4.5671,-4.5594,-4.5633,-4.5748,-4.649,-4.6942,-4.7019,-4.7019,-4.6981,-4.6904,-4.6124,-4.5691,-4.5594,-4.5594,-4.5594,-4.5594,-4.5594,-4.5594,-4.5594,-4.5594,-4.5594,-4.5594,-4.5594,-4.6182,-4.7201,-4.8586,-4.8702,-4.8298,-4.974,-4.9779,-4.8875,-4.7298,-4.624,-4.5594,-4.5594,-4.5594,-4.5594,-4.5594,-4.5594,-4.5594,-4.5594,-4.5594,-4.5787,-4.6567,-4.6163,0.0,-4.6586,-4.6163,-4.5594,-4.5594,-4.5594,-4.5594,-4.5594,-4.5594,-4.5594,-4.5594,-4.5594,-4.5594,-4.5594,-4.5594,-4.5594,-4.5594,-4.5594,-4.5594,-4.5594,-4.5594,-4.5594,-4.5594,-4.5594,-4.5594,-4.5594,-4.5594,-4.5594,-4.5594,-4.5594,-4.5594,-4.5594,-4.5594,-4.5594,-4.5594,-4.573,-4.5723,-4.5603,-4.5711,-4.5715,-4.5594,-4.5594,-4.6086,-4.696,-4.7902,-4.8864,-4.9878,-5.0758,-5.1089,-5.1103,-5.1164,-5.1679,-5.2491,-4.5594,-4.6297,-4.7096,-4.7759,-4.9298,-5.0664,-5.1308,-5.0856,-5.0933,-5.2279,-5.2472,-5.2722,-5.3433,-5.1818,-5.05,-4.999,-4.8086,-4.6528,-4.5671,-4.5594,-4.5913,-4.6624,-4.6817,-4.7192,-4.7855,-4.7875,-4.7548,-4.6904,-4.674,-4.6297,-4.5594,-4.5594,-4.5594,-4.5594,-4.5594,-4.5594,-4.5594,-4.5594,-4.5594,-4.5594,-4.5594,-4.6509,-4.7836,-4.7509,-4.7682,-4.8067,-4.7759,-4.7528,-4.724,-4.6201,-4.5748,-4.5594,-4.5594,-4.5594,-4.5594,-4.5594,-4.5594,-4.5594,-4.5594,-4.5594,-4.5633,-4.5806,-4.5729,0.0,-4.5806,-4.5729,-4.5594,-4.5594,-4.5594,-4.5594,-4.5594,-4.5594,-4.5594,-4.5594,-4.5594,-4.5594,-4.5594,-4.5594,-4.5594,-4.5594,-4.5594,-4.5594,-4.5594,-4.5594,-4.5594,-4.5594,-4.5594,-4.5594,-4.5594,-4.5594,-4.5594,-4.5594,-4.5594,-4.5594,-4.5594,-4.5594,-4.5594,-4.5594,-4.5637,-4.5637,-4.5594,-4.5637,-4.5618,-4.5594,-4.5594,-4.6086,-4.6971,-4.7804,-4.8736,-4.9744,-5.0722,-5.1089,-5.1094,-5.1102,-5.1228,-5.1615,-4.5594,-4.6297,-4.7154,-4.7971,-4.9529,-5.0971,-5.1769,-5.1568,-5.1606,-5.2442,-5.2933,-5.3203,-5.3203,-5.2068,-5.0798,-4.951,-4.7875,-4.6528,-4.5671,-4.5594,-4.5787,-4.622,-4.7048,-4.7702,-4.8086,-4.8105,-4.7894,-4.7509,-4.6663,-4.6028,-4.5594,-4.5594,-4.5594,-4.5594,-4.5594,-4.5594,-4.5594,-4.5594,-4.5594,-4.5594,-4.5594,-4.6355,-4.7471,-4.7038,-4.7413,-4.8048,-4.7644,-4.7231,-4.6885,-4.6855,-4.6586,-4.6163,-4.5748,-4.5893,-4.6163,-4.5729,-4.5594,-4.5594,-4.5594,-4.5913,-4.6144,-4.571,-4.5932,0.0,0.0,-4.5594,-4.5594,-4.5594,-4.5594,-4.5594,-4.5594,-4.5594,-4.5594,-4.5594,-4.5594,-4.5594,-4.5594,-4.5594,-4.5594,-4.5594,-4.5594,-4.5594,-4.5594,-4.5594,-4.5594,-4.5594,-4.5594,-4.5594,-4.5594,-4.5594,-4.5594,-4.5594,-4.5594,-4.5594,-4.5594,-4.5594,-4.5594,-4.5594,-4.5594,-4.5594,-4.5594,-4.5594,-4.5594,-4.5594,-4.5594,-4.6086,-4.6962,-4.7778,-4.8659,-4.9589,-5.0523,-5.0908,-5.0903,-5.0972,-5.1004,-5.126,-4.5594,-4.6432,-4.7394,-4.8221,-4.9779,-5.1202,-5.2019,-5.2,-5.1962,-5.2135,-5.2914,-5.3241,-5.2692,-5.2058,-5.1106,-4.9683,-4.7778,-4.6624,-4.6595,-4.5979,-4.5671,-4.5845,-4.7144,-4.7952,-4.8105,-4.8105,-4.8029,-4.7875,-4.6509,-4.5768,-4.5594,-4.5594,-4.5594,-4.5594,-4.5594,-4.5594,-4.5594,-4.5594,-4.5594,-4.5594,-4.5594,-4.6124,-4.6904,-4.6904,-4.7413,-4.8105,-4.8105,-4.7682,-4.7231,-4.7875,-4.7567,-4.6797,-4.624,-4.6336,-4.6547,-4.6009,-4.5845,-4.5845,-4.5845,-4.6471,-4.6971,-4.6259,-4.649,-4.6721,0.0,0.0,0.0,-4.5594,-4.5594,-4.5594,0.0,0.0,0.0,-4.5594,-4.5594,-4.5594,-4.5594,-4.5594,-4.5594,-4.5594,-4.5594,-4.5594,-4.5594,-4.5594,-4.5594,-4.5594,-4.5594,-4.5594,-4.5594,-4.5594,-4.5594,-4.5594,-4.5594,-4.5594,-4.5594,-4.5594,-4.5594,-4.5594,-4.5594,-4.5594,-4.5594,-4.5594,-4.5594,-4.5594,-4.5594,-4.6086,-4.6962,-4.7778,-4.8606,-4.949,-5.0366,-5.0712,-5.0712,-5.083,-5.0848,-5.1091,-4.5594,-4.6874,-4.824,-4.9106,-5.0644,-5.2038,-5.2933,-5.2404,-5.2173,-5.2953,-5.3818,-5.4587,-5.5203,-5.2606,-5.1914,-5.4587,-4.926,-4.6999,-4.9923,-4.7287,-4.5932,-4.6721,-4.6923,-4.7375,-4.8086,-4.8105,-4.7759,-4.7038,-4.6855,-4.6355,-4.5594,-4.5594,-4.5594,-4.5594,-4.5594,-4.5594,-4.5594,-4.5594,-4.5594,-4.5594,-4.5594,-4.6124,-4.6904,-4.6904,-4.7413,-4.8105,-4.8105,-4.8048,-4.799,-4.8067,-4.7567,-4.7,-4.7625,-4.6855,-4.5874,-4.6547,-4.6759,-4.6759,-4.6759,-4.7355,-4.7952,-4.7836,-4.7355,-4.6865,-4.6778,0.0,-4.5594,-4.5594,0.0,-4.5594,-4.5594,0.0,0.0,-4.5594,-4.5594,-4.5594,-4.5594,-4.5594,-4.5594,-4.5594,-4.5594,-4.5594,-4.5594,-4.5594,-4.5594,-4.5594,-4.5594,-4.5594,-4.5594,-4.5594,-4.5594,-4.5594,-4.5594,-4.5594,-4.5594,-4.5594,-4.5594,-4.5594,-4.5594,-4.5594,-4.5594,-4.5594,-4.5594,-4.5594,-4.5594,-4.6086,-4.6962,-4.7778,-4.8606,-4.949,-5.0366,-5.0712,-5.0693,-5.0721,-5.0712,-5.0864,-4.5594,-4.6172,-4.7067,-4.8413,-4.924,-5.0308,-5.2154,-5.3395,-5.4068,-5.3972,-5.4684,-5.5318,-5.5665,-5.3587,-5.2722,-5.4126,-5.076,-4.875,-4.9163,-4.7413,-4.6297,-4.6144,-4.6624,-4.7058,-4.7413,-4.7413,-4.724,-4.6904,-4.6394,-4.5951,-4.5594,-4.5594,-4.5594,-4.5594,-4.5594,-4.5874,-4.6317,-4.5806,-4.6172,-4.6971,-4.5998,-4.6394,-4.7548,-4.7077,-4.7413,-4.8105,-4.8105,-4.8105,-4.8105,-4.8105,-4.8221,-4.8317,-4.8144,-4.7952,-4.7682,-4.7086,-4.7231,-4.749,-4.7019,-4.7855,-4.874,-4.824,-4.824,-4.8221,-4.7721,-4.6951,-4.6355,-4.6355,0.0,0.0,0.0,0.0,0.0,0.0,-4.5594,-4.5594,-4.5594,0.0,-4.5594,-4.5594,-4.5594,-4.5594,-4.5594,-4.5594,-4.5594,-4.5594,-4.5594,-4.5594,-4.5594,-4.5594,-4.5594,-4.5594,-4.5594,-4.5594,-4.5594,-4.5594,-4.5594,-4.5594,-4.5594,-4.5594,-4.5594,-4.5594,-4.5594,-4.5594,-4.5594,-4.6086,-4.6962,-4.7778,-4.8606,-4.949,-5.0366,-5.0712,-5.0712,-5.0712,-5.0712,-5.0818,-4.5594,-4.5787,-4.6336,-4.7567,-4.8144,-4.9163,-5.126,-5.3145,-5.4203,-5.3837,-5.4299,-5.5011,-5.5953,-5.4761,-5.4453,-5.5857,-5.3587,-5.1625,-5.0606,-4.8702,-4.7201,-4.6317,-4.6451,-4.6663,-4.6885,-4.6682,-4.6547,-4.6547,-4.5913,-4.5594,-4.5594,-4.5594,-4.5594,-4.5614,-4.5845,-4.6317,-4.6865,-4.6451,-4.699,-4.799,-4.6818,-4.7232,-4.8461,-4.7582,-4.774,-4.8471,-4.8471,-4.8606,-4.8817,-4.8817,-4.9067,-4.9336,-4.8933,-4.8913,-4.8856,-4.7875,-4.8009,-4.8336,-4.774,-4.8644,-4.9606,-4.8971,-4.9106,-4.9221,-4.8606,-4.7817,-4.7231,-4.7231,-4.6547,0.0,0.0,0.0,-4.5594,-4.5594,0.0,-4.5594,-4.5594,-4.5594,-4.5594,-4.5594,-4.5594,-4.5594,-4.5594,-4.5594,-4.5594,-4.5594,-4.5594,-4.5594,-4.5594,-4.5594,-4.5594,-4.5594,-4.5594,-4.5594,-4.5594,-4.5594,-4.5594,-4.5594,-4.5594,-4.5594,-4.5594,-4.5594,-4.5594,-4.5594,-4.5594,-4.5951,-4.6624,-4.7682,-4.8471,-4.9144,-5.0269,-5.0712,-5.0712,-5.0712,-5.0712,-5.0789,-4.5594,-4.6278,-4.6885,-4.6923,-4.8279,-4.9663,-5.0596,-5.0808,-5.1125,-5.1885,-5.2,-5.328,-5.6599,-5.6156,-5.7607,-6.2551,-5.8415,-5.5876,-5.6654,-5.2068,-4.8933,-4.8067,-4.649,-4.6028,-4.6885,-4.6067,-4.5633,-4.5633,-4.5614,-4.5594,-4.5594,-4.5594,-4.5594,-4.5633,-4.649,-4.6865,-4.6942,-4.7702,-4.8048,-4.8105,-4.8176,-4.8825,-4.9624,-4.8499,-4.8606,-4.9356,-4.9356,-4.9894,-5.0616,-5.0616,-5.0067,-4.9529,-5.0366,-4.9471,-4.8298,-4.9086,-4.9336,-4.9356,-4.9336,-4.9971,-5.0654,-5.0616,-4.999,-4.9394,-4.9356,-4.8682,-4.8067,-4.8067,-4.7432,-4.6846,-4.6846,-4.6163,-4.5594,-4.5594,-4.5594,0.0,0.0,-4.5594,-4.5594,-4.5594,-4.5594,-4.5594,-4.5594,-4.5594,-4.5594,-4.5594,-4.5594,-4.5594,-4.5594,-4.5594,-4.5594,-4.5594,-4.5594,-4.5594,-4.5594,-4.5594,-4.5594,-4.5594,-4.5594,-4.5594,-4.5594,-4.5594,-4.5594,-4.5594,-4.5594,-4.5614,-4.5768,-4.7413,-4.8125,-4.8317,-5.0029,-5.0712,-5.0712,-5.0712,-5.0712,-5.0712,-4.6355,-4.622,-4.622,-4.6797,-4.7375,-4.8221,-4.9625,-5.126,-5.326,-5.5799,-5.6607,-5.8454,-6.2454,-6.2108,-6.2281,-6.4012,-6.157,-5.9338,-5.7953,-5.4126,-5.1298,-4.9875,-4.8163,-4.7394,-4.7702,-4.6874,-4.6471,-4.6471,-4.5874,-4.5594,-4.5594,-4.5594,-4.5594,-4.5614,-4.5913,-4.6663,-4.7672,-4.7507,-4.8419,-4.9954,-5.0105,-5.0297,-5.0423,-4.9556,-4.9709,-5.0399,-5.0493,-5.06,-5.0712,-5.0797,-5.0572,-5.0308,-5.0616,-5.0308,-4.976,-4.9471,-4.9798,-5.0125,-4.9548,-5.0029,-5.0712,-5.0712,-5.0481,-5.0269,-5.0269,-4.9586,-4.8952,-4.8952,-4.8298,-4.7528,-4.7,-4.6663,-4.6278,-4.5691,-4.5594,-4.5594,0.0,-4.5594,-4.5594,-4.5594,-4.5594,-4.5594,-4.5594,-4.5594,-4.5594,-4.5594,-4.5594,-4.5594,-4.5594,-4.5594,-4.5594,-4.5594,-4.5594,-4.5594,-4.5594,-4.5594,-4.5594,-4.5594,-4.5594,-4.5594,-4.5594,-4.5594,-4.5594,-4.5594,-4.5594,-4.5932,-4.6547,-4.7644,-4.8432,-4.9086,-5.025,-5.0712,-5.0712,-5.0712,-5.0712,-5.0866,-4.6336,-4.624,-4.624,-4.6797,-4.7135,-4.7894,-4.9606,-5.226,-5.4876,-5.7088,-5.8896,-6.1473,-6.5474,-6.5397,-6.5436,-6.634,-6.4859,-6.2397,-5.8954,-5.6395,-5.3991,-5.1683,-5.0221,-4.9442,-4.9442,-4.8355,-4.7644,-4.7336,-4.6471,-4.6067,-4.6067,-4.5748,-4.5594,-4.5614,-4.5913,-4.6851,-4.8169,-4.8046,-4.9136,-5.0979,-5.1089,-5.112,-5.104,-5.055,-5.0768,-5.1317,-5.1159,-5.0991,-5.0859,-5.0945,-5.0879,-5.0764,-5.0764,-5.074,-5.0596,-5.0029,-5.0269,-5.0577,-5.001,-5.0269,-5.0712,-5.0712,-5.0712,-5.0712,-5.0712,-5.0269,-4.9856,-4.9856,-4.9163,-4.8317,-4.749,-4.7077,-4.6605,-4.5748,-4.5594,-4.5594,0.0,-4.5594,-4.5594,-4.5594,-4.5594,-4.5594,-4.5594,-4.5594,-4.5594,-4.5594,-4.5594,-4.5594,-4.5594,-4.5594,-4.5594,-4.5594,-4.5594,-4.5594,-4.5594,-4.5594,-4.5594,-4.5594,-4.5594,-4.5594,-4.5594,-4.5594,-4.5768,-4.6067,-4.6067,-4.6547,-4.7394,-4.8221,-4.8894,-4.949,-5.0366,-5.0712,-5.0712,-5.0712,-5.0875,-5.1337,-4.571,-4.6432,-4.7019,-4.7019,-4.7663,-4.8721,-5.0385,-5.351,-5.578,-5.5992,-5.9031,-6.2454,-6.584,-6.6244,-6.7225,-6.9552,-6.8167,-6.5089,-6.0204,-5.8954,-5.6953,-5.3664,-5.2596,-5.2077,-5.2019,-5.0375,-4.9106,-4.824,-4.7336,-4.6904,-4.6885,-4.6009,-4.5594,-4.565,-4.6509,0.0,-4.8373,-4.9245,-5.0201,-5.1122,-5.118,-5.1312,-5.1445,-5.1406,-5.1703,-5.2024,-5.1355,-5.1099,-5.1084,-5.1108,-5.101,-5.0894,-5.0894,-5.0797,-5.0712,-5.0712,-5.0731,-5.075,-5.0712,-5.0731,-5.075,-5.0712,-5.0712,-5.0712,-5.0712,-5.0712,-5.0712,-5.0712,-5.0029,-4.9202,-4.8317,-4.7509,-4.6682,-4.5806,-4.5633,-4.5594,-4.5594,-4.5594,-4.5594,-4.5594,-4.5594,-4.5594,-4.5594,-4.5594,-4.5594,-4.5594,-4.5594,-4.5594,-4.5594,-4.5594,-4.5594,-4.5594,-4.5594,-4.5594,-4.5594,-4.5594,-4.5594,-4.5594,-4.5594,-4.5614,-4.5671,-4.5671,-4.6144,-4.6962,-4.6962,-4.7432,-4.824,-4.9067,-4.9433,-4.9548,-5.0385,-5.0712,-5.0712,-5.0712,-5.1183,-5.1962,-4.7201,-4.8163,-4.8759,-4.8759,-4.8933,-4.9221,-4.9663,-5.3126,-5.6838,-6.0042,-6.3955,-6.7494,-7.0283,-7.1168,-7.1302,-7.0648,-6.9052,-6.7244,-6.5282,-6.2012,-5.9473,-5.7953,-5.5857,-5.4434,-5.3857,-5.2145,-5.0856,-5.0029,-4.7932,-4.6904,-4.6885,-4.6009,-4.564,-4.5778,0.0,-4.7476,-4.852,-4.9381,-5.0353,-5.1316,-5.1342,-5.1708,-5.2159,-5.1619,-5.1813,-5.229,-5.1572,-5.1163,-5.0959,-5.1078,-5.0933,-5.0748,-5.0748,-5.0721,-5.0712,-5.0712,-5.1125,-5.1471,-5.0856,-5.1144,-5.1452,-5.0846,-5.0712,-5.0712,-5.0712,-5.0712,-5.0712,-5.0712,-5.0519,-5.0087,-4.9221,-4.8375,-4.7528,-4.6701,-4.6009,-4.5594,-4.5594,-4.5594,-4.5594,-4.5594,-4.5594,-4.5594,-4.5594,-4.5594,-4.5594,-4.5594,-4.5594,-4.5594,-4.5594,-4.5594,-4.5594,-4.5594,-4.5594,-4.5594,-4.5594,-4.5594,-4.5594,-4.5594,-4.5594,-4.5932,-4.6567,-4.6567,-4.7009,-4.7798,-4.7798,-4.8279,-4.9086,-4.9317,-4.9779,-5.0385,-5.0616,-5.0712,-5.0712,-5.0712,-5.0827,-5.1125,-4.7394,-4.8875,-4.9971,-4.9971,-5.1183,-5.2029,-5.1683,-5.3953,-5.6973,-6.0492,-6.4666,-6.7994,-6.9783,-7.1091,-7.1591,-7.0956,-6.9013,-6.6994,-6.5044,-6.3012,-6.1031,-5.9069,-5.7607,-5.6261,-5.5049,-5.3356,-5.1702,-5.0125,-4.8377,-4.7289,-4.6874,0.0,0.0,0.0,0.0,-4.7229,-4.8574,-4.987,-5.0798,-5.1406,-5.1406,-5.1657,0.0,-5.1561,-5.1657,-5.1955,-5.1473,-5.1185,-5.104,-5.1109,-5.0977,-5.0791,-5.0791,-5.0758,-5.077,-5.1125,-5.1298,-5.1433,-5.1722,-5.1587,-5.1356,-5.1241,-5.0952,-5.0712,-5.0712,-5.0712,-5.0712,-5.0712,-5.0712,-5.0442,-4.9548,-4.899,-4.8394,-4.7567,-4.7009,-4.6567,-4.622,-4.6163,-4.6028,-4.5652,-4.5594,-4.5594,-4.5594,-4.5594,-4.5594,-4.5594,-4.5594,-4.5594,-4.5594,-4.5594,-4.5594,-4.5594,-4.597,-4.599,-4.5594,-4.597,-4.6163,-4.6163,-4.6163,-4.6605,-4.7432,-4.7432,-4.7875,-4.8663,-4.8663,-4.9163,-4.9971,-4.9971,-5.0269,-5.0712,-5.0712,-5.0712,-5.075,-5.1087,-5.1221,-5.1298,-4.7182,-4.9183,-5.0827,-5.0731,-5.3376,-5.5415,-5.5049,-5.5953,-5.7492,-5.9704,-6.3724,-6.6609,-6.7205,-6.8725,-6.9898,-7.036,-6.8282,-6.566,-6.2639,-6.2878,-6.1839,-5.8915,-5.8588,-5.7646,-5.5915,-5.4222,-5.2135,-4.9576,-4.8689,-4.7817,-4.6932,0.0,0.0,0.0,0.0,0.0,0.0,-5.0505,-5.1295,-5.1406,-5.1406,-5.1406,-5.1406,-5.1406,-5.1465,-5.1543,-5.1418,-5.1294,-5.1208,-5.1294,-5.119,-5.1045,-5.1181,-5.105,-5.101,-5.1827,-5.1587,-5.1337,-5.2799,-5.2222,-5.1298,-5.1769,-5.1375,-5.0827,-5.0731,-5.0712,-5.0712,-5.0712,-5.0712,-5.0481,-4.9702,-4.9471,-4.9106,-4.824,-4.8105,-4.7855,-4.7154,-4.6962,-4.6624,-4.5864,-4.5671,0.0,-4.5594,-4.5594,-4.5594,-4.5594,-4.5594,-4.5594,-4.5594,-4.5594,-4.5594,-4.5594,-4.6336,-4.6413,-4.5787,-4.6528,-4.6942,-4.7058,-4.7058,-4.749,-4.8279,-4.8279,-4.8759,-4.9567,-4.9567,-4.999,-5.0712,-5.0712,-5.0712,-5.0712,-5.0827,-5.0866,-5.0933,-5.1635,-5.1962,-5.2038,-4.8682,-5.0433,-5.1491,-5.0827,-5.2914,-5.5376,-5.7338,-6.0108,-6.2127,-6.2577,-6.6378,-6.8802,-6.8244,-6.909,-6.9186,-6.7878,-6.6744,-6.5551,-6.4243,-6.2993,-6.205,-6.1466,-6.005,-5.8492,-5.681,-5.5126,-5.3042,-5.0542,-4.8924,-4.7805,-4.7123,-4.6226,0.0,0.0,0.0,0.0,-4.9803,-5.0908,0.0,-5.1406,-5.1406,-5.1406,-5.1406,-5.1406,-5.1855,-5.2441,-5.231,-5.1778,-5.1205,-5.1767,-5.1854,-5.1857,-5.257,-5.229,-5.1846,-5.2722,-5.2876,-5.2837,-5.3126,-5.351,-5.351,-5.2212,-5.1788,-5.1529,-5.0837,-5.0712,-5.0712,-5.0712,-5.0712,-5.0654,-5.05,-4.9875,-4.9106,-4.824,-4.8105,-4.8048,-4.7913,-4.7317,-4.6827,-4.6701,-4.6028,-4.5594,-4.5594,-4.5594,-4.5594,-4.5594,-4.5594,-4.5594,-4.5594,-4.5594,-4.5594,-4.5594,-4.5748,-4.6105,-4.6682,-4.6808,-4.7231,-4.7894,-4.7894,-4.8336,-4.9163,-4.9163,-4.9644,-5.0481,-5.0481,-5.0558,-5.0712,-5.0712,-5.0712,-5.077,-5.1433,-5.1692,-5.1712,-5.1846,-5.2365,-5.2876,-5.1125,-5.2029,-5.2741,-5.3203,-5.5395,-5.7819,-5.9954,-6.2762,-6.4166,-6.2858,-6.4839,-6.607,-6.5224,-6.6686,-6.7205,-6.5917,-6.5032,-6.4205,-6.3358,-6.2563,-6.1908,-6.1447,-5.9781,-5.83,-5.703,-5.4988,-5.2884,-5.0752,-4.9168,-4.7955,-4.707,-4.638,-4.6061,-4.6147,0.0,-4.8769,0.0,0.0,-5.1343,-5.1406,-5.1406,-5.168,-5.207,-5.207,-5.2617,-5.3358,-5.313,-5.2775,-5.243,-5.269,-5.2689,-5.2654,-5.3068,-5.2914,-5.276,-5.3626,-5.3549,-5.3395,-5.426,-5.4164,-5.3722,-5.3356,-5.2558,-5.1923,-5.1972,-5.1318,-5.0827,-5.1241,-5.0991,-5.0712,-5.0712,-5.0366,-4.9933,-4.951,-4.9452,-4.9298,-4.8836,-4.8432,-4.7875,-4.7,-4.6528,-4.6105,-4.5633,-4.5594,-4.5594,-4.5594,-4.5594,-4.5594,-4.5594,-4.5594,-4.5594,-4.5594,-4.6432,-4.6894,-4.6904,-4.7759,-4.8394,-4.8779,-4.8779,-4.9221,-5.0067,-5.0067,-5.0308,-5.0712,-5.0712,-5.0712,-5.0712,-5.0712,-5.0952,-5.1356,-5.175,-5.2173,-5.2635,-5.3087,-5.3241,-5.3087,-5.3318,-5.376,-5.4414,-5.5742,-5.8242,-6.0512,-6.1889,-6.4262,-6.5166,-6.3178,-6.3301,-6.3339,-6.2697,-6.4262,-6.4993,-6.4147,-6.3435,-6.2704,-6.1889,-6.1831,-6.1524,-6.0819,-5.9221,-5.7925,-5.7058,-5.4868,-5.2755,-5.08,-4.9722,-4.8491,-4.7129,-4.6722,-4.6497,0.0,0.0,0.0,-5.0254,-5.0942,-5.1415,-5.168,-5.168,-5.2207,-5.2969,-5.2948,-5.3474,-5.4191,-5.3924,-5.3944,-5.4076,-5.3921,-5.3715,-5.351,-5.3683,-5.3606,-5.3645,-5.4491,-5.4145,-5.3799,-5.5299,-5.4741,-5.3857,-5.4376,-5.3472,-5.2577,-5.3087,-5.2183,-5.1356,-5.1808,-5.1395,-5.0952,-5.0952,-5.0952,-5.0894,-5.0731,-5.0712,-5.0462,-4.976,-4.951,-4.8836,-4.7336,-4.7,-4.6567,-4.5691,-4.5594,-4.5594,-4.5594,-4.5594,-4.5594,-4.5594,-4.5594,-4.5594,-4.5594,-4.7067,-4.7625,-4.7154,-4.8644,-4.949,-4.9683,-4.9683,-5.0029,-5.0712,-5.0712,-5.0712,-5.0712,-5.0712,-5.0712,-5.0712,-5.0875,-5.1337,-5.1942,-5.2308,-5.2876,-5.3568,-5.4241,-5.4164,-5.3606,-5.4203,-5.5588,-5.6695,-5.6849,-5.9638,-6.1908,-6.2082,-6.4262,-6.5801,-6.557,-6.4916,-6.4455,-6.4378,-6.3878,-6.3224,-6.2409,-6.2274,-6.1851,-6.0973,-6.0916,-6.0877,-6.08,-5.9302,-5.8069,-5.7198,-5.5586,-5.3565,-5.1151,-5.0965,-4.9724,-4.7535,-4.7361,-4.7366,-4.7539,-4.9277,-5.0117,-5.0254,-5.1054,-5.1836,-5.2578,-5.2578,-5.3105,-5.3867,-5.3743,-5.425,-5.4953,-5.4692,-5.5068,-5.5664,-5.5528,-5.4993,-5.4511,-5.5241,-5.4972,-5.453,-5.5338,-5.5011,-5.4568,-5.5453,-5.5588,-5.5299,-5.4664,-5.4376,-5.4068,-5.3356,-5.3087,-5.276,-5.2038,-5.1846,-5.1788,-5.1788,-5.1788,-5.1548,-5.0827,-5.0712,-5.0673,-5.0596,-4.9894,-4.9048,-4.8105,-4.7327,-4.6567,-4.5691,-4.5594,-4.5594,-4.5594,-4.5594,-4.5594,-4.5594,-4.5594,-4.5594,-4.5594,-4.6528,-4.7336,-4.799,-4.8933,-4.9798,-5.0577,-5.0577,-5.0616,-5.0712,-5.0712,-5.0712,-5.0712,-5.0712,-5.0712,-5.077,-5.1491,-5.1827,-5.2058,-5.3645,-5.4318,-5.4395,-5.4472,-5.4914,-5.5338,-5.6703,-5.6896,-5.7484,-5.9023,-6.0396,-6.1839,-6.3358,-6.4916,-6.5705,-6.5186,-6.482,-6.4224,-6.3205,-6.2781,-6.2243,-6.1389,-6.132,-6.1166,-6.0819,-6.0871,-6.0925,-6.0925,-5.9444,-5.8467,-5.8117,-5.6086,-5.4496,-5.3428,-5.1979,-5.0777,-4.9807,-4.878,-4.861,-4.9199,-4.9883,-5.0762,-5.1719,-5.2031,-5.2676,-5.3476,-5.3476,-5.3942,-5.4646,-5.4601,-5.5067,-5.5735,-5.5491,-5.5625,-5.5883,-5.5739,-5.5491,-5.528,-5.5588,-5.5472,-5.528,-5.5607,-5.5472,-5.528,-5.5607,-5.5703,-5.5607,-5.5299,-5.4857,-5.453,-5.4664,-5.3914,-5.326,-5.3414,-5.3049,-5.2519,-5.2,-5.1904,-5.1788,-5.1471,-5.101,-5.0712,-5.0712,-5.0404,-4.9663,-4.8279,-4.7817,-4.7086,-4.5729,-4.5594,-4.5594,-4.5594,-4.5594,-4.5594,-4.5594,-4.5594,-4.5845,-4.6355,-4.7201,-4.8029,-4.8875,-4.974,-5.0366,-5.0712,-5.0712,-5.0712,-5.0712,-5.0712,-5.0712,-5.0712,-5.0712,-5.0971,-5.1452,-5.1769,-5.2519,-5.353,-5.4222,-5.4799,-5.5222,-5.5222,-5.5415,-5.5645,-5.8607,-5.8357,-5.8773,-6.0819,-6.1377,-6.2147,-6.3935,-6.4743,-6.482,-6.3974,-6.3858,-6.3397,-6.2235,-6.187,-6.1466,-6.0839,-6.08,-6.0827,-6.0858,-6.0944,-6.1031,-6.1097,-5.9832,-5.9017,-5.8764,-5.689,-5.5638,-5.5018,-5.3367,-5.2263,-5.1696,-5.0544,-5.0351,-5.0957,-5.1191,-5.1973,-5.3086,-5.3086,-5.3554,-5.4312,-5.4312,-5.4777,-5.5411,-5.5361,-5.5667,-5.6084,-5.5907,-5.5842,-5.5834,-5.5738,-5.5703,-5.5703,-5.5703,-5.5703,-5.5703,-5.5703,-5.5703,-5.5703,-5.5703,-5.5703,-5.5703,-5.5703,-5.5261,-5.4991,-5.5568,-5.478,-5.4107,-5.4722,-5.3972,-5.301,-5.2404,-5.2077,-5.1827,-5.1587,-5.1068,-5.0712,-5.0712,-5.0712,-5.0048,-4.8317,-4.8105,-4.7432,-4.5768,-4.5594,-4.5594,-4.5594,-4.5594,-4.5594,-4.5594,-4.5845,-4.6259,-4.6885,-4.7932,-4.8779,-4.9394,-5.0269,-5.0712,-5.0712,-5.0712,-5.0712,-5.0712,-5.0712,-5.0827,-5.1048,-5.1048,-5.1529,-5.2288,-5.2558,-5.3395,-5.4511,-5.4761,-5.5203,-5.5703,-5.5703,-5.5703,-5.5703,-5.9338,-6.0165,-6.1031,-6.1928,-6.2743,-6.3269,-6.3308,-6.332,-6.3051,-6.2235,-6.2139,-6.212,-6.2101,-6.132,-6.08,-6.08,-6.08,-6.0858,-6.0979,-6.0997,-6.1097,-6.1297,-6.057,-5.9781,-5.8922,-5.8215,-5.7012,-5.5293,-5.5273,-5.4375,-5.2676,-5.2656,-5.2656,-5.2715,-5.3574,-5.3965,-5.3984,-5.3984,-5.4406,-5.5081,-5.5081,-5.5537,-5.6161,-5.5969,-5.5904,-5.5891,-5.5749,-5.5695,-5.5695,-5.5703,-5.5703,-5.5703,-5.5703,-5.5703,-5.5703,-5.5703,-5.5703,-5.5703,-5.5703,-5.5703,-5.5703,-5.5703,-5.5684,-5.5684,-5.5703,-5.5684,-5.5665,-5.5684,-5.4357,-5.3203,-5.3203,-5.2481,-5.1635,-5.0837,-5.0712,-5.0712,-5.0712,-5.0712,-5.0048,-4.8317,-4.8105,-4.7432,-4.5768,-4.5594,-4.5594,-4.5594,-4.5594,-4.5594,-4.5594,-4.6413,-4.6885,-4.6904,-4.8529,-4.9394,-4.9394,-5.0269,-5.0712,-5.0712,-5.0712,-5.0712,-5.0712,-5.0712,-5.1125,-5.1885,-5.1885,-5.2385,-5.326,-5.4107,-5.4472,-5.4587,-5.5376,-5.5684,-5.5703,-5.5703,-5.5703,-5.5703,-6.0339,-6.0608,-6.0877,-6.1166,-6.1916,-6.2474,-6.2474,-6.2954,-6.3012,-6.2216,-6.2101,-6.2101,-6.2101,-6.132,-6.08,-6.08,-6.08,-6.0827,-6.0858,-6.1076,-6.1234,-6.1303,-6.067,-5.9955,-5.9115,-5.8319,-5.7344,-5.6191,-5.5586,-5.4707,-5.3594,-5.3594,-5.3594,-5.3594,-5.3887,-5.4336,-5.4883,-5.4883,-5.5351,-5.6106,-5.6018,-5.6063,-5.6175,-5.5981,-5.5842,-5.5769,-5.5716,-5.5703,-5.5703,-5.5703,-5.5703,-5.5703,-5.5703,-5.5703,-5.5703,-5.5703,-5.5703,-5.5703,-5.5703,-5.5703,-5.5703,-5.5703,-5.5703,-5.5703,-5.5703,-5.5703,-5.553,-5.4991,-5.4895,-5.4568,-5.3414,-5.2972,-5.251,-5.1664,-5.1048,-5.0712,-5.0712,-5.0712,-5.0269,-4.9125,-4.899,-4.8548,-4.7413,-4.6817,-4.649,-4.649,-4.5932,-4.5864,-4.6451,-4.6759,-4.7432,-4.8567,-4.9125,-4.9683,-5.0289,-5.0558,-5.0712,-5.0712,-5.0712,-5.0712,-5.0731,-5.1279,-5.1654,-5.1923,-5.2519,-5.328,-5.4107,-5.4395,-5.4818,-5.5338,-5.5588,-5.5703,-5.5703,-5.5703,-5.5703,-5.5703,-6.08,-6.08,-6.08,-6.08,-6.1243,-6.162,-6.162,-6.2031,-6.2185,-6.1678,-6.162,-6.162,-6.162,-6.1127,-6.0935,-6.1262,-6.0993,-6.0819,-6.0871,-6.1147,-6.1312,-6.1364,-6.1053,-6.0508,-5.9668,-5.9121,-5.8262,-5.709,-5.6211,-5.5508,-5.498,-5.498,-5.498,-5.498,-5.498,-5.5273,-5.5781,-5.5738,-5.6001,-5.645,-5.6285,-5.6139,-5.6005,-5.5868,-5.5779,-5.5703,-5.5703,-5.5703,-5.5703,-5.5703,-5.5703,-5.5703,-5.5703,-5.5703,-5.5703,-5.5703,-5.5703,-5.5703,-5.5703,-5.5703,-5.5703,-5.5703,-5.5703,-5.5703,-5.5703,-5.5703,-5.5549,-5.5049,-5.5107,-5.4934,-5.3876,-5.3145,-5.2519,-5.1981,-5.1221,-5.0712,-5.0712,-5.0712,-5.0385,-4.949,-4.9394,-4.9067,-4.8182,-4.7663,-4.7355,-4.7355,-4.6855,-4.6913,-4.7798,-4.7528,-4.799,-4.9356,-4.9721,-5.0144,-5.0693,-5.0712,-5.0712,-5.0712,-5.101,-5.1144,-5.1183,-5.201,-5.2558,-5.2914,-5.3453,-5.4164,-5.4953,-5.4953,-5.5241,-5.5703,-5.5703,-5.5703,-5.5703,-5.5703,-5.5703,-5.5703,-6.08,-6.08,-6.08,-6.08,-6.08,-6.08,-6.08,-6.08,-6.08,-6.08,-6.08,-6.0819,-6.0877,-6.0839,-6.1146,-6.2024,-6.13,-6.0847,-6.0981,-6.1186,-6.1369,-6.1472,-6.1613,-6.1289,-6.043,-6.039,-5.9609,-5.7988,-5.7129,-5.6699,-5.6699,-5.6621,-5.6601,-5.6601,-5.6601,-5.6601,-5.6582,-5.6456,-5.6324,-5.6191,-5.5988,-5.5834,-5.5716,-5.5695,-5.5703,-5.5703,-5.5703,-5.5703,-5.5703,-5.5761,-5.5742,-5.5703,-5.5761,-5.5742,-5.5703,-5.5703,-5.5703,-5.5703,-5.5703,-5.5703,-5.5703,-5.5703,-5.5703,-5.5703,-5.5703,-5.5703,-5.5703,-5.5703,-5.5107,-5.4568,-5.4511,-5.3164,-5.2038,-5.1923,-5.1279,-5.077,-5.0712,-5.0712,-5.0404,-4.9586,-4.949,-4.9163,-4.8355,-4.824,-4.8202,-4.8202,-4.8125,-4.849,-4.9356,-4.8625,-4.8586,-4.9452,-5.0289,-5.0712,-5.0712,-5.0712,-5.0731,-5.0789,-5.1606,-5.1981,-5.2019,-5.2895,-5.3722,-5.4491,-5.4549,-5.5011,-5.5703,-5.5703,-5.5703,-5.5703,-5.5703,-5.5703,-5.5703,-5.5703,-5.5703,-5.5703,-6.08,-6.08,-6.08,-6.08,-6.08,-6.08,-6.08,-6.08,-6.08,-6.08,-6.08,-6.105,-6.1716,-6.1204,-6.1146,-6.2024,-6.13,-6.0816,-6.0845,-6.1124,-6.1301,-6.1358,-6.1579,-6.1289,-6.043,-6.039,-5.9902,-5.8887,-5.8027,-5.7598,-5.7578,-5.6914,-5.6601,-5.6601,-5.6601,-5.6601,-5.6582,-5.6456,-5.638,-5.6328,-5.6019,-5.5891,-5.5842,-5.5748,-5.5703,-5.5703,-5.5703,-5.5703,-5.5799,-5.6483,-5.6252,-5.5818,-5.6483,-5.6252,-5.5703,-5.5703,-5.5703,-5.5703,-5.5703,-5.5703,-5.5703,-5.5703,-5.5703,-5.5703,-5.5703,-5.5703,-5.5703,-5.5703,-5.5549,-5.5222,-5.4607,-5.4164,-5.3453,-5.2115,-5.1731,-5.1395,-5.0789,-5.0712,-5.0616,-5.0423,-5.0385,-5.0308,-5.0087,-4.9471,-4.9086,-4.9086,-4.849,-4.849,-4.9356,-4.9202,-4.949,-5.0366,-5.0596,-5.0712,-5.0712,-5.0712,-5.101,-5.1625,-5.2491,-5.2895,-5.2933,-5.3799,-5.4299,-5.453,-5.5145,-5.5511,-5.5703,-5.5703,-5.5703,-5.5703,-5.5703,-5.5703,-5.5703,-5.5703,-5.5703,-5.5703,-6.08,-6.08,-6.08,-6.08,-6.08,-6.08,-6.08,-6.08,-6.08,-6.08,-6.08,-6.0973,-6.1447,-6.1069,-6.0993,-6.1466,-6.1069,-6.08,-6.08,-6.1027,-6.1207,-6.1303,-6.1501,-6.1419,-6.0996,-6.0996,-6.0586,-5.9746,-5.8906,-5.8496,-5.8476,-5.7598,-5.7402,-5.7773,-5.7278,-5.7271,-5.764,-5.7446,-5.7136,-5.6789,-5.6925,-5.6763,-5.6445,-5.6757,-5.6646,-5.6349,-5.6742,-5.6626,-5.6426,-5.73,-5.728,-5.6896,-5.6983,-5.6676,-5.6233,-5.5818,-5.5703,-5.5703,-5.5703,-5.5703,-5.5703,-5.5703,-5.5703,-5.5703,-5.5703,-5.5703,-5.5703,-5.5703,-5.5703,-5.5568,-5.5126,-5.4741,-5.4068,-5.2712,-5.2154,-5.1625,-5.0808,-5.0712,-5.0846,-5.1202,-5.1241,-5.1241,-5.1241,-5.0818,-5.0394,-5.001,-4.9548,-4.949,-4.9971,-4.999,-5.0212,-5.0693,-5.0712,-5.0875,-5.1241,-5.1645,-5.2068,-5.25,-5.3376,-5.3799,-5.3818,-5.4664,-5.5049,-5.5068,-5.5511,-5.5703,-5.5703,-5.5703,-5.5703,-5.5703,-5.5703,-5.5703,-5.5703,-5.5703,-5.5703,-5.5703,-6.0973,-6.0993,-6.0993,-6.0993,-6.0993,-6.0954,-6.0819,-6.08,-6.08,-6.08,-6.08,-6.08,-6.08,-6.08,-6.08,-6.08,-6.08,-6.08,-6.08,-6.0935,-6.1081,-6.1246,-6.1404,-6.1551,-6.1678,-6.1699,-6.1348,-6.0605,-5.9785,-5.9375,-5.9355,-5.8496,-5.8496,-5.916,-5.8211,-5.822,-5.8874,-5.8602,-5.8065,-5.7439,-5.8062,-5.7857,-5.7291,-5.8011,-5.7838,-5.728,-5.803,-5.7819,-5.733,-5.8184,-5.8396,-5.8184,-5.7569,-5.7195,-5.6849,-5.6107,-5.5799,-5.5703,-5.5703,-5.5703,-5.5703,-5.5703,-5.5703,-5.5703,-5.5703,-5.5703,-5.5703,-5.5703,-5.5703,-5.5703,-5.5703,-5.5145,-5.4357,-5.3356,-5.2577,-5.1779,-5.0827,-5.0808,-5.1125,-5.1808,-5.2019,-5.2096,-5.2096,-5.2096,-5.1818,-5.1125,-5.1077,-5.1077,-5.1077,-5.1077,-5.1077,-5.1077,-5.0952,-5.126,-5.2096,-5.2972,-5.3395,-5.3414,-5.426,-5.4684,-5.4703,-5.5395,-5.5703,-5.5703,-5.5703,-5.5703,-5.5703,-5.5703,-5.5703,-5.5703,-5.5703,-5.5703,-5.5703,-5.5703,-5.5703,-5.5703,-6.1755,-6.1908,-6.1908,-6.1908,-6.1908,-6.1658,-6.0916,-6.08,-6.08,-6.08,-6.08,-6.08,-6.08,-6.08,-6.08,-6.08,-6.08,-6.08,-6.08,-6.0935,-6.1014,-6.1048,-6.1344,-6.1509,-6.154,-6.1635,-6.1621,-6.1504,-6.0644,-6.0215,-6.0195,-5.9375,-5.9062,-5.9199,-5.8857,-5.8766,-5.8874,-5.8602,-5.8432,-5.8291,-5.8293,-5.8223,-5.8107,-5.8261,-5.8223,-5.8127,-5.8261,-5.8204,-5.8223,-5.905,-5.8858,-5.8396,-5.8934,-5.8127,-5.6964,-5.6849,-5.6291,-5.5703,-5.5703,-5.5703,-5.5703,-5.5703,-5.5703,-5.5703,-5.5703,-5.5703,-5.5703,-5.5703,-5.5703,-5.5703,-5.5703,-5.5588,-5.5011,-5.3453,-5.3087,-5.2452,-5.0923,-5.1298,-5.175,-5.1885,-5.2538,-5.301,-5.301,-5.301,-5.2953,-5.2818,-5.2818,-5.2818,-5.2818,-5.2818,-5.2818,-5.2818,-5.2106,-5.2135,-5.2991,-5.3857,-5.4299,-5.4318,-5.5126,-5.5511,-5.5511,-5.5645,-5.5703,-5.5703,-5.5703,-5.5703,-5.5703,-5.5703,-5.5703,-5.5703,-5.5703,-5.5703,-5.5703,-5.5703,-5.5703,-5.5703,-6.132,-6.1793,-6.1947,-6.1485,-6.1793,-6.1812,-6.0935,-6.08,-6.08,-6.08,-6.08,-6.08,-6.08,-6.08,-6.08,-6.08,-6.08,-6.08,-6.08,-6.0935,-6.1056,-6.1165,-6.1387,-6.1522,-6.1608,-6.1678,-6.1699,-6.1699,-6.1308,-6.1094,-6.1074,-6.0234,-6.0056,-6.0411,-5.979,-5.9679,-6.0022,-5.9821,-5.9464,-5.9068,-5.9491,-5.9377,-5.9011,-5.9473,-5.9358,-5.9011,-5.9473,-5.9338,-5.9069,-5.9915,-5.9954,-5.955,-5.9031,-5.8627,-5.8165,-5.7272,-5.6387,-5.5703,-5.5703,-5.5703,-5.5703,-5.5703,-5.5703,-5.5703,-5.5703,-5.5703,-5.5703,-5.5703,-5.5703,-5.5703,-5.5703,-5.5703,-5.5299,-5.4107,-5.3895,-5.3472,-5.2222,-5.2375,-5.2769,-5.3241,-5.3664,-5.3895,-5.3895,-5.3895,-5.3703,-5.3241,-5.3203,-5.3203,-5.3203,-5.3203,-5.3203,-5.3203,-5.328,-5.3491,-5.3895,-5.4722,-5.5145,-5.5145,-5.5511,-5.5703,-5.5703,-5.5703,-5.5703,-5.5703,-5.5703,-5.5703,-5.5703,-5.5703,-5.5703,-5.5703,-5.5703,-5.5703,-5.5703,-5.5703,-5.5703,-5.5703,-6.105,-6.1781,-6.2166,-6.1493,-6.2089,-6.2377,-6.1512,-6.1377,-6.1377,-6.1377,-6.1377,-6.1377,-6.1377,-6.1204,-6.1089,-6.1089,-6.0916,-6.08,-6.08,-6.0935,-6.1056,-6.1177,-6.1359,-6.154,-6.1699,-6.1699,-6.1699,-6.1699,-6.1699,-6.1699,-6.168,-6.0975,-6.096,-6.1459,-6.0611,-6.0522,-6.0988,-6.0858,-6.0416,-5.9858,-6.0531,-6.0396,-5.9877,-6.055,-6.0377,-5.9896,-6.055,-6.0358,-5.9896,-6.0569,-6.08,-6.0569,-5.93,-5.905,-5.9011,-5.7896,-5.6973,-5.6261,-5.6049,-5.5838,-5.5799,-5.6203,-5.6145,-5.6049,-5.6261,-5.6145,-5.5992,-5.5992,-5.5838,-5.5703,-5.5703,-5.5703,-5.5434,-5.4626,-5.4491,-5.4203,-5.3318,-5.3376,-5.376,-5.4414,-5.4664,-5.478,-5.478,-5.478,-5.4491,-5.3837,-5.378,-5.378,-5.378,-5.378,-5.378,-5.378,-5.4241,-5.4587,-5.478,-5.5395,-5.5703,-5.5703,-5.5703,-5.5703,-5.5703,-5.5703,-5.5703,-5.5703,-5.5703,-5.5703,-5.5703,-5.5703,-5.5703,-5.5703,-5.5703,-5.5703,-5.5703,-5.5703,-5.5703,-5.5722,-6.1851,-6.2666,-6.3185,-6.3128,-6.3839,-6.4128,-6.3262,-6.3128,-6.3128,-6.3128,-6.3128,-6.3128,-6.3128,-6.2454,-6.2005,-6.2005,-6.1262,-6.08,-6.08,-6.0935,-6.0944,-6.0842,-6.114,-6.144,-6.1699,-6.1699,-6.1699,-6.1699,-6.1699,-6.1699,-6.1699,-6.1518,-6.1451,-6.1478,-6.1103,-6.0956,-6.0988,-6.0858,-6.0762,-6.0704,-6.0762,-6.0762,-6.0704,-6.0781,-6.0762,-6.0704,-6.0781,-6.0762,-6.0704,-6.0781,-6.08,-6.0781,-6.0646,-5.9588,-5.8511,-5.9127,-5.8742,-5.7934,-5.7107,-5.631,-5.6088,-5.7703,-5.7492,-5.7118,-5.7915,-5.7473,-5.6907,-5.6907,-5.6272,-5.5703,-5.5703,-5.5703,-5.5434,-5.4626,-5.4491,-5.4203,-5.3318,-5.3895,-5.4434,-5.4491,-5.5164,-5.5607,-5.5607,-5.5607,-5.5568,-5.5511,-5.5511,-5.5511,-5.5511,-5.5511,-5.5511,-5.5511,-5.4857,-5.4857,-5.5588,-5.5665,-5.5703,-5.5703,-5.5703,-5.5703,-5.5703,-5.5703,-5.5703,-5.5703,-5.5703,-5.5703,-5.5703,-5.5703,-5.5703,-5.5703,-5.5703,-5.5703,-5.5703,-5.5703,-5.5703,-5.5818,-6.1928,-6.2743,-6.3288,-6.3288,-6.4032,-6.432,-6.3435,-6.3288,-6.3288,-6.3288,-6.3288,-6.3108,-6.2608,-6.2281,-6.2101,-6.2101,-6.1812,-6.182,-6.232,-6.2007,-6.1643,-6.1246,-6.1364,-6.1509,-6.1699,-6.1699,-6.1699,-6.1699,-6.1699,-6.1699,-6.1699,-6.1553,-6.1455,-6.1359,-6.1116,-6.0954,-6.0871,-6.0819,-6.08,-6.08,-6.08,-6.08,-6.08,-6.08,-6.08,-6.08,-6.08,-6.08,-6.08,-6.08,-6.08,-6.0704,-6.0165,-5.9935,-5.98,-5.9569,-5.9281,-5.8973,-5.8646,-5.7934,-5.7473,-5.8127,-5.805,-5.7896,-5.8223,-5.805,-5.7819,-5.7819,-5.755,-5.7146,-5.6618,-5.6522,-5.6233,-5.5376,-5.5241,-5.5126,-5.4799,-5.503,-5.5241,-5.5241,-5.5511,-5.5703,-5.5703,-5.5703,-5.5703,-5.5703,-5.5703,-5.5703,-5.5703,-5.5703,-5.5703,-5.5703,-5.5395,-5.5395,-5.5703,-5.5703,-5.5703,-5.5703,-5.5703,-5.5703,-5.5703,-5.5703,-5.5703,-5.5703,-5.5703,-5.5703,-5.5703,-5.5703,-5.5703,-5.5703,-5.5703,-5.5703,-5.5761,-5.631,-5.6522,-5.6637,-6.1928,-6.2743,-6.3397,-6.3666,-6.4436,-6.4801,-6.4205,-6.4128,-6.4128,-6.4128,-6.4128,-6.3916,-6.3351,-6.3063,-6.2878,-6.2878,-6.2627,-6.2704,-6.3262,-6.2618,-6.1992,-6.1452,-6.1488,-6.1544,-6.1634,-6.1679,-6.1699,-6.1699,-6.1699,-6.1679,-6.1634,-6.1504,-6.1359,-6.12,-6.1016,-6.0902,-6.08,-6.08,-6.08,-6.08,-6.08,-6.08,-6.08,-6.08,-6.08,-6.08,-6.08,-6.08,-6.08,-6.08,-6.08,-6.0704,-6.0108,-6.0319,-6.0627,-5.9762,-5.9685,-5.9915,-5.9915,-5.9511,-5.9088,-5.9088,-5.8877,-5.8742,-5.9031,-5.8877,-5.8684,-5.8684,-5.8492,-5.8127,-5.7511,-5.7407,-5.7203,-5.6607,-5.6511,-5.6415,-5.6145,-5.6107,-5.6011,-5.5722,-5.5703,-5.5703,-5.5703,-5.5703,-5.5703,-5.5703,-5.5703,-5.5703,-5.5703,-5.5703,-5.5703,-5.5703,-5.5703,-5.5703,-5.5703,-5.5703,-5.5838,-5.6088,-5.5818,-5.5838,-5.6088,-5.5818,-5.5703,-5.5703,-5.5703,-5.5857,-5.6107,-5.6107,-5.6261,-5.6511,-5.6511,-5.6511,-5.6588,-5.7184,-5.7407,-5.753,-6.1947,-6.2762,-6.3589,-6.4455,-6.532,-6.5897,-6.5897,-6.5897,-6.5897,-6.5897,-6.5897,-6.5897,-6.5878,-6.5128,-6.4609,-6.4609,-6.382,-6.3308,-6.3308,-6.2551,-6.1871,-6.133,-6.1432,-6.1501,-6.1501,-6.1633,-6.1699,-6.1699,-6.1699,-6.1633,-6.1501,-6.1354,-6.1193,-6.0988,-6.0858,-6.08,-6.08,-6.08,-6.08,-6.08,-6.08,-6.08,-6.08,-6.08,-6.08,-6.08,-6.08,-6.08,-6.08,-6.08,-6.08,-6.08,-6.08,-6.08,-6.0627,-5.9762,-6.0127,-6.08,-6.08,-6.08,-6.08,-6.08,-6.0146,-5.9742,-6.0589,-6.0127,-5.9511,-5.9511,-5.8877,-5.8319,-5.8319,-5.8319,-5.8319,-5.83,-5.83,-5.7992,-5.7137,-5.7003,-5.6676,-5.5799,-5.5703,-5.5703,-5.5703,-5.5703,-5.5703,-5.5703,-5.5722,-5.5722,-5.5703,-5.5703,-5.5703,-5.5703,-5.5703,-5.5703,-5.5703,-5.5703,-5.6126,-5.6983,-5.6107,-5.6156,-5.6964,-5.6088,-5.5703,-5.5722,-5.5722,-5.6214,-5.7003,-5.7003,-5.7511,-5.83,-5.83,-5.83,-5.83,-5.8319,-5.8319,-5.8415,-6.3685,-6.4051,-6.4493,-6.5359,-6.5724,-6.5897,-6.5897,-6.5897,-6.5897,-6.5897,-6.5897,-6.5667,-6.5051,-6.4762,-6.4609,-6.4609,-6.4359,-6.4205,-6.4205,-6.4076,-6.34,-6.207,-6.1583,-6.1349,-6.1349,-6.1498,-6.1553,-6.1553,-6.1462,-6.1448,-6.1481,-6.1227,-6.1065,-6.0988,-6.0858,-6.08,-6.08,-6.08,-6.08,-6.08,-6.08,-6.08,-6.08,-6.08,-6.08,-6.08,-6.08,-6.08,-6.08,-6.08,-6.08,-6.08,-6.08,-6.08,-6.0742,-6.0492,-6.0589,-6.08,-6.08,-6.08,-6.08,-6.08,-6.0589,-6.0473,-6.0742,-6.0589,-6.0416,-6.0416,-6.0223,-5.9877,-5.9261,-5.9146,-5.8954,-5.8396,-5.83,-5.8204,-5.7953,-5.7376,-5.6907,-5.6637,-5.6069,-5.5703,-5.5703,-5.6252,-5.6618,-5.6618,-5.7184,-5.7261,-5.6637,-5.6618,-5.6329,-5.5722,-5.5703,-5.5703,-5.5703,-5.5703,-5.5818,-5.6069,-5.5818,-5.6156,-5.6983,-5.6733,-5.6953,-5.753,-5.753,-5.7665,-5.7915,-5.7915,-5.8069,-5.83,-5.83,-5.83,-5.8377,-5.8934,-5.9146,-5.9261,-6.4378,-6.4609,-6.4878,-6.5743,-6.5897,-6.5897,-6.5897,-6.5897,-6.5897,-6.5897,-6.5897,-6.5705,-6.5166,-6.5109,-6.5243,-6.5551,-6.559,-6.5301,-6.4647,-6.4679,-6.4121,-6.275,-6.2383,-6.1913,-6.1303,-6.1436,-6.1469,-6.1428,-6.1328,-6.1306,-6.1295,-6.1081,-6.0972,-6.0925,-6.0853,-6.08,-6.08,-6.08,-6.08,-6.08,-6.08,-6.08,-6.08,-6.08,-6.08,-6.08,-6.08,-6.08,-6.08,-6.08,-6.08,-6.08,-6.08,-6.08,-6.08,-6.08,-6.08,-6.08,-6.08,-6.08,-6.08,-6.08,-6.08,-6.08,-6.08,-6.08,-6.08,-6.08,-6.08,-6.0646,-6.0108,-6.0012,-5.9858,-5.9377,-5.93,-5.9165,-5.8819,-5.8319,-5.7857,-5.755,-5.7049,-5.6722,-5.6722,-5.7203,-5.7511,-5.7511,-5.7992,-5.8069,-5.753,-5.7511,-5.7261,-5.6742,-5.6395,-5.6376,-5.6722,-5.6376,-5.6376,-5.6722,-5.6722,-5.7165,-5.7973,-5.7646,-5.78,-5.83,-5.83,-5.8492,-5.8781,-5.8781,-5.8973,-5.93,-5.93,-5.93,-5.9358,-5.9838,-6.0012,-6.0089,-6.4397,-6.4724,-6.4974,-6.5763,-6.5897,-6.5897,-6.5897,-6.5897,-6.5897,-6.5897,-6.5897,-6.5897,-6.5897,-6.5897,-6.6186,-6.6917,-6.6994,-6.634,-6.482,-6.473,-6.4338,-6.3472,-6.3631,-6.3036,-6.1531,-6.1625,-6.1586,-6.1382,-6.1383,-6.1243,-6.0997,-6.0999,-6.0925,-6.08,-6.08,-6.08,-6.08,-6.08,-6.08,-6.08,-6.08,-6.08,-6.08,-6.08,-6.08,-6.08,-6.08,-6.08,-6.08,-6.08,-6.08,-6.08,-6.08,-6.08,-6.08,-6.08,-6.08,-6.08,-6.08,-6.08,-6.08,-6.08,-6.08,-6.08,-6.08,-6.08,-6.08,-6.08,-6.08,-6.08,-6.08,-6.08,-6.08,-6.08,-6.08,-6.0512,-5.9723,-5.955,-5.9223,-5.8492,-5.8338,-5.83,-5.83,-5.8377,-5.8434,-5.8531,-5.8531,-5.8492,-5.8415,-5.8415,-5.8377,-5.83,-5.753,-5.7492,-5.83,-5.7569,-5.7588,-5.83,-5.83,-5.8723,-5.9473,-5.8742,-5.8454,-5.8531,-5.8531,-5.8934,-5.9627,-5.9627,-6.0089,-6.08,-6.08,-6.08,-6.08,-6.08,-6.08,-6.08,-6.5416,-6.5609,-6.5686,-6.5859,-6.5897,-6.5897,-6.5897,-6.5897,-6.5897,-6.5897,-6.5897,-6.5897,-6.5897,-6.5897,-6.5974,-6.6128,-6.6147,-6.6013,-6.5628,-6.573,-6.5382,-6.4521,-6.4671,-6.4248,-6.313,-6.3133,-6.2812,-6.2084,-6.1979,-6.1611,-6.0997,-6.0894,-6.0831,-6.08,-6.08,-6.08,-6.08,-6.08,-6.08,-6.08,-6.08,-6.08,-6.08,-6.08,-6.08,-6.08,-6.08,-6.08,-6.08,-6.08,-6.08,-6.08,-6.08,-6.08,-6.08,-6.08,-6.08,-6.08,-6.08,-6.08,-6.08,-6.08,-6.08,-6.08,-6.08,-6.08,-6.08,-6.08,-6.08,-6.08,-6.08,-6.08,-6.08,-6.08,-6.08,-6.0723,-6.0531,-5.9935,-5.9435,-5.9261,-5.8684,-5.83,-5.83,-5.8877,-5.9511,-6.0204,-6.0262,-5.9954,-5.9281,-5.9242,-5.8954,-5.8319,-5.8127,-5.8107,-5.83,-5.8742,-5.8742,-5.83,-5.83,-5.8723,-5.9492,-5.9319,-5.9608,-6.0262,-6.0262,-6.0358,-6.0512,-6.0512,-6.0627,-6.08,-6.08,-6.08,-6.08,-6.08,-6.08,-6.08,-6.5724,-6.5897,-6.5897,-6.5897,-6.5897,-6.5897,-6.5897,-6.6224,-6.632,-6.5955,-6.659,-6.6936,-6.6513,-6.6474,-6.632,-6.5936,-6.6244,-6.6301,-6.5917,-6.5959,-6.5799,-6.5344,-6.5422,-6.5238,-6.4707,-6.4707,-6.3877,-6.2197,-6.2132,-6.1701,-6.0895,-6.0823,-6.08,-6.08,-6.08,-6.08,-6.08,-6.08,-6.08,-6.08,-6.08,-6.08,-6.08,-6.08,-6.08,-6.08,-6.08,-6.08,-6.08,-6.08,-6.08,-6.08,-6.08,-6.08,-6.08,-6.08,-6.08,-6.0877,-6.13,-6.1416,-6.1512,-6.1897,-6.1704,-6.13,-6.0877,-6.08,-6.08,-6.08,-6.08,-6.08,-6.08,-6.08,-6.08,-6.08,-6.08,-6.08,-6.08,-6.0416,-6.0127,-6.0127,-5.9742,-5.9492,-5.9492,-5.9877,-6.03,-6.0762,-6.08,-6.0589,-6.0146,-6.0127,-5.9935,-5.9511,-5.9088,-5.9069,-5.9492,-5.9492,-5.9492,-5.9492,-5.9492,-5.9704,-6.0127,-6.0127,-6.0358,-6.08,-6.08,-6.08,-6.08,-6.08,-6.08,-6.08,-6.08,-6.08,-6.08,-6.08,-6.08,-6.08,-6.5724,-6.5897,-6.5897,-6.5897,-6.6013,-6.6109,-6.6109,-6.6801,-6.7071,-6.6417,-6.7417,-6.7898,-6.7167,-6.6974,-6.6628,-6.5955,-6.6513,-6.6609,-6.5936,-6.5921,-6.5921,-6.5897,-6.5921,-6.5921,-6.5897,-6.5897,-6.4782,-6.2543,-6.2543,-6.2012,-6.1012,-6.1012,-6.0935,-6.08,-6.08,-6.08,-6.08,-6.08,-6.08,-6.08,-6.08,-6.08,-6.08,-6.08,-6.08,-6.08,-6.08,-6.08,-6.08,-6.08,-6.08,-6.0819,-6.0973,-6.1012,-6.1012,-6.1012,-6.1108,-6.1339,-6.1947,-6.2197,-6.2474,-6.3128,-6.2801,-6.2108,-6.1396,-6.1012,-6.08,-6.08,-6.08,-6.08,-6.08,-6.08,-6.08,-6.08,-6.08,-6.08,-6.08,-6.08,-6.08,-6.08,-6.08,-6.08,-6.08,-6.08,-6.08,-6.08,-6.08,-6.08,-6.08,-6.08,-6.08,-6.08,-6.0108,-6.0069,-6.0781,-6.0089,-6.0089,-6.08,-6.08,-6.08,-6.08,-6.08,-6.08,-6.08,-6.08,-6.08,-6.08,-6.08,-6.08,-6.08,-6.08,-6.08,-6.08,-6.08,-6.08,-6.08,-6.5724,-6.5897,-6.5897,-6.5897,-6.6474,-6.6936,-6.6936,-6.7667,-6.8186,-6.809,-6.7609,-6.7225,-6.7109,-6.6474,-6.6013,-6.5897,-6.5994,-6.6013,-6.5897,-6.6022,-6.6024,-6.591,-6.6003,-6.6024,-6.591,-6.5897,-6.5359,-6.4262,-6.4262,-6.3455,-6.1928,-6.1928,-6.1524,-6.08,-6.08,-6.08,-6.08,-6.08,-6.08,-6.08,-6.08,-6.08,-6.08,-6.08,-6.08,-6.08,-6.08,-6.08,-6.08,-6.08,-6.08,-6.0935,-6.1697,-6.1928,-6.1928,-6.1928,-6.2416,-6.2839,-6.2274,-6.2608,-6.3166,-6.3281,-6.3224,-6.3108,-6.2993,-6.1839,-6.08,-6.08,-6.08,-6.08,-6.08,-6.08,-6.08,-6.08,-6.08,-6.08,-6.08,-6.08,-6.08,-6.08,-6.08,-6.08,-6.08,-6.08,-6.08,-6.08,-6.08,-6.08,-6.08,-6.08,-6.08,-6.08,-6.0685,-6.0685,-6.08,-6.0685,-6.0685,-6.08,-6.08,-6.08,-6.08,-6.08,-6.08,-6.08,-6.08,-6.08,-6.08,-6.08,-6.08,-6.08,-6.08,-6.08,-6.08,-6.08,-6.08,-6.08,-6.6397,-6.6571,-6.6724,-6.7205,-6.759,-6.784,-6.784,-6.8571,-6.8956,-6.8462,-6.8494,-6.8359,-6.7878,-6.7071,-6.6571,-6.6571,-6.6571,-6.6571,-6.6571,-6.663,-6.6441,-6.5929,-6.5955,-6.5947,-6.591,-6.5897,-6.5705,-6.532,-6.4359,-6.3493,-6.2743,-6.18,-6.1416,-6.1493,-6.1012,-6.08,-6.08,-6.08,-6.08,-6.08,-6.08,-6.08,-6.08,-6.08,-6.08,-6.08,-6.08,-6.1108,-6.1543,-6.1543,-6.182,-6.2262,-6.2647,-6.2762,-6.2762,-6.2762,-6.3031,-6.3339,-6.3455,-6.3762,-6.4147,-6.4628,-6.4397,-6.4032,-6.4032,-6.3089,-6.2204,-6.2204,-6.1839,-6.1543,-6.1543,-6.1127,-6.08,-6.08,-6.08,-6.08,-6.08,-6.08,-6.08,-6.08,-6.08,-6.08,-6.08,-6.08,-6.08,-6.08,-6.08,-6.08,-6.08,-6.08,-6.08,-6.08,-6.08,-6.08,-6.08,-6.08,-6.08,-6.08,-6.08,-6.08,-6.08,-6.08,-6.08,-6.08,-6.08,-6.08,-6.08,-6.08,-6.08,-6.08,-6.08,-6.08,-6.08,-6.08,-6.08,-6.08]},{"header":{"parameterUnit":"m.s-1","parameterCategory":1,"la1":30.6,"la2":28.766,"lo1":-90.7593,"lo2":-88.6598,"dy":0.0162,"dx":0.0183,"nx":116,"ny":114,"refTime":"2024-02-09T18:00:00:Z","depth":0,"parameterNumber":3,"parameterNumberName":"V-component_of_WINDS"},"data":[0.0,0.0,0.0,0.0,0.0,0.0,0.0,0.0,0.0,0.0,0.0,0.0,0.0,0.0,0.0,0.0,0.0,0.0,0.0,0.0,0.0,0.0,0.0,0.0,0.0,0.0,0.0,0.0,0.0,0.0,0.0,0.0,0.0,0.0,0.0,0.0,0.0,0.0,0.0,0.0,0.0,0.0,0.0,0.0,0.0,0.0,0.0,0.0,0.0,0.0,0.0,0.0,0.0,0.0,0.0,0.0,0.0,0.0,0.0,0.0,0.0,0.0,0.0,0.0,0.0,0.0,0.0,0.0,0.0,0.0,0.0,0.0,0.0,0.0,0.0,0.0,0.0,0.0,0.0,0.0,0.0,0.0,0.0,0.0,0.0,0.0,0.0,0.0,0.0,0.0,0.0,0.0,0.0,0.0,0.0,0.0,0.0,0.0,0.0,0.0,0.0,0.0,0.0,0.0,0.0,0.0,0.0,0.0,0.0,0.0,0.0,0.0,0.0,0.0,0.0,0.0,0.0,0.0,0.0,0.0,0.0,0.0,0.0,0.0,0.0,0.0,0.0,0.0,0.0,0.0,0.0,0.0,0.0,0.0,0.0,0.0,0.0,0.0,0.0,0.0,0.0,0.0,0.0,0.0,0.0,0.0,0.0,0.0,0.0,0.0,0.0,0.0,0.0,0.0,0.0,0.0,0.0,0.0,0.0,0.0,0.0,0.0,0.0,0.0,0.0,0.0,0.0,0.0,0.0,0.0,0.0,0.0,0.0,0.0,0.0,0.0,0.0,0.0,0.0,0.0,0.0,0.0,0.0,0.0,0.0,0.0,0.0,0.0,0.0,0.0,0.0,0.0,0.0,0.0,0.0,0.0,0.0,0.0,0.0,0.0,0.0,0.0,0.0,0.0,0.0,0.0,0.0,0.0,0.0,0.0,0.0,0.0,0.0,0.0,0.0,0.0,0.0,0.0,0.0,0.0,0.0,0.0,0.0,0.0,0.0,0.0,0.0,0.0,0.0,0.0,0.0,0.0,0.0,0.0,0.0,0.0,0.0,0.0,0.0,0.0,0.0,0.0,0.0,0.0,0.0,0.0,0.0,0.0,0.0,0.0,0.0,0.0,0.0,0.0,0.0,0.0,0.0,0.0,0.0,0.0,0.0,0.0,0.0,0.0,0.0,0.0,0.0,0.0,0.0,0.0,0.0,0.0,0.0,0.0,0.0,0.0,0.0,0.0,0.0,0.0,0.0,0.0,0.0,0.0,0.0,0.0,0.0,0.0,0.0,0.0,0.0,0.0,0.0,0.0,0.0,0.0,0.0,0.0,0.0,0.0,0.0,0.0,0.0,0.0,0.0,0.0,0.0,0.0,0.0,0.0,0.0,0.0,0.0,0.0,0.0,0.0,0.0,0.0,0.0,0.0,0.0,0.0,0.0,0.0,0.0,0.0,0.0,0.0,0.0,0.0,0.0,0.0,0.0,0.0,0.0,0.0,0.0,0.0,0.0,0.0,0.0,0.0,0.0,0.0,0.0,0.0,0.0,0.0,0.0,0.0,0.0,0.0,0.0,0.0,0.0,0.0,0.0,0.0,0.0,0.0,0.0,0.0,0.0,0.0,0.0,0.0,0.0,0.0,0.0,0.0,0.0,0.0,0.0,0.0,0.0,0.0,0.0,0.0,0.0,0.0,0.0,0.0,0.0,0.0,0.0,0.0,0.0,0.0,0.0,0.0,0.0,0.0,0.0,0.0,0.0,0.0,0.0,0.0,0.0,0.0,0.0,0.0,0.0,0.0,0.0,0.0,0.0,0.0,0.0,0.0,0.0,0.0,0.0,0.0,0.0,0.0,0.0,0.0,0.0,0.0,0.0,0.0,0.0,0.0,0.0,0.0,0.0,0.0,0.0,0.0,0.0,0.0,0.0,0.0,0.0,0.0,0.0,0.0,0.0,0.0,0.0,0.0,0.0,0.0,0.0,0.0,0.0,0.0,0.0,0.0,0.0,0.0,0.0,0.0,0.0,0.0,0.0,0.0,0.0,0.0,0.0,0.0,0.0,0.0,0.0,0.0,0.0,0.0,0.0,0.0,0.0,0.0,0.0,0.0,0.0,0.0,0.0,0.0,0.0,0.0,0.0,0.0,0.0,0.0,0.0,0.0,0.0,0.0,0.0,0.0,0.0,0.0,0.0,0.0,0.0,0.0,0.0,0.0,0.0,0.0,0.0,0.0,0.0,0.0,0.0,0.0,0.0,0.0,0.0,0.0,0.0,0.0,0.0,0.0,0.0,0.0,0.0,0.0,0.0,0.0,0.0,0.0,0.0,0.0,0.0,0.0,0.0,0.0,0.0,0.0,0.0,0.0,0.0,0.0,0.0,0.0,0.0,0.0,0.0,0.0,0.0,0.0,0.0,0.0,0.0,0.0,0.0,0.0,0.0,0.0,0.0,0.0,0.0,0.0,0.0,0.0,0.0,0.0,0.0,0.0,0.0,0.0,0.0,0.0,0.0,0.0,0.0,0.0,0.0,0.0,0.0,0.0,0.0,0.0,0.0,0.0,0.0,0.0,0.0,0.0,0.0,0.0,0.0,0.0,0.0,0.0,0.0,0.0,0.0,0.0,0.0,0.0,0.0,0.0,0.0,0.0,0.0,0.0,0.0,0.0,0.0,0.0,0.0,0.0,0.0,0.0,0.0,0.0,0.0,0.0,0.0,0.0,0.0,0.0,0.0,0.0,0.0,0.0,0.0,0.0,0.0,0.0,0.0,0.0,0.0,0.0,0.0,0.0,0.0,0.0,0.0,0.0,0.0,0.0,0.0,0.0,0.0,0.0,0.0,0.0,0.0,0.0,0.0,0.0,0.0,0.0,0.0,0.0,0.0,0.0,0.0,0.0,0.0,0.0,0.0,0.0,0.0,0.0,0.0,0.0,0.0,0.0,0.0,0.0,0.0,0.0,0.0,0.0,0.0,0.0,0.0,0.0,0.0,0.0,0.0,0.0,0.0,0.0,0.0,0.0,0.0,0.0,0.0,0.0,0.0,0.0,0.0,0.0,0.0,0.0,0.0,0.0,0.0,0.0,0.0,0.0,0.0,0.0,0.0,0.0,0.0,0.0,0.0,0.0,0.0,0.0,0.0,0.0,0.0,0.0,0.0,0.0,0.0,0.0,0.0,0.0,0.0,0.0,0.0,0.0,0.0,0.0,0.0,0.0,0.0,0.0,0.0,0.0,0.0,0.0,0.0,0.0,0.0,0.0,0.0,0.0,0.0,0.0,0.0,0.0,0.0,0.0,0.0,0.0,0.0,0.0,0.0,0.0,0.0,0.0,0.0,0.0,0.0,0.0,0.0,0.0,0.0,0.0,0.0,0.0,0.0,0.0,0.0,0.0,0.0,0.0,0.0,0.0,0.0,0.0,0.0,0.0,0.0,0.0,0.0,0.0,0.0,0.0,0.0,0.0,0.0,0.0,0.0,0.0,0.0,0.0,0.0,0.0,0.0,0.0,0.0,0.0,0.0,0.0,0.0,0.0,0.0,0.0,0.0,0.0,0.0,0.0,0.0,0.0,0.0,0.0,0.0,0.0,0.0,0.0,0.0,0.0,0.0,0.0,0.0,0.0,0.0,0.0,0.0,0.0,0.0,0.0,0.0,0.0,0.0,0.0,0.0,0.0,0.0,0.0,0.0,0.0,0.0,0.0,0.0,0.0,0.0,0.0,0.0,0.0,0.0,0.0,0.0,0.0,0.0,0.0,0.0,0.0,0.0,0.0,0.0,0.0,0.0,0.0,0.0,0.0,0.0,0.0,0.0,0.0,0.0,0.0,0.0,0.0,0.0,0.0,0.0,0.0,0.0,0.0,0.0,0.0,0.0,0.0,0.0,0.0,0.0,0.0,0.0,0.0,0.0,0.0,0.0,0.0,0.0,0.0,0.0,0.0,0.0,0.0,0.0,0.0,0.0,0.0,0.0,0.0,0.0,0.0,0.0,0.0,0.0,0.0,0.0,0.0,0.0,0.0,0.0,0.0,0.0,0.0,0.0,0.0,0.0,0.0,0.0,0.0,0.0,0.0,0.0,0.0,0.0,0.0,0.0,0.0,0.0,0.0,0.0,0.0,0.0,0.0,0.0,0.0,0.0,0.0,0.0,0.0,0.0,0.0,0.0,0.0,0.0,0.0,0.0,0.0,0.0,0.0,0.0,0.0,0.0,0.0,0.0,0.0,0.0,0.0,0.0,0.0,0.0,0.0,0.0,0.0,0.0,0.0,0.0,0.0,0.0,0.0,0.0,0.0,0.0,0.0,0.0,0.0,0.0,0.0,0.0,0.0,0.0,0.0,0.0,0.0,0.0,0.0,0.0,0.0,0.0,0.0,0.0,0.0,0.0,0.0,0.0,0.0,0.0,0.0,0.0,0.0,0.0,0.0,0.0,0.0,0.0,0.0,0.0,0.0,0.0,0.0,0.0,0.0,0.0,0.0,0.0,0.0,0.0,0.0,0.0,0.0,0.0,0.0,0.0,0.0,0.0,0.0,0.0,0.0,0.0,0.0,0.0,0.0,0.0,0.0,0.0,0.0,0.0,0.0,0.0,0.0,0.0,0.0,0.0,0.0,0.0,0.0,0.0,0.0,0.0,0.0,0.0,0.0,0.0,0.0,0.0,0.0,0.0,0.0,0.0,0.0,0.0,0.0,0.0,0.0,0.0,0.0,0.0,0.0,0.0,0.0,0.0,0.0,0.0,0.0,0.0,0.0,0.0,0.0,0.0,0.0,0.0,0.0,0.0,0.0,0.0,0.0,0.0,0.0,0.0,0.0,0.0,0.0,0.0,0.0,0.0,0.0,0.0,0.0,0.0,0.0,0.0,0.0,0.0,0.0,0.0,0.0,0.0,0.0,0.0,0.0,0.0,0.0,0.0,0.0,0.0,0.0,0.0,0.0,0.0,0.0,0.0,0.0,0.0,0.0,0.0,0.0,0.0,0.0,0.0,0.0,0.0,0.0,0.0,0.0,0.0,0.0,0.0,0.0,0.0,0.0,0.0,0.0,0.0,0.0,0.0,0.0,0.0,0.0,0.0,0.0,0.0,0.0,0.0,0.0,0.0,0.0,0.0,0.0,0.0,0.0,0.0,0.0,0.0,0.0,0.0,0.0,0.0,0.0,0.0,0.0,0.0,0.0,0.0,0.0,0.0,0.0,0.0,0.0,0.0,0.0,0.0,0.0,0.0,0.0,0.0,0.0,0.0,0.0,0.0,0.0,0.0,0.0,0.0,0.0,0.0,0.0,0.0,0.0,0.0,0.0,0.0,0.0,0.0,0.0,0.0,0.0,0.0,0.0,0.0,0.0,0.0,0.0,0.0,0.0,0.0,0.0,0.0,0.0,0.0,0.0,0.0,0.0,0.0,0.0,0.0,0.0,0.0,0.0,0.0,0.0,0.0,0.0,0.0,0.0,0.0,0.0,0.0,0.0,0.0,0.0,0.0,0.0,0.0,0.0,0.0,0.0,0.0,0.0,0.0,0.0,0.0,0.0,0.0,0.0,0.0,0.0,0.0,0.0,0.0,0.0,0.0,0.0,0.0,0.0,0.0,0.0,0.0,0.0,0.0,0.0,0.0,0.0,0.0,0.0,0.0,0.0,0.0,0.0,0.0,0.0,0.0,0.0,0.0,0.0,0.0,0.0,0.0,0.0,0.0,0.0,0.0,0.0,0.0,0.0,0.0,0.0,0.0,0.0,0.0,0.0,0.0,0.0,0.0,0.0,0.0,0.0,0.0,0.0,0.0,0.0,0.0,0.0,0.0,0.0,0.0,0.0,0.0,0.0,0.0,0.0,0.0,0.0,0.0,0.0,0.0,0.0,0.0,0.0,0.0,0.0,0.0,0.0,0.0,0.0,0.0,0.0,0.0,0.0,0.0,0.0,0.0,0.0,0.0,0.0,0.0,0.0,0.0,0.0,0.0,0.0,0.0,0.0,0.0,0.0,0.0,0.0,0.0,0.0,0.0,0.0,0.0,0.0,0.0,0.0,0.0,0.0,0.0,0.0,0.0,0.0,0.0,0.0,0.0,0.0,0.0,0.0,0.0,0.0,0.0,0.0,0.0,0.0,0.0,0.0,0.4518,0.3972,0.0,0.0,0.0,0.0,0.0,0.0,0.0,0.0,0.0,0.0,0.0,0.0,0.0,0.0,0.0,0.0,0.0,0.0,0.0,0.0,0.0,0.0,0.0,0.0,0.0,0.0,0.0,0.0,0.0,0.0,0.0,0.0,0.0,0.0,0.0,0.0,0.0,0.0,0.0,0.0,0.0,0.0,0.0,0.0,0.0,0.0,0.0,0.0,0.0,0.0,0.0,0.0,0.0,0.0,0.0,0.0,0.0,0.0,0.0,0.0,0.0,0.0,0.0,0.0,0.0,0.0,0.0,0.0,0.0,0.0,0.0,0.0,0.0,0.0,0.0,0.0,0.0,0.0,0.0,0.0,0.0,0.0,0.0,0.0,0.0,0.0,0.0,0.0,0.0,0.0,0.0,0.0,0.0,0.0,0.0,0.0,0.0,0.0,0.0,0.0,0.0,0.0,0.0,0.0,0.0,0.0,0.0,0.0,0.0,0.0,0.0,0.0,0.0,0.0,0.6387,0.5611,0.0,0.0,0.0,0.0,0.0,0.0,0.0,0.0,0.0,0.0,0.0,0.0,0.0,0.0,0.0,0.0,0.0,0.0,0.0,0.0,0.0,0.0,0.0,-0.4116,-0.4016,-0.4016,-0.2964,-0.2364,0.0,0.0,0.0,0.0,0.0,-0.0353,-0.0353,-0.0101,0.0,0.0,0.0,0.0,0.0,0.0,0.0,0.0,0.0,0.0,0.0,0.0,0.0,0.0,0.0,0.0,0.0,0.0,0.0,0.0,0.0,0.0,0.0,0.0,0.0,0.0,0.0,0.0,0.0,0.0,0.0,0.0,0.0,0.0,0.0,0.0,0.0,0.0,0.0,0.0,0.0,0.0,0.0,0.0,0.0,0.0,0.0,0.0,0.0,0.0,0.0,0.0,0.0,0.0,0.0,0.0,0.0,0.0,0.0,0.0,0.0,0.0,0.0,0.0,0.0,0.0,0.0,0.0,0.0,0.0,0.0,0.0,0.9113,0.9117,0.9286,0.9083,0.8976,0.8966,0.8397,0.743,0.6285,0.6196,0.0,0.0,0.0,0.0,0.0,0.0,0.0,0.0,0.0,0.0,0.0,0.0,0.0,0.0,0.0,0.0,0.0,0.0,0.0,0.0,0.0,-0.472,-0.4016,-0.4016,-0.3815,-0.3715,-0.3715,-0.3565,-0.3465,-0.3465,-0.2363,-0.1712,-0.1712,-0.0605,0.0,0.0,0.0,0.0,0.0,0.0,0.0,0.0,0.0,0.0,0.0,0.0,0.0,0.0,0.0,0.0,0.0,0.0,0.0,0.0,0.0,0.0,0.0,0.0,0.0,0.0,0.0,0.0,0.0,0.0,0.0,0.0,0.0,0.0,0.0,0.0,0.0,0.0,0.0,0.0,0.0,0.0,0.0,0.0,0.0,0.0,0.0,0.0,0.0,0.0,0.0,0.0,0.7968,0.7988,0.0,0.0,0.0,0.0,0.0,0.0,0.0,0.0,0.0,0.0,0.0,0.0,0.0,0.8984,0.9259,0.9415,0.951,0.9551,0.953,0.953,0.9544,0.9391,0.9395,0.9517,0.9415,0.0,0.8133,0.7832,0.0,0.0,0.0,0.0,0.0,0.0,0.0,0.0,0.0,0.0,0.0,0.0,0.0,0.0,0.0,0.0,0.0,0.0,0.0,0.0,0.0,-0.6693,-0.6348,-0.6279,-0.5888,-0.5505,-0.5135,-0.3982,-0.3166,-0.2868,-0.1611,-0.0857,-0.0857,-0.0303,0.0,0.0,0.0,0.0,0.0,0.0,0.0,0.0,0.0,0.0,0.0,0.0,0.0,0.0,0.0,0.0,0.0,0.0,0.0,0.0,0.0,0.0,0.0,0.0,0.0,0.0,0.0,0.0,0.0,0.0,0.0,0.0,0.0,0.0,0.0,0.0,0.0,0.0,0.0,0.0,0.0,0.0,0.0,0.0,0.0,0.0,0.0,0.0,0.0,0.0,0.0,0.8018,0.8136,0.8002,0.8116,0.8075,0.0,0.0,0.0,0.0,0.0,0.0,0.0,0.0,0.0,0.9205,0.9357,0.9578,0.9883,1.0032,1.0232,1.0483,1.0483,1.0571,1.0734,1.0578,1.0548,1.0605,1.0521,1.0198,0.9683,0.8964,0.8438,0.8065,0.0,0.0,0.0,0.0,0.6908,0.6963,0.0,0.0,0.0,0.0,0.0,0.0,0.0,0.0,0.0,0.0,0.0,0.0,-0.8143,-0.8292,-0.8367,-0.8326,-0.7734,-0.7161,-0.6745,-0.4732,-0.3409,-0.3022,-0.1411,-0.0504,-0.0504,-0.0154,0.0,0.0,0.0,0.0,0.0,0.0,0.0,0.0,0.0,0.0,0.0,0.0,0.0,0.0,0.0,0.0,0.0,0.0,0.0,0.0,0.0,0.0,0.0,0.0,0.0,0.0,0.0,0.0,0.0,0.0,0.0,0.0,0.0,0.0,0.0,0.0,0.0,0.0,0.0,0.0,0.0,0.0,0.0,0.0,0.0,0.0,0.0,0.0,0.0,0.0,0.0,0.8085,0.8255,0.8012,0.8309,0.8333,0.0,0.0,0.0,0.0,0.0,0.0,0.8933,0.9259,0.9581,0.9883,1.007,1.031,1.0619,1.0727,1.0965,1.1335,1.1297,1.1399,1.1613,1.146,1.1369,1.1324,1.1212,1.1016,1.0707,0.9768,0.914,0.8733,0.8357,0.8113,0.8102,0.814,0.813,0.8143,0.0,0.0,0.0,0.0,0.0,0.0,0.0,0.0,0.0,0.0,0.0,-0.8096,-0.8428,-0.8598,-0.8798,-0.9129,-0.8811,-0.8598,-0.8568,-0.6844,-0.5844,-0.5779,-0.3317,-0.1913,-0.1913,-0.0637,0.0,0.0,0.0,0.0,0.0,0.0,0.0,0.0,0.0,0.0,0.0,0.0,0.0,0.0,0.0,0.0,0.0,0.0,0.0,0.0,0.0,0.0,0.0,0.0,0.0,0.0,0.0,0.0,0.0,0.0,0.0,0.0,0.0,0.0,0.0,0.0,0.0,0.0,0.0,0.0,0.0,0.0,0.0,0.0,0.0,0.0,0.0,0.0,0.0,0.0,0.0,0.0,0.0,0.8022,0.8672,0.0,0.0,0.0,0.0,0.8676,0.9083,0.9401,0.9557,0.9985,1.0358,1.0656,1.0945,1.1243,1.1548,1.1558,1.1643,1.1796,1.166,1.1606,1.1613,1.146,1.1311,1.1241,1.1165,1.1077,1.082,1.0199,0.9825,0.9496,0.8906,0.876,0.8794,0.8564,0.8638,0.8811,0.0,0.0,0.0,0.0,0.0,0.0,0.0,0.0,-0.7988,-0.7988,-0.8204,-0.8438,-0.8743,-0.9083,-0.9367,-0.9564,-0.9574,-0.9449,-0.9161,-0.7537,-0.6497,-0.6352,-0.3562,-0.1579,-0.0731,-0.1101,-0.0865,0.0,0.0,0.0,0.0,0.0,0.0,0.0,0.0,0.0,0.0,0.0,0.0,0.0,0.0,0.0,0.0,0.0,0.0,0.0,0.0,0.0,0.0,0.0,0.0,0.0,0.0,0.0,0.0,0.0,0.0,0.0,0.0,0.0,0.0,0.0,0.0,0.0,0.0,0.0,0.0,0.0,0.0,0.0,0.0,0.0,0.0,0.0,0.0,0.0,0.0,0.0,0.0,0.9039,0.954,0.0,0.931,0.938,0.9483,0.9429,0.9842,1.0161,1.0317,1.0751,1.1131,1.1426,1.1538,1.1738,1.2047,1.205,1.2121,1.226,1.2118,1.205,1.2043,1.1789,1.1596,1.145,1.1352,1.1226,1.1063,1.0688,1.0395,0.9998,0.9588,0.9344,0.9208,0.91,0.9066,0.9083,0.0,0.0,0.0,0.0,0.0,0.0,0.0,0.0,-0.7988,-0.7988,-0.8343,-0.8713,-0.912,-0.9568,-0.9954,-1.0249,-1.0137,-0.9818,-0.9486,-0.7785,-0.6641,-0.6362,-0.407,-0.2451,-0.1623,-0.1945,-0.1741,-0.0939,-0.0329,0.0,0.0,0.0,0.0,0.0,0.0,0.0,0.0,0.0,0.0,0.0,0.0,0.0,0.0,0.0,0.0,0.0,0.0,0.0,0.0,0.0,0.0,0.0,0.0,0.0,0.0,0.0,0.0,0.0,0.0,0.0,0.0,0.0,0.0,0.0,0.0,0.0,0.0,0.0,0.0,0.0,0.0,0.0,0.0,0.0,0.0,0.0,0.0,0.8893,0.9572,0.9663,1.0256,1.0534,1.0229,1.0243,1.0273,1.0273,1.0646,1.0962,1.1162,1.1548,1.1877,1.2128,1.2135,1.2233,1.2437,1.2386,1.241,1.2501,1.2355,1.2264,1.2203,1.1898,1.1681,1.1535,1.1382,1.1229,1.1084,1.0921,1.0714,1.0327,1.0073,0.9856,0.9673,0.9568,0.9466,0.9378,0.0,0.0,0.0,0.0,0.0,0.0,0.0,-0.7988,-0.7988,-0.7988,-0.8438,-0.8954,-0.9557,-1.0029,-1.0538,-1.1193,-1.0493,-0.9876,-0.9642,-0.7686,-0.6425,-0.605,-0.5106,-0.4643,-0.4697,-0.3281,-0.2626,-0.2706,-0.0863,0.0,0.0,0.0,0.0,0.0,0.0,0.0,0.0,0.0,0.0,0.0,0.0,0.0,0.0,0.0,0.0,0.0,0.0,0.0,0.0,0.0,0.0,0.0,0.0,0.0,0.0,0.0,0.0,0.0,0.0,0.0,0.0,0.0,0.0,0.0,0.0,0.0,0.0,0.0,0.0,0.0,0.0,0.0,0.0,0.0,0.0,0.0,0.8364,0.9388,1.0022,0.9893,1.0789,1.1189,1.0605,1.0945,1.1272,1.1199,1.148,1.1775,1.2135,1.2355,1.2579,1.2718,1.2729,1.2729,1.2729,1.2579,1.2501,1.2501,1.2352,1.2199,1.204,1.1745,1.1528,1.1369,1.1219,1.1073,1.0873,1.087,1.0758,1.0477,1.0341,1.0283,1.0236,0.9937,0.9822,0.9774,0.0,0.0,0.0,0.0,0.0,0.0,-0.7988,-0.7988,-0.7988,-0.7988,-0.8618,-0.9316,-0.9927,-1.0429,-1.0962,-1.145,-1.0806,-1.0246,-0.9951,-0.8781,-0.7596,-0.6432,-0.7102,-0.6813,-0.5258,-0.4496,-0.3654,-0.283,-0.0962,0.0,0.0,0.0,0.0,0.0,0.0,0.0,0.0,0.0,0.0,0.0,0.0,0.0,0.0,0.0,0.0,0.0,0.0,0.0,0.0,0.0,0.0,0.0,0.0,0.0,0.0,0.0,0.0,0.0,0.0,0.0,0.0,0.0,0.0,0.0,0.0,0.0,0.0,0.0,0.0,0.0,0.0,0.0,0.0,0.0,0.8503,0.9043,0.9208,0.9988,1.0683,1.1077,1.1667,1.1979,1.1813,1.2003,1.2091,1.1986,1.2257,1.241,1.2383,1.2671,1.2752,1.2569,1.2671,1.2729,1.2729,1.2579,1.2501,1.2498,1.2244,1.1989,1.1735,1.1541,1.1314,1.1067,1.1026,1.0924,1.0775,1.0663,1.0568,1.0487,1.0449,1.0304,1.0041,0.9957,0.9849,0.9639,0.0,0.0,0.0,0.0,0.0,0.0,-0.7988,-0.7988,-0.7988,-0.7988,-0.8801,-0.9523,-0.9998,-1.0643,-1.1168,-1.1494,-1.0778,-1.0154,-0.9855,-0.9045,-0.8308,-0.7532,-0.8546,-0.8611,-0.7498,-0.662,-0.5513,-0.4005,-0.2161,-0.0776,0.0,0.0,0.0,0.0,0.0,0.0,0.0,0.0,0.0,0.0,0.0,0.0,0.0,0.0,0.0,0.0,0.0,0.0,0.0,0.0,0.0,0.0,0.0,0.0,0.0,0.0,0.0,0.0,0.0,0.0,0.0,0.0,0.0,0.0,0.0,0.0,0.0,0.0,0.0,0.0,0.0,0.0,0.0,0.0,0.9123,0.9724,1.028,1.0785,1.1297,1.1837,1.2182,1.243,1.2559,1.2586,1.2589,1.2573,1.2729,1.2813,1.2783,1.2952,1.2969,1.2786,1.2813,1.2766,1.2634,1.2488,1.2379,1.2315,1.2016,1.1786,1.1609,1.1331,1.1111,1.0877,1.0813,1.0765,1.0619,1.0527,1.0419,1.0307,0.0,0.0,0.0,0.0,0.9622,0.9405,0.0,0.0,0.0,0.0,0.0,0.0,-0.7985,-0.7988,-0.7988,-0.7988,-0.894,-0.969,-0.9909,-1.0649,-1.1155,-1.1324,-1.0534,-0.9903,-0.9408,-0.8866,-0.871,-0.8993,-0.9615,-1.0066,-1.0375,-0.9041,-0.7553,-0.5971,-0.4145,-0.2265,-0.0359,-0.0354,-0.0214,0.0,0.0,0.0,0.0,0.0,0.0,0.0,0.0,0.0,0.0,0.0,0.0,0.0,0.0,0.0,0.0,0.0,0.0,0.0,0.0,0.0,0.0,0.0,0.0,0.0,0.0,0.0,0.0,0.0,0.0,0.0,0.0,0.0,0.0,0.0,0.0,0.0,0.0,0.0,0.0,0.0,0.9684,1.0348,1.1314,1.1572,1.1823,1.224,1.2444,1.2647,1.2888,1.2847,1.2847,1.2956,1.2993,1.3057,1.3166,1.3173,0.0,0.0,0.0,1.2769,1.2481,1.2318,1.2169,1.2033,1.1735,1.1586,1.1555,1.1069,1.0873,1.0847,1.0778,1.0633,1.049,1.0473,1.0283,0.9936,0.9936,0.9845,0.9737,0.9459,0.9259,0.9183,0.0,0.0,0.0,0.0,0.0,0.0,-0.7971,-0.7988,-0.7988,-0.7988,-0.8849,-0.9493,-0.9676,-1.0249,-1.0734,-1.1009,-1.0317,-0.9727,-0.9401,-0.9214,-0.9266,-0.9751,-1.029,-1.0687,-1.0985,-0.954,-0.8591,-0.8263,-0.6374,-0.443,-0.2502,-0.2397,-0.1522,0.0,0.0,0.0,0.0,0.0,0.0,0.0,0.0,0.0,0.0,0.0,0.0,0.0,0.0,0.0,0.0,0.0,0.0,0.0,0.0,0.0,0.0,0.0,0.0,0.0,0.0,0.0,0.0,0.0,0.0,0.0,0.0,0.0,0.0,0.0,0.0,0.0,0.0,0.0,0.0,0.7544,0.9287,1.0721,1.1619,1.1881,1.2054,1.2267,1.2634,1.28,1.261,1.3003,1.3183,1.2976,1.318,1.3275,1.3176,1.3173,1.3064,1.2823,1.2667,1.2508,1.2332,1.2057,1.1904,1.187,1.1575,0.0,1.1243,1.104,1.0813,1.0761,1.0731,1.0633,1.0483,1.0368,1.0073,0.9693,0.9693,0.9602,0.9445,0.932,0.9103,0.896,0.0,0.0,0.0,0.0,0.0,0.0,-0.7968,-0.7988,-0.7988,-0.7988,-0.8693,-0.9188,-0.9266,-0.9737,-1.008,-1.0158,-0.9683,-0.9347,-0.933,-0.9476,-0.9903,-1.0578,-1.0968,-1.1345,-1.1718,-1.0982,-1.0111,-0.9115,-0.8162,-0.6647,-0.4708,-0.3566,-0.2447,-0.1485,-0.0449,0.0,0.0,0.0,0.0,0.0,0.0,0.0,0.0,0.0,0.0,0.0,0.0,0.0,0.0,0.0,0.0,0.0,0.0,0.0,0.0,0.0,0.0,0.0,0.0,0.0,0.0,0.0,0.0,0.0,0.0,0.0,0.0,0.0,0.0,0.1124,0.1869,0.0,0.6228,0.7471,0.9455,1.1063,1.1735,1.203,1.2257,1.2484,1.264,1.2732,1.2732,1.3003,1.3149,1.3071,1.3203,1.3288,1.3288,1.3149,1.3,1.2851,1.2698,1.2474,1.2179,1.2023,1.1833,1.1606,1.1385,1.1199,1.105,1.09,1.0792,1.0721,1.0721,1.0595,1.0368,1.0144,0.9876,0.9602,0.9523,0.9401,0.9306,0.91,0.8493,0.7799,0.0,0.0,0.0,0.0,0.0,0.0,0.0,-0.7988,-0.7988,-0.7988,-0.8487,-0.8828,-0.8797,-0.9225,-0.9405,-0.9222,-0.9096,-0.911,-0.9313,-0.989,-1.0558,-1.1304,-1.1657,-1.1993,-1.2325,-1.2389,-1.1625,-1.0042,-1.0042,-0.8982,-0.6906,-0.5153,-0.4085,-0.3626,-0.1528,-0.0612,-0.0609,-0.0155,0.0,0.0,0.0,0.0,0.0,0.0,0.0,0.0,0.0,0.0,0.0,0.0,0.0,0.0,0.0,0.0,0.0,0.0,0.0,0.0,0.0,0.0,0.0,0.0,0.0,0.0,0.0,0.0,0.0,0.0,0.0797,0.1542,0.1731,0.4111,0.6401,0.7353,0.9268,1.0914,1.1662,1.2026,1.2301,1.2569,1.2569,1.2634,1.2851,1.2949,1.3027,1.3081,1.3166,1.3247,1.3312,1.3088,1.2946,1.2915,1.2712,1.2427,1.2064,1.1976,1.1748,1.1389,1.1209,1.106,1.0877,1.0792,1.0721,1.0717,1.066,1.05,1.0256,0.9947,0.9553,0.9116,0.8997,0.8669,0.8276,0.8428,0.7508,0.6234,0.0,0.0,0.0,0.0,0.0,0.0,0.0,0.0,-0.7988,-0.7988,-0.8445,-0.8682,-0.855,-0.8821,-0.8896,-0.8608,-0.9042,-0.9507,-0.9862,-1.0449,-1.1179,-1.1928,-1.2376,-1.2566,-1.2481,-1.2745,-1.2737,-1.236,-1.236,-1.126,-0.9258,-0.8849,-0.7688,-0.5881,-0.3704,-0.2741,-0.2613,-0.0771,0.0,0.0,0.0,0.0,0.0,0.0,0.0,0.0,0.0,0.0,0.0,0.0,0.0,0.0,0.0,0.0,0.0,0.0,0.0,0.0,0.0,0.0,0.0,0.0,0.0,0.0,0.0,0.0,0.0,0.0,0.0115,0.0235,0.0243,0.1879,0.3739,0.5594,0.7541,0.949,1.1325,1.1782,1.1945,1.2115,1.2474,1.2664,1.2562,1.2915,1.3047,1.2796,1.3149,1.3268,1.3024,1.306,1.2898,1.2759,1.2355,1.2115,1.2135,1.1667,1.144,1.1389,1.1107,1.0897,1.0877,1.0792,1.0721,1.0707,1.0443,1.031,1.0256,0.9947,0.882,0.7378,0.7365,0.6404,0.5193,0.6459,0.5916,0.448,0.0,0.0,0.0,0.0,0.0,0.0,0.0,0.0,0.0,-0.7988,-0.8153,-0.8296,-0.8231,-0.8288,-0.8312,-0.8235,-0.8774,-0.9425,-1.0137,-1.0907,-1.1748,-1.2667,-1.2973,-1.3169,-1.3278,-1.3325,-1.3275,-1.3119,-1.3119,-1.2594,-1.1567,-1.0234,-0.9154,-0.8248,-0.6133,-0.5207,-0.5074,-0.2857,-0.1983,-0.1898,-0.0545,0.0,0.0,0.0,0.0,0.0,0.0,0.0,0.0,0.0,0.0,0.0,0.0,0.0,0.0,0.0,0.0,0.0,0.0,0.0,0.0,0.0,0.0,0.0,0.0,0.0,0.0,0.0,0.0,0.0,0.0,0.1498,0.2995,0.3898,0.6541,0.8857,0.9767,1.0935,1.1697,1.1674,1.1915,1.2162,1.2359,1.2623,1.2769,1.2732,1.2905,1.2996,1.2963,1.2793,1.2664,1.26,1.2335,1.2108,1.1928,1.1742,1.1562,1.1389,1.1175,1.1029,1.0877,1.0792,1.0721,1.0638,0.9362,0.886,0.8776,0.7459,0.6485,0.5831,0.5725,0.4757,0.3477,0.49,0.4408,0.3058,0.0,0.0,0.0,0.0,0.0,0.0,0.0,0.0,0.0,0.0,-0.7988,-0.7988,-0.7988,-0.7988,-0.7988,-0.7988,-0.846,-0.9195,-1.0093,-1.0995,-1.1959,-1.3003,-1.3315,-1.3583,-1.3749,-1.3739,-1.3634,-1.3522,-1.3522,-1.337,-1.3081,-1.1517,-1.0742,-1.0598,-0.8496,-0.7524,-0.7444,-0.5265,-0.4266,-0.4135,-0.2345,-0.1598,-0.1541,-0.1382,-0.1249,-0.1138,-0.0314,0.0,0.0,0.0,0.0,0.0,0.0,0.0,0.0,0.0,0.0,0.0,0.0,0.0,0.0,0.0,0.0,0.0,0.0,0.0,0.0,0.0,0.0,0.0,0.0,0.1063,0.2163,0.2759,0.5159,0.7196,0.7732,0.9476,1.0648,1.0579,1.1044,1.1531,1.1938,1.222,1.241,1.2478,1.2637,1.2742,1.2773,1.2603,1.2484,1.2444,1.226,1.2057,1.1833,1.1748,1.1582,1.1324,1.1175,1.1026,1.0813,1.0772,1.0449,0.9896,0.845,0.751,0.6917,0.5474,0.461,0.4231,0.4118,0.3182,0.1935,0.2881,0.2543,0.1609,0.0,0.0,0.0,0.0,0.0,0.0,0.0,0.0,0.0,0.0,0.0,0.0,0.0,-0.7988,-0.7988,-0.7988,-0.8319,-0.8876,-0.9778,-1.0677,-1.1647,-1.2698,-1.3308,-1.3692,-1.3838,-1.3838,-1.3831,-1.3827,-1.3827,-1.3678,-1.3386,-1.3304,-1.3152,-1.2795,-1.0678,-0.9705,-0.9542,-0.7444,-0.6513,-0.6343,-0.597,-0.5648,-0.5331,-0.4789,-0.4447,-0.3955,-0.1049,0.0,0.0,0.0,0.0,0.0,0.0,0.0,0.0,0.0,0.0,0.0,0.0,0.0,0.0,0.0,0.0,0.0,0.0,0.0,0.0,0.0,0.0,0.0,0.0,0.0066,0.0673,0.242,0.2918,0.3687,0.5459,0.7263,0.8411,0.8363,0.9747,1.0867,1.1168,1.1804,1.2016,1.187,1.24,1.2606,1.2325,1.243,1.2437,1.2301,1.2003,1.184,1.183,1.1548,1.1324,1.1168,1.1023,1.0806,1.0727,1.0721,0.9709,0.8084,0.7863,0.6803,0.5188,0.4977,0.3997,0.2582,0.254,0.155,0.0059,0.0116,0.0113,0.0055,0.0,0.0,0.0,0.0,0.0,0.0,0.0,0.0,0.0,0.0,0.0,0.0,0.0,0.0,0.0,0.0,-0.8309,-0.8781,-0.9483,-1.0371,-1.1206,-1.1959,-1.2851,-1.3349,-1.3397,-1.3688,-1.3793,-1.3699,-1.3699,-1.3597,-1.34,-1.34,-1.3349,-1.3251,-1.2503,-1.2168,-1.2077,-0.9766,-0.8659,-0.8394,-0.6387,-0.5475,-0.5186,-0.4591,-0.4318,-0.4156,0.0,-0.2075,-0.121,-0.0311,0.0,0.0,0.0,0.0,0.0,0.0,0.0,0.0,0.0,0.0,0.0,0.0,0.0,0.0,0.0,0.0,0.0,0.0,0.0,0.0,0.0,0.0,0.0192,0.0783,0.2015,0.3098,0.3697,0.5376,0.6896,0.788,0.8416,0.9177,1.0313,1.1056,1.1569,1.1813,1.202,1.2135,1.2138,1.2182,1.2142,1.1989,1.1884,1.1738,1.1541,1.144,1.1314,1.1231,1.1016,1.0184,0.8903,0.8903,0.7926,0.6203,0.4986,0.4087,0.3414,0.2172,0.1356,0.0862,0.0849,0.0478,0.0,0.0,0.0,0.0,0.0,0.0,0.0,0.0,0.0,0.0,0.0,0.0,0.0,0.0,0.0,0.0,0.0,0.0,0.0,0.0,0.0,-0.8557,-0.9106,-0.9832,-1.051,-1.1114,-1.1935,-1.2403,-1.2454,-1.2735,-1.2868,-1.283,-1.2935,-1.2935,-1.284,-1.2952,-1.2973,-1.2922,-1.2922,-1.2922,-1.2832,-1.1239,-1.0405,-1.0053,-0.8041,-0.7042,-0.6718,-0.6051,-0.5781,0.0,-0.494,-0.4143,-0.3219,-0.187,-0.1109,-0.0706,-0.0706,-0.0404,0.0,0.0,0.0,0.0,0.0,0.0,0.0,0.0,0.0,0.0,0.0,0.0,0.0,0.0,0.0,0.0,0.0,0.0,0.0,0.0,0.102,0.1839,0.1852,0.3415,0.4852,0.5763,0.6405,0.7392,0.9079,0.971,1.0375,1.1339,1.1633,1.1799,1.1898,1.1952,1.1935,1.1833,1.1782,1.1664,1.1474,1.147,1.1084,1.0254,0.9999,0.8915,0.7098,0.7098,0.6115,0.4395,0.3235,0.236,0.1636,0.0497,0.0,0.0,0.0,0.0,0.0,0.0,0.0,0.0,0.0,0.0,0.0,0.0,0.0,0.0,0.0,0.0,0.0,0.0,0.0,0.0,0.0,0.0,0.0,0.0,0.0,0.0,-0.8648,-0.9096,-0.9602,-1.0175,-1.0653,-1.0968,-1.1104,-1.1128,-1.1212,-1.1358,-1.1636,-1.1775,-1.1779,-1.2074,-1.2132,-1.1993,-1.1993,-1.1993,-1.2056,-1.1826,-1.1596,-1.128,-1.0677,-1.0175,-0.9707,-0.8967,-0.8598,-0.8275,-0.6667,-0.6079,-0.5877,-0.4418,-0.3015,-0.1913,-0.1914,-0.1009,0.0,0.0,0.0,0.0,0.0,0.0,0.0,0.0,0.0,0.0,0.0,0.0,0.0,0.0,0.0,0.0,0.0,0.0,0.0,0.0,0.0,0.0,0.0,0.1381,0.2414,0.2479,0.3869,0.5506,0.7478,0.7689,0.8396,1.025,1.1127,1.1599,1.1606,1.1742,1.182,1.182,1.1691,1.1616,1.1606,1.1449,1.0361,0.8354,0.8,0.6965,0.523,0.5292,0.4255,0.2558,0.2586,0.1594,0.0,0.0,0.0,0.0,0.0,0.0,0.0,0.0,0.0,0.0,0.0,0.0,0.0,0.0,0.0,0.0,0.0,0.0,0.0,0.0,0.0,0.0,0.0,0.0,0.0,0.0,0.0,0.0,-0.8153,-0.8632,-0.895,-0.9103,-0.9798,-1.0233,-1.0331,-1.0663,-1.0853,-1.089,-1.0968,-1.1002,-1.1006,-1.1084,-1.1101,-1.1063,-1.1063,-1.1063,-1.1053,-1.09,-1.0731,-1.051,-0.9907,-0.9527,-0.9256,-0.8625,-0.836,-0.8299,-0.7701,-0.7487,-0.698,-0.3618,-0.1611,-0.0506,-0.0513,-0.0258,0.0,0.0,0.0,0.0,0.0,0.0,0.0,0.0,0.0,0.0,0.0,0.0,0.0,0.0,0.0,0.0,0.0,0.0,0.0,0.0,0.0,0.0,0.0,0.0343,0.1096,0.2319,0.287,0.3807,0.5475,0.5718,0.5966,0.6461,0.9526,1.1331,1.1443,1.1592,1.1674,1.1674,1.164,1.1565,1.145,0.9889,0.8125,0.6163,0.6118,0.5095,0.3421,0.3385,0.2427,0.0713,0.0702,0.0441,0.0,0.0,0.0,0.0,0.0,0.0,0.0,0.0,0.0,0.0,0.0,0.0,0.0,0.0,0.0,0.0,0.0,0.0,0.0,0.0,0.0,0.0,0.0,0.0,0.0,0.0,0.0,0.0,0.0,-0.8224,-0.8414,-0.8414,-0.8844,-0.9111,-0.9111,-0.9357,-0.9608,-0.9737,-0.9805,-0.9903,-1.0032,-1.01,-1.0131,-1.0131,-1.0131,-1.0131,-1.0124,-0.9968,-0.9822,0.0,0.0,-0.8899,-0.8777,-0.8319,-0.817,-0.816,-0.8022,-0.7675,-0.692,-0.472,-0.345,-0.2795,-0.2286,-0.1671,-0.1093,-0.1188,-0.064,0.0,0.0,0.0,0.0,0.0,0.0,0.0,0.0,0.0,0.0,0.0,0.0,0.0,0.0,0.0,0.0,0.0,0.0,0.0,0.0,0.0,0.0343,0.1325,0.1399,0.2087,0.3763,0.399,0.4352,0.5176,0.74,0.8752,0.8818,0.9008,0.9072,0.9072,0.9072,0.9013,0.8967,0.776,0.6198,0.4331,0.4238,0.3278,0.1531,0.1518,0.0977,0.0,0.0,0.0,0.0,0.0,0.0,0.0,0.0,0.0,0.0,0.0,0.0,0.0,0.0,0.0,0.0,0.0,0.0,0.0,0.0,0.0,0.0,0.0,0.0,0.0,0.0,0.0,0.0,0.0,0.0,0.0,0.0,0.0,-0.8012,-0.7992,-0.8008,-0.8012,-0.7988,-0.7988,-0.8163,-0.8425,-0.8557,-0.8754,-0.9064,-0.914,-0.9201,-0.9201,-0.9201,-0.9201,-0.9195,-0.9118,-0.8933,-0.874,-0.853,-0.835,-0.8225,0.0,-0.7988,-0.7988,-0.7988,-0.7356,-0.6549,-0.6736,-0.654,-0.6122,-0.5226,-0.398,-0.2902,-0.3065,-0.1782,-0.0376,-0.0387,-0.0197,0.0,0.0,0.0,0.0,0.0,0.0,0.0,0.0,0.0,0.0,0.0,0.0,0.0,0.0,0.0,0.0,0.0,0.0,0.0,0.0,0.0,0.0634,0.2181,0.2322,0.3023,0.4561,0.4823,0.5065,0.5554,0.5695,0.5805,0.5794,0.5784,0.5672,0.5384,0.5329,0.4308,0.253,0.2364,0.1534,0.0,0.0,0.0,0.0,0.0,0.0,0.0,0.0,0.0,0.0,0.0,0.0,0.0,0.0,0.0,0.0,0.0,0.0,0.0,0.0,0.0,0.0,0.0,0.0,0.0,0.0,-0.9732,-0.7988,0.0,0.0,0.0,0.0,0.0,0.0,0.0,0.0,0.0,-0.7995,-0.8163,-0.817,-0.7992,-0.7988,-0.8015,-0.8066,-0.8093,-0.8133,-0.8235,-0.8207,-0.8221,-0.8221,-0.8221,-0.8221,-0.8221,-0.8194,-0.8167,-0.814,-0.8089,-0.8052,-0.8025,-0.8002,0.0,0.0,-0.7988,-0.7852,-0.7761,-0.8076,-0.6805,-0.5174,-0.5066,-0.4996,-0.4924,-0.5081,-0.3724,-0.2225,-0.2357,-0.1235,0.0,0.0,0.0,0.0,0.0,0.0,0.0,0.0,0.0,0.0,0.0,0.0,0.0,0.0,0.0,0.0,0.0,0.0,0.0,0.0,0.0,0.0145,0.0435,0.0435,0.0579,0.0941,0.0943,0.231,0.5413,0.5695,0.5781,0.5789,0.5796,0.5029,0.3451,0.3365,0.2386,0.0473,0.0471,0.0334,0.0,0.0,0.0,0.0,0.0,0.0,0.0,0.0,0.0,0.0,0.0,0.0,0.0,0.0,0.0,0.0,0.0,0.0,0.0,0.0,0.0,0.0,0.0,-1.4527,-1.3365,-1.2589,-1.1173,-0.9746,-0.8473,-0.813,-0.7988,0.0,0.0,0.0,0.0,0.0,0.0,0.0,-0.8187,-0.8197,-0.7992,-0.7988,-0.8029,-0.816,0.0,-0.8029,-0.816,-0.8025,-0.7988,-0.7988,-0.7988,-0.7988,-0.7988,-0.7988,-0.7988,-0.7988,-0.7988,-0.7988,-0.7988,0.0,0.0,0.0,-0.7988,-0.8092,-0.8191,-0.8411,-0.7813,-0.7028,-0.7325,-0.7035,-0.6574,-0.6817,-0.5666,-0.436,-0.4451,-0.3866,-0.2888,-0.1877,-0.1578,-0.1231,-0.0235,0.0,0.0,0.0,0.0,0.0,0.0,0.0,0.0,0.0,0.0,0.0,0.0,0.0,0.0,0.0,0.0,0.0,0.0,0.0,0.0,0.0,0.0,0.0794,0.2595,0.2737,0.2792,0.2754,0.2788,0.2346,0.1373,0.1363,0.0948,0.0,0.0,0.0,0.0,0.0,0.0,0.0,0.0,0.0,0.0,0.0,0.0,0.0,0.0,0.0,0.0,0.0,0.0,0.0,0.0,0.0,0.0,0.0,0.0,0.0,0.0,-1.5545,-1.4721,-1.3111,-1.2572,-1.1417,-0.912,-0.845,-0.813,0.0,0.0,0.0,0.0,0.0,0.0,0.0,0.0,0.0,-0.7992,0.0,0.0,-0.8221,-0.8099,0.0,0.0,0.0,0.0,0.0,-0.7988,-0.7988,-0.7988,-0.7988,-0.7988,0.0,0.0,-0.7988,0.0,0.0,0.0,0.0,0.0,-0.8116,-0.8245,-0.8387,-0.8618,-0.891,-0.9296,-0.8787,-0.8118,-0.8421,-0.7477,-0.6372,-0.6547,-0.6305,-0.565,-0.4084,-0.3485,-0.2855,-0.0987,-0.0478,-0.034,-0.0047,0.0,0.0,0.0,0.0,0.0,0.0,0.0,0.0,0.0,0.0,0.0,0.0,0.0,0.0,0.0,0.0,0.0,0.0,0.0,0.0,0.0,0.0,0.0,0.0,0.0,0.0,0.0,0.0,0.0,0.0,0.0,0.0,0.0,0.0,0.0,0.0,0.0,0.0,0.0,0.0,0.0,0.0,0.0,0.0,0.0,0.0,0.0,0.0,0.0,0.0,0.0,0.0,0.0,0.0,0.0,-1.6218,-1.5315,-1.4678,-1.342,-1.1805,-0.9721,-0.9127,-0.8581,0.0,0.0,0.0,0.0,0.0,0.0,0.0,0.0,0.0,0.0,0.0,0.0,-0.8012,-0.7995,0.0,0.0,0.0,0.0,0.0,0.0,-0.7988,-0.7988,-0.7988,0.0,0.0,0.0,0.0,0.0,0.0,0.0,0.0,0.0,-0.7998,-0.8032,-0.8238,-0.8394,-0.8557,-0.8737,-0.9168,-0.9675,-0.9972,-0.9111,-0.8139,-0.8415,-0.7229,-0.5934,-0.565,-0.5099,-0.4311,-0.2781,-0.2119,-0.1452,-0.0233,0.0,0.0,0.0,0.0,0.0,0.0,0.0,0.0,0.0,0.0,0.0,0.0,0.0,0.0,0.0,0.0,0.0,0.0,0.0,0.0,0.0,0.0,0.0,0.0,0.0,0.0,0.0,0.0,0.0,0.0,0.0,0.0,0.0,0.0,0.0,0.0,0.0,0.0,0.0,0.0,0.0,0.0,0.0,0.0,0.0,0.0,0.0,0.0,0.0,0.0,0.0,0.0,0.0,0.0,-1.7415,-1.6358,-1.5366,-1.5473,-1.3947,-1.2231,-1.0464,-0.9795,-0.9026,-0.8073,0.0,0.0,0.0,0.0,0.0,0.0,0.0,0.0,0.0,0.0,-0.7988,-0.7988,-0.7988,0.0,0.0,0.0,0.0,0.0,0.0,-0.7988,-0.7988,-0.7988,0.0,0.0,0.0,0.0,0.0,0.0,0.0,0.0,0.0,0.0,-0.8187,-0.8248,-0.8357,-0.835,-0.8316,-0.8632,-0.9144,-0.9808,-0.9903,-0.9813,-1.0232,-0.9899,-0.9181,-0.7877,-0.7085,-0.596,-0.3285,-0.2348,-0.1608,-0.0289,0.0,0.0,0.0,0.0,0.0,0.0,0.0,0.0,0.0,0.0,0.0,0.0,0.0,0.0,0.0,0.0,0.0,0.0,0.0,0.0,0.0,0.0,0.0,0.0,0.0,0.0,0.0,0.0,0.0,0.0,0.0,0.0,0.0,0.0,0.0,0.0,0.0,0.0,0.0,0.0,0.0,0.0,0.0,0.0,0.0,0.0,0.0,0.0,0.0,0.0,0.0,0.0,0.0,-1.5598,-1.7495,-1.6455,-1.5474,-1.5578,-1.4134,-1.254,-1.0899,-1.0066,-0.9286,-0.8442,-0.8116,0.0,0.0,0.0,0.0,0.0,0.0,0.0,0.0,0.0,-0.8106,-0.8106,-0.815,-0.815,0.0,0.0,-0.8032,-0.7988,0.0,0.0,0.0,0.0,0.0,0.0,0.0,0.0,0.0,0.0,0.0,0.0,0.0,0.0,0.0,0.0,0.0,-0.8252,-0.8143,-0.8221,-0.8499,-0.9266,-1.0012,-1.0666,-1.1026,-1.1406,-1.1335,-0.9768,-0.8855,-0.7561,-0.4691,-0.3269,-0.2215,-0.0883,-0.0292,0.0,0.0,0.0,0.0,0.0,0.0,0.0,0.0,0.0,0.0,0.0,0.0,0.0,0.0,0.0,0.0,0.0,0.0,0.0,0.0,0.0,0.0,0.0,0.0,0.0,0.0,0.0,0.0,0.0,0.0,0.0,0.0,0.0,0.0,0.0,0.0,0.0,0.0,0.0,0.0,0.0,0.0,0.0,0.0,0.0,0.0,0.0,0.0,0.0,0.0,0.0,0.0,0.0,-1.6985,-1.6578,-1.5805,-1.495,-1.3943,-1.2609,-1.0899,-0.9788,-0.921,-0.92,-0.8465,0.0,0.0,0.0,0.0,0.0,0.0,0.0,0.0,0.0,-0.832,-0.832,-0.8408,-0.8408,-0.832,-0.832,-0.8187,-0.7988,0.0,0.0,0.0,0.0,0.0,0.0,0.0,0.0,0.0,0.0,0.0,0.0,0.0,0.0,0.0,0.0,0.0,0.0,0.0,-0.8167,-0.8083,-0.8587,-0.9462,-1.0317,-1.0463,-1.0941,-1.1324,-1.0958,-1.0213,-0.9114,-0.7434,-0.5463,-0.3595,-0.2257,-0.0945,0.0,0.0,0.0,0.0,0.0,0.0,0.0,0.0,0.0,0.0,0.0,0.0,0.0,0.0,0.0,0.0,0.0,0.0,0.0,0.0,0.0,0.0,0.0,0.0,0.0,0.0,0.0,0.0,0.0,0.0,0.0,0.0,0.0,0.0,0.0,0.0,0.0,0.0,0.0,0.0,0.0,0.0,0.0,0.0,0.0,0.0,0.0,0.0,0.0,0.0,0.0,0.0,0.0,0.0,-1.2739,-1.2095,-1.2507,-1.1203,-1.029,-1.0198,-0.951,-0.9008,-0.9008,-0.8362,0.0,0.0,0.0,0.0,0.0,0.0,0.0,0.0,-0.834,-0.8414,-0.8414,-0.8462,-0.8459,-0.8414,-0.8368,-0.8245,-0.8194,-0.8039,-0.7988,0.0,0.0,0.0,0.0,0.0,0.0,-0.7988,0.0,0.0,0.0,0.0,0.0,0.0,0.0,0.0,0.0,0.0,0.0,0.0,-0.816,-0.8781,-0.9418,-0.9666,-1.0019,-1.0273,-1.0083,-0.9588,-0.8699,-0.7172,-0.6058,-0.4712,-0.2446,-0.1655,-0.1105,-0.0149,0.0,0.0,0.0,0.0,0.0,0.0,0.0,0.0,0.0,0.0,0.0,0.0,0.0,0.0,0.0,0.0,0.0,0.0,0.0,0.0,0.0,0.0,0.0,0.0,0.0,0.0,0.0,0.0,0.0,0.0,0.0,0.0,0.0,0.0,0.0,0.0,0.0,0.0,0.0,0.0,0.0,0.0,0.0,0.0,0.0,0.0,0.0,0.0,0.0,0.0,0.0,0.0,-1.1298,-1.0376,-1.1134,-0.9839,-0.908,-0.9822,-0.9201,-0.8777,-0.9001,-0.8366,0.0,0.0,0.0,0.0,0.0,0.0,0.0,-0.8323,-0.8465,-0.8621,-0.8787,-0.8791,-0.8821,-0.8818,-0.873,-0.8567,-0.8347,-0.8252,-0.8093,0.0,0.0,0.0,0.0,0.0,0.0,-0.7988,0.0,0.0,0.0,0.0,0.0,0.0,0.0,0.0,0.0,0.0,0.0,0.0,0.0,-0.8255,-0.8622,-0.9032,-0.9384,-0.9622,-0.9473,-0.9144,-0.859,-0.7573,-0.6657,-0.5527,-0.3869,-0.2716,-0.1762,-0.0907,-0.0348,0.0,0.0,0.0,0.0,0.0,0.0,0.0,0.0,0.0,0.0,0.0,0.0,0.0,0.0,0.0,0.0,0.0,0.0,0.0,0.0,0.0,0.0,0.0,0.0,0.0,0.0,0.0,0.0,0.0,0.0,0.0,0.0,0.0,0.0,0.0,0.0,0.0,0.0,0.0,0.0,0.0,0.0,0.0,0.0,0.0,0.0,0.0,0.0,0.0,0.0,0.0,-1.1623,-1.0312,-1.049,-0.9404,-0.8927,-0.9618,-0.8832,-0.8528,-0.9081,0.0,0.0,0.0,0.0,0.0,0.0,0.0,0.0,-0.8337,-0.8574,-0.8866,-0.921,-0.9306,-0.9388,-0.9398,-0.9398,-0.9086,-0.853,-0.8509,-0.8326,-0.7988,-0.7988,-0.7995,-0.8005,-0.7992,-0.7995,0.0,0.0,0.0,0.0,0.0,0.0,0.0,0.0,0.0,0.0,0.0,0.0,0.0,0.0,0.0,0.0,0.0,-0.8967,-0.9252,-0.9166,-0.8866,-0.8625,-0.8482,-0.7256,0.0,-0.6029,-0.4021,-0.2213,-0.2013,-0.0994,-0.0098,0.0,0.0,0.0,0.0,0.0,0.0,0.0,0.0,0.0,0.0,0.0,0.0,0.0,0.0,0.0,0.0,0.0,0.0,0.0,0.0,0.0,0.0,0.0,0.0,0.0,0.0,0.0,0.0,0.0,0.0,0.0,0.0,0.0,0.0,0.0,0.0,0.0,0.0,0.0,0.0,0.0,0.0,0.0,0.0,0.0,0.0,0.0,0.0,0.0,0.0,0.0,0.0,0.0,-0.8346,-0.8211,-0.8386,-0.819,-0.815,0.0,0.0,0.0,0.0,0.0,0.0,0.0,0.0,0.0,-0.8431,-0.873,-0.8974,-0.921,-0.9306,-0.9442,-0.9554,-0.9554,-0.9354,-0.904,-0.8757,-0.8425,-0.7988,-0.7988,-0.8106,-0.8208,-0.8039,-0.8109,0.0,0.0,0.0,0.0,-0.8228,-0.8384,0.0,0.0,0.0,0.0,0.0,0.0,0.0,0.0,-0.7988,-0.8012,-0.8116,0.0,-0.8347,-0.8309,-0.8248,-0.8137,0.0,-0.7835,-0.7235,-0.6229,-0.5477,-0.4422,-0.2364,-0.1756,-0.1201,-0.015,0.0,0.0,0.0,0.0,0.0,0.0,0.0,0.0,0.0,0.0,0.0,0.0,0.0,0.0,0.0,0.0,0.0,0.0,0.0,0.0,0.0,0.0,0.0,0.0,0.0,0.0,0.0,0.0,0.0,0.0,0.0,0.0,0.0,0.0,0.0,0.0,0.0,0.0,0.0,0.0,0.0,0.0,0.0,0.0,0.0,0.0,0.0,0.0,0.0,0.0,0.0,0.0,0.0,0.0,0.0,0.0,0.0,0.0,0.0,0.0,0.0,0.0,0.0,0.0,0.0,-0.8516,-0.8584,-0.8818,-0.9079,-0.9361,-0.9445,-0.9635,-0.9914,-0.9842,-0.9612,-0.9292,-0.8733,-0.8333,-0.7988,-0.7988,-0.8089,-0.8157,-0.8022,0.0,0.0,0.0,0.0,0.0,-0.8133,-0.8258,0.0,-0.8557,-0.8506,-0.8394,0.0,0.0,0.0,0.0,-0.7988,-0.7988,-0.7988,-0.7988,-0.7988,-0.7988,-0.7988,-0.7988,-0.7988,-0.7988,-0.7789,-0.7083,-0.6431,-0.5375,-0.3316,-0.2414,-0.1561,-0.0202,0.0,0.0,0.0,0.0,0.0,0.0,0.0,0.0,0.0,0.0,0.0,0.0,0.0,0.0,0.0,0.0,0.0,0.0,0.0,0.0,0.0,0.0,0.0,0.0,0.0,0.0,0.0,0.0,0.0,0.0,0.0,0.0,0.0,0.0,0.0,0.0,0.0,0.0,0.0,0.0,0.0,0.0,0.0,0.0,0.0,0.0,0.0,0.0,0.0,0.0,0.0,0.0,0.0,0.0,0.0,0.0,0.0,0.0,0.0,0.0,0.0,0.0,0.0,0.0,-0.8408,-0.8564,-0.8743,-0.8817,-0.9104,-0.9608,-0.968,-0.9917,-1.0314,-1.0249,-0.993,-0.9388,-0.8763,-0.8282,-0.8025,-0.8025,-0.8025,-0.8022,-0.7998,0.0,0.0,0.0,0.0,0.0,0.0,0.0,0.0,-0.8411,-0.837,-0.8344,-0.8411,0.0,0.0,0.0,0.0,0.0,-0.8019,-0.8025,-0.8019,-0.7995,-0.7988,-0.7988,-0.7988,-0.7988,-0.7988,-0.7988,-0.6933,-0.5677,-0.4518,-0.3022,-0.1618,-0.0507,-0.0153,0.0,0.0,0.0,0.0,0.0,0.0,0.0,0.0,0.0,0.0,0.0,0.0,0.0,0.0,0.0,0.0,0.0,0.0,0.0,0.0,0.0,0.0,0.0,0.0,0.0,0.0,0.0,0.0,0.0,0.0,0.0,0.0,0.0,0.0,0.0,0.0,0.0,0.0,0.0,0.0,0.0,0.0,0.0,0.0,0.0,0.0,0.0,0.0,0.0,0.0,0.0,0.0,0.0,0.0,0.0,0.0,0.0,0.0,0.0,0.0,0.0,0.0,-0.8313,-0.8408,-0.8615,-0.8844,-0.8871,-0.9104,-0.9608,-0.9992,-1.0276,-1.0466,-1.0826,-1.0483,-0.9557,-0.9241,-0.878,-0.8235,-0.8235,-0.8235,-0.8225,-0.8092,0.0,0.0,0.0,0.0,0.0,0.0,0.0,0.0,-0.8347,-0.834,-0.8327,-0.8347,0.0,0.0,0.0,0.0,0.0,-0.8201,-0.8235,-0.8204,-0.8022,-0.7988,-0.7988,-0.7988,-0.7988,-0.7988,-0.7988,-0.6933,-0.5929,-0.5727,-0.3666,-0.1958,-0.1701,-0.075,0.0,0.0,0.0,0.0,0.0,0.0,0.0,0.0,0.0,0.0,0.0,0.0,0.0,0.0,0.0,0.0,0.0,0.0,0.0,0.0,0.0,0.0,0.0,0.0,0.0,0.0,0.0,0.0,0.0,0.0,0.0,0.0,0.0,0.0,0.0,0.0,0.0,0.0,0.0,0.0,0.0,0.0,0.0,0.0,0.0,0.0,0.0,0.0,0.0,0.0,0.0,0.0,0.0,0.0,0.0,0.0,0.0,0.0,0.0,0.0,0.0,-0.8164,-0.8615,-0.8615,-0.871,-0.8878,-0.9121,-0.9557,-1.0086,-1.046,-1.0799,-1.1094,-1.0816,-1.0256,-0.9466,-0.8998,-0.8651,-0.8316,-0.818,-0.8147,-0.814,0.0,0.0,0.0,0.0,0.0,0.0,0.0,0.0,0.0,0.0,-0.8214,-0.816,-0.8245,0.0,0.0,0.0,0.0,0.0,-0.8126,-0.8147,-0.813,-0.8008,-0.8102,-0.8143,-0.8008,-0.7988,-0.7988,-0.7988,-0.7487,-0.6883,-0.6129,-0.4422,-0.2594,-0.1146,-0.0398,0.0,0.0,0.0,0.0,0.0,0.0,0.0,0.0,0.0,0.0,0.0,0.0,0.0,0.0,0.0,0.0,0.0,0.0,0.0,0.0,0.0,0.0,0.0,0.0,0.0,0.0,0.0,0.0,0.0,0.0,0.0,0.0,0.0,0.0,0.0,0.0,0.0,0.0,0.0,0.0,0.0,0.0,0.0,0.0,0.0,0.0,0.0,0.0,0.0,0.0,0.0,0.0,0.0,0.0,0.0,0.0,0.0,0.0,0.0,0.0,-0.7988,-0.8224,-0.8808,-0.8788,-0.8916,-0.9245,-0.9591,-1.0056,-1.0649,-1.1026,-1.1369,-1.165,-1.0785,-1.0063,-0.9459,-0.893,-0.8554,-0.8313,-0.8194,-0.8052,-0.7988,0.0,0.0,0.0,0.0,0.0,0.0,0.0,0.0,0.0,0.0,0.0,0.0,0.0,0.0,0.0,-0.7988,-0.7988,-0.7995,-0.8032,-0.8092,-0.8092,-0.8092,-0.8153,-0.8204,-0.8153,-0.8093,-0.8113,-0.8184,-0.7937,-0.7428,-0.6718,-0.5502,-0.371,-0.0917,-0.0537,-0.0493,-0.0063,0.0,0.0,0.0,0.0,0.0,0.0,0.0,0.0,0.0,0.0,0.0,0.0,0.0,0.0,0.0,0.0,0.0,0.0,0.0,0.0,0.0,0.0,0.0,0.0,0.0,0.0,0.0,0.0,0.0,0.0,0.0,0.0,0.0,0.0,0.0,0.0,0.0,0.0,0.0,0.0,0.0,0.0,0.0,0.0,0.0,0.0,0.0,0.0,0.0,0.0,0.0,0.0,0.0,0.0,0.0,0.0,0.0,0.0,-0.7988,-0.818,-0.8503,-0.8777,-0.9317,-1.0164,-1.0215,-1.0521,-1.1183,-1.1697,-1.1925,-1.1799,-1.1043,-1.0368,-0.9774,-0.9459,-0.9001,-0.8465,-0.8455,-0.8292,-0.7988,-0.7988,0.0,0.0,0.0,0.0,0.0,0.0,0.0,0.0,0.0,0.0,0.0,0.0,0.0,-0.7988,-0.7988,-0.7988,-0.8022,-0.8214,-0.8255,-0.8255,-0.8255,-0.8153,-0.8073,-0.8391,-0.8448,-0.853,-0.876,-0.7621,-0.697,-0.8131,-0.7337,-0.5458,-0.2389,-0.222,-0.1931,-0.0262,0.0,0.0,0.0,0.0,0.0,0.0,0.0,0.0,0.0,0.0,0.0,0.0,0.0,0.0,0.0,0.0,0.0,0.0,0.0,0.0,0.0,0.0,0.0,0.0,0.0,0.0,0.0,0.0,0.0,0.0,0.0,0.0,0.0,0.0,0.0,0.0,0.0,0.0,0.0,0.0,0.0,0.0,0.0,0.0,0.0,0.0,0.0,0.0,0.0,0.0,0.0,0.0,0.0,0.0,0.0,0.0,0.0,0.0,-0.7988,-0.8204,-0.8747,-0.8964,-0.9405,-1.012,-1.0687,-1.1355,-1.2135,-1.2366,-1.2257,-1.1809,-1.088,-1.0175,-0.9666,-0.9181,-0.8838,-0.8611,-0.8428,-0.8286,-0.8174,-0.8029,-0.7988,0.0,0.0,0.0,0.0,0.0,0.0,0.0,0.0,-0.7988,-0.7988,-0.7988,-0.7988,-0.7988,-0.7988,-0.7988,-0.8002,-0.8109,-0.8126,-0.8126,-0.8126,-0.8032,-0.8093,-0.8533,-0.8625,-0.871,-0.9011,-0.8585,-0.7984,-0.7351,-0.6866,-0.5923,-0.4019,-0.3973,-0.36,-0.1929,-0.1674,-0.1273,-0.0133,0.0,0.0,0.0,0.0,0.0,0.0,0.0,0.0,0.0,0.0,0.0,0.0,0.0,0.0,0.0,0.0,0.0,0.0,0.0,0.0,0.0,0.0,0.0,0.0,0.0,0.0,0.0,0.0,0.0,0.0,0.0,0.0,0.0,0.0,0.0,0.0,0.0,0.0,0.0,0.0,0.0,0.0,0.0,0.0,0.0,0.0,0.0,0.0,0.0,0.0,0.0,0.0,0.0,0.0,-0.7988,-0.7988,-0.8214,-0.8771,-0.8933,-0.9361,-1.0107,-1.0907,-1.1687,-1.2447,-1.2542,-1.2281,-1.167,-1.0724,-1.009,-0.9724,-0.912,-0.8849,-0.8828,-0.8482,-0.8364,-0.8313,-0.8153,-0.8113,0.0,0.0,0.0,0.0,0.0,0.0,0.0,0.0,-0.7988,-0.7988,-0.7988,-0.7988,-0.7988,-0.7988,-0.7988,-0.7988,-0.7988,-0.7988,-0.7988,-0.7988,-0.8059,-0.8309,-0.8808,-0.8886,-0.896,-0.9354,-0.9344,-0.8834,-0.7553,-0.7325,-0.6917,-0.5671,-0.5716,-0.5305,-0.3657,-0.3451,-0.2771,-0.0981,-0.0785,-0.0583,-0.0063,0.0,0.0,0.0,0.0,0.0,0.0,0.0,0.0,0.0,0.0,0.0,0.0,0.0,0.0,0.0,0.0,0.0,0.0,0.0,0.0,0.0,0.0,0.0,0.0,0.0,0.0,0.0,0.0,0.0,0.0,0.0,0.0,0.0,0.0,0.0,0.0,0.0,0.0,0.0,0.0,0.0,0.0,0.0,0.0,0.0,0.0,0.0,0.0,0.0,0.0,0.0,-0.7988,-0.7988,-0.817,-0.8469,-0.8628,-0.9201,-1.0243,-1.085,-1.1379,-1.1833,-1.2138,-1.1976,-1.1369,-1.0626,-1.0195,-0.9957,-0.9418,-0.921,-0.9176,-0.8672,-0.8401,-0.8323,-0.8323,-0.8323,-0.8337,0.0,0.0,0.0,0.0,0.0,0.0,0.0,-0.7988,-0.7988,-0.7988,-0.7988,-0.7988,-0.7988,-0.7988,-0.7988,-0.7988,-0.7988,-0.7988,-0.7992,-0.8265,-0.8642,-0.9242,-0.9323,-0.9384,-0.9866,-0.9578,-0.9217,-0.9217,-0.9217,-0.8724,-0.7375,-0.7428,-0.7031,-0.5368,-0.4988,-0.4301,-0.2699,-0.2507,-0.1855,-0.019,0.0,0.0,0.0,0.0,0.0,0.0,0.0,0.0,0.0,0.0,0.0,0.0,0.0,0.0,0.0,0.0,0.0,0.0,0.0,0.0,0.0,0.0,0.0,0.0,0.0,0.0,0.0,0.0,0.0,0.0,0.0,0.0,0.0,0.0,0.0,0.0,0.0,0.0,0.0,0.0,0.0,0.0,0.0,0.0,0.0,0.0,0.0,0.0,0.0,0.0,0.0,-0.7988,-0.7988,-0.813,-0.8326,-0.8679,-0.8967,-0.9171,-0.9968,-1.0962,-1.2155,-1.203,-1.1606,-1.0904,-1.0259,-0.9822,-0.9571,-0.9395,-0.9198,-0.8981,-0.8628,-0.8459,-0.8411,-0.8364,-0.8323,-0.8337,0.0,0.0,0.0,0.0,0.0,0.0,0.0,0.0,0.0,-0.7988,-0.7988,-0.7988,-0.7988,-0.7988,-0.7988,-0.7988,-0.7988,-0.8015,-0.8174,-0.8425,-0.8774,-0.9269,-0.9429,-0.9615,-1.011,-0.9897,-0.9622,-0.9622,-0.9622,-0.9483,-0.9064,-0.9256,-0.8875,-0.71,-0.6821,-0.6137,-0.4366,-0.3165,-0.2332,-0.1801,-0.0683,0.0,0.0,0.0,0.0,0.0,0.0,0.0,0.0,0.0,0.0,0.0,0.0,0.0,0.0,0.0,0.0,0.0,0.0,0.0,0.0,0.0,0.0,0.0,0.0,0.0,0.0,0.0,0.0,0.0,0.0,0.0,0.0,0.0,0.0,0.0,0.0,0.0,0.0,0.0,0.0,0.0,0.0,-0.8177,-0.8177,0.0,0.0,0.0,0.0,0.0,0.0,0.0,-0.7988,-0.8109,-0.8313,-0.853,-0.8767,-0.8971,-0.9795,-1.0582,-1.1311,-1.1301,-1.0978,-1.0358,-1.0117,-0.9876,-0.9649,-0.971,-0.954,-0.9181,-0.8818,-0.8594,-0.8476,-0.8387,-0.8391,-0.8462,0.0,0.0,0.0,0.0,0.0,0.0,0.0,0.0,0.0,-0.7988,-0.7988,-0.7988,-0.7988,-0.7988,-0.7988,-0.7988,-0.8032,-0.8167,-0.8319,-0.8669,-0.911,-0.9622,-0.9852,-1.0053,-1.0388,-1.0164,-0.9947,-1.0066,-0.9897,-0.9795,-0.9975,-1.0056,-0.9738,-0.8709,-0.8483,-0.7775,-0.599,-0.4937,-0.4052,-0.3386,-0.1814,-0.0844,-0.0896,-0.0358,0.0,0.0,0.0,0.0,0.0,0.0,0.0,0.0,0.0,0.0,0.0,0.0,0.0,0.0,0.0,0.0,0.0,0.0,0.0,0.0,0.0,0.0,0.0,0.0,0.0,0.0,0.0,0.0,0.0,0.0,0.0,-0.8914,-0.8115,0.0,0.0,0.0,0.0,0.0,0.0,-0.7988,-0.7988,0.0,0.0,0.0,0.0,0.0,0.0,0.0,-0.7988,-0.8109,-0.8313,-0.8309,-0.8665,-0.9388,-1.0025,-1.0158,-0.9761,-1.0212,-1.0209,-0.9788,-1.0093,-1.0158,-0.9953,-1.0158,-0.9978,-0.9537,-0.9076,-0.8716,-0.8462,-0.8462,-0.8547,-0.8686,-0.8838,0.0,0.0,0.0,0.0,0.0,0.0,0.0,0.0,-0.7988,-0.7988,-0.7988,-0.7988,-0.7988,-0.7988,-0.7988,-0.8163,-0.8378,-0.8482,-0.8998,-0.9615,-1.0188,-1.0419,-1.0548,-1.0673,-1.0385,-1.0255,-1.0446,-1.0053,-0.9815,-1.0198,-1.0025,-0.988,-0.993,-0.989,-0.9137,-0.7497,-0.7184,-0.643,-0.487,-0.3344,-0.2406,-0.2402,-0.1055,-0.0176,-0.0176,-0.0058,0.0,0.0,0.0,0.0,0.0,0.0,0.0,0.0,0.0,0.0,0.0,0.0,0.0,0.0,0.0,0.0,0.0,0.0,0.0,0.0,0.0,0.0,0.0,0.0,0.0,0.0,0.0,0.0,-0.8069,-0.7897,0.0,0.0,0.0,0.0,0.0,0.0,0.0,0.0,0.0,0.0,0.0,0.0,0.0,0.0,0.0,-0.7988,-0.8109,-0.8313,-0.8608,-0.9035,-0.9551,-0.9371,-0.9279,-0.9354,-0.9744,-0.9798,-0.9483,-0.9781,-0.9842,-0.9707,-0.9737,-0.9568,-0.9272,-0.8652,-0.8377,-0.8368,-0.8368,-0.8336,-0.8381,-0.8526,-0.8469,0.0,0.0,0.0,0.0,0.0,0.0,0.0,-0.7988,-0.7988,-0.7988,-0.7988,-0.7988,-0.7988,-0.7988,-0.8235,-0.8503,-0.8774,-0.9469,-1.0181,-1.0541,-1.0649,-1.0646,-1.0558,-1.0561,-1.0558,-1.0504,-1.0388,-1.0256,-1.012,-0.998,-0.9869,-0.9734,-0.9676,-0.9479,-0.8971,-0.7716,-0.682,-0.6446,-0.4922,-0.4024,-0.4029,-0.2617,-0.1743,-0.1721,-0.0604,0.0,0.0,0.0,0.0,0.0,0.0,0.0,0.0,0.0,0.0,0.0,0.0,0.0,0.0,0.0,0.0,0.0,0.0,0.0,0.0,0.0,0.0,0.0,0.0,0.0,0.0,0.0,0.0,0.0,0.0,0.0,0.0,0.0,0.0,0.0,0.0,0.0,0.0,0.0,0.0,0.0,0.0,-0.7988,0.0,0.0,-0.7988,-0.814,-0.8364,-0.8872,-0.9161,-0.9178,-0.9089,-0.9008,-0.894,-0.9103,-0.9178,-0.9178,-0.9547,-0.9642,-0.9507,-0.9649,-0.9466,-0.9025,-0.8645,-0.8397,-0.8323,-0.8323,-0.8364,-0.8381,-0.8455,-0.8394,-0.8323,-0.8323,0.0,0.0,0.0,0.0,0.0,0.0,0.0,-0.7988,-0.7988,-0.7988,-0.7988,-0.7988,-0.8309,-0.8733,-0.9266,-0.993,-1.0422,-1.0575,-1.0666,-1.0656,-1.0436,-1.0568,-1.0673,-1.0521,-1.0436,-1.0314,-1.0024,-0.9869,-0.9785,-0.9632,-0.9547,-0.9442,-0.9347,-0.8513,-0.7967,-0.7852,-0.6472,-0.5518,-0.5481,-0.4047,-0.285,-0.2158,-0.139,-0.0642,0.0,0.0,0.0,0.0,0.0,0.0,0.0,0.0,0.0,0.0,0.0,0.0,0.0,0.0,0.0,0.0,0.0,0.0,0.0,0.0,0.0,0.0,0.0,0.0,0.0,0.0,0.0,0.0,0.0,0.0,0.0,0.0,0.0,0.0,0.0,0.0,0.0,0.0,0.0,-0.7988,0.0,0.0,0.0,0.0,-0.8015,-0.8211,-0.8509,-0.8998,-0.9113,-0.8794,-0.9006,-0.8944,-0.875,-0.857,-0.8652,-0.8984,-0.9384,-0.949,-0.9351,-0.9571,-0.9381,-0.8831,-0.8682,-0.8452,-0.8231,-0.8231,-0.8299,-0.8404,-0.8404,-0.8333,-0.8231,-0.8231,-0.8147,-0.7988,-0.7988,0.0,0.0,0.0,0.0,-0.7988,-0.7988,-0.7988,-0.7988,-0.7988,-0.8404,-0.8984,-0.9744,-1.0232,-1.0463,-1.0487,-1.0571,-1.0575,-1.0331,-1.0493,-1.0626,-1.0446,-1.0317,-1.0181,-0.994,-0.9768,-0.9591,-0.9537,-0.9422,-0.9286,-0.919,-0.9173,-0.9069,-0.8895,-0.7796,-0.7018,-0.6864,-0.5465,-0.4022,-0.2803,-0.2267,-0.1476,-0.037,-0.0106,0.0,0.0,0.0,0.0,0.0,0.0,0.0,0.0,0.0,0.0,0.0,0.0,0.0,0.0,0.0,0.0,0.0,0.0,0.0,0.0,0.0,0.0,0.0,0.0,0.0,0.0,0.0,0.0,0.0,0.0,0.0,0.0,0.0,-0.7988,-0.7988,0.0,0.0,0.0,-0.7988,-0.7988,0.0,-0.7988,0.0,0.0,-0.8665,-0.8757,-0.8893,-0.9146,-0.8804,-0.8682,-0.8854,-0.8621,-0.8703,-0.9183,-0.932,-0.933,-0.9234,-0.9096,-0.8885,-0.8713,-0.8251,-0.8056,-0.8019,-0.8019,-0.8032,-0.8049,-0.8049,-0.8035,-0.8019,-0.8019,-0.8008,-0.7988,-0.7988,-0.7988,0.0,0.0,0.0,-0.7988,-0.7988,-0.7988,-0.7988,-0.7988,-0.8557,-0.9272,-0.9724,-1.0083,-1.0341,-1.0463,-1.0412,-1.0327,-1.029,-1.0409,-1.0436,-1.0095,-1.0031,-0.9926,-0.9713,-0.9635,-0.9517,-0.9309,-0.9255,-0.913,-0.8984,-0.8967,-0.8905,-0.8885,-0.8596,-0.8402,-0.8386,-0.6929,-0.5916,-0.5747,-0.337,-0.1927,-0.1724,-0.061,0.0,0.0,0.0,0.0,0.0,0.0,0.0,0.0,0.0,0.0,0.0,0.0,0.0,0.0,0.0,0.0,0.0,0.0,0.0,0.0,0.0,0.0,0.0,0.0,0.0,0.0,0.0,0.0,0.0,0.0,0.0,0.0,0.0,0.0,-0.7988,0.0,0.0,0.0,0.0,0.0,0.0,-0.7988,-0.8102,0.0,-0.8455,-0.854,-0.8608,-0.8712,-0.8543,-0.8509,-0.8564,-0.8509,-0.8669,-0.9039,-0.9273,-0.9357,-0.92,-0.8913,-0.8726,-0.856,-0.8143,-0.7988,-0.7988,-0.7988,-0.7988,-0.7988,-0.7988,-0.7988,-0.7988,-0.7988,-0.7988,-0.7988,-0.7988,-0.7988,-0.7988,-0.7988,0.0,0.0,0.0,-0.7988,-0.8025,-0.8241,-0.8587,-0.9035,-0.9568,-0.9863,-1.0059,-1.0212,-1.0263,-1.0232,-1.0059,-1.0141,-1.0139,-1.0011,-0.9987,-0.9889,-0.9656,-0.9537,-0.9405,-0.9241,-0.9083,-0.9011,-0.8892,-0.8885,-0.8851,-0.8818,-0.875,-0.8642,-0.8476,-0.7817,-0.704,-0.6154,-0.4945,-0.3919,-0.3165,-0.1812,-0.1109,-0.1109,-0.0353,0.0,0.0,0.0,0.0,0.0,0.0,0.0,0.0,0.0,0.0,0.0,0.0,0.0,0.0,0.0,0.0,0.0,0.0,0.0,0.0,0.0,0.0,0.0,0.0,0.0,0.0,0.0,0.0,0.0,0.0,0.0,0.0,0.0,0.0,0.0,0.0,0.0,0.0,-0.7988,0.0,0.0,-0.8208,-0.8313,-0.8319,-0.8214,-0.8316,-0.8336,-0.8323,-0.8377,-0.8642,-0.9055,-0.9239,-0.9323,-0.9367,-0.9011,-0.8754,-0.8523,-0.8262,-0.8103,-0.8096,-0.8019,-0.7988,-0.7988,-0.7988,-0.7988,-0.7988,-0.7988,-0.7988,-0.7988,-0.7988,-0.7988,-0.7988,-0.7988,-0.7988,0.0,0.0,0.0,-0.8035,-0.8309,-0.8509,-0.8771,-0.9259,-0.949,-0.9646,0.0,0.0,-0.9941,-0.9747,-0.9798,-0.9818,-0.9818,-0.9852,-0.9839,-0.954,-0.9398,-0.9269,-0.912,-0.8974,-0.8824,-0.8824,-0.8845,-0.8777,-0.8662,-0.8618,-0.8509,-0.8337,-0.8235,-0.7702,-0.6587,-0.6179,-0.5525,-0.4518,-0.3215,-0.2364,-0.2013,-0.0656,0.0,0.0,0.0,0.0,0.0,0.0,0.0,0.0,0.0,0.0,0.0,0.0,0.0,0.0,0.0,0.0,0.0,0.0,0.0,0.0,0.0,0.0,0.0,0.0,0.0,0.0,0.0,0.0,0.0,0.0,0.0,0.0,-0.7988,-0.7988,-0.7988,-0.7988,-0.7988,0.0,0.0,0.0,0.0,-0.8002,-0.8008,0.0,-0.8002,-0.8008,-0.813,-0.8323,-0.833,-0.8652,-0.9354,-0.9282,-0.9388,-0.9774,-0.9479,-0.9106,-0.8686,-0.8526,-0.8459,-0.8435,-0.8153,-0.7988,-0.7988,-0.7988,-0.7988,-0.7988,-0.7988,-0.7988,-0.7988,-0.7988,-0.7988,-0.7988,-0.7988,-0.7988,-0.7988,0.0,0.0,0.0,-0.8008,-0.8272,0.0,-0.8713,-0.8872,-0.9003,0.0,0.0,-0.9306,-0.9378,-0.9412,-0.9415,-0.9415,-0.9534,-0.9534,-0.9282,-0.9228,-0.9117,-0.8971,-0.8818,-0.8723,-0.8723,-0.8594,-0.8503,-0.8496,-0.8374,-0.8337,-0.8323,-0.8133,-0.7998,-0.7889,-0.6681,-0.5979,-0.5879,-0.4618,-0.3265,-0.2013,-0.0656,0.0,0.0,0.0,0.0,0.0,0.0,0.0,0.0,0.0,0.0,0.0,0.0,0.0,0.0,0.0,0.0,0.0,0.0,0.0,0.0,0.0,0.0,0.0,0.0,0.0,0.0,0.0,0.0,0.0,0.0,0.0,0.0,0.0,-0.7988,-0.7988,-0.7988,-0.7988,0.0,0.0,0.0,0.0,-0.7988,-0.7988,-0.7988,-0.7988,-0.7988,-0.8015,-0.8123,-0.8221,-0.8455,-0.8808,-0.8947,-0.9103,-0.9192,-0.9144,-0.8954,-0.8686,-0.8343,-0.8197,-0.8187,-0.8032,-0.7988,-0.7988,-0.7988,-0.7988,-0.7988,-0.7988,-0.7988,-0.7988,-0.7988,-0.7988,-0.7988,-0.7988,-0.7988,-0.7988,-0.7988,-0.7988,-0.7988,-0.7988,-0.8066,0.0,-0.8503,-0.8604,-0.8723,-0.9028,-0.9055,-0.9055,-0.9262,-0.9292,-0.9208,-0.9113,-0.9296,-0.9395,-0.9245,-0.921,-0.9125,-0.8825,-0.8747,-0.8672,-0.8574,-0.8516,-0.8445,-0.8357,-0.835,-0.8231,-0.813,-0.8022,-0.7988,-0.7988,-0.7537,-0.7285,-0.7285,-0.5977,-0.4219,-0.2013,-0.1511,-0.0857,0.0,0.0,0.0,0.0,0.0,0.0,0.0,0.0,0.0,0.0,0.0,0.0,0.0,0.0,0.0,0.0,0.0,0.0,0.0,0.0,0.0,0.0,0.0,0.0,0.0,0.0,0.0,-0.8133,-0.818,0.0,0.0,0.0,0.0,-0.8096,-0.7995,-0.7988,-0.7988,-0.7988,-0.7988,-0.7988,-0.7988,-0.7988,-0.7988,-0.7988,-0.7988,-0.7988,-0.7988,-0.8143,-0.8316,-0.8564,-0.8713,-0.8866,-0.9005,-0.8852,-0.8784,-0.8764,-0.8362,-0.8184,-0.818,-0.8029,-0.7988,-0.8002,-0.815,-0.8076,-0.8002,-0.8103,-0.8073,-0.7988,-0.7988,-0.7988,-0.7988,-0.7988,-0.7988,-0.7988,-0.7988,-0.7988,-0.7988,-0.7988,-0.7988,-0.8049,-0.835,-0.8374,-0.8411,-0.8716,-0.875,-0.8754,-0.8954,-0.8982,-0.8899,-0.8804,-0.8947,-0.9045,-0.8999,-0.9026,-0.8916,-0.8669,-0.8591,-0.8526,-0.8425,-0.8364,-0.8296,-0.8204,-0.8194,-0.815,-0.7995,-0.7988,-0.7988,-0.7988,-0.7988,-0.7988,-0.7988,-0.6681,-0.5125,-0.3367,-0.2916,-0.2213,-0.136,-0.0907,-0.0907,-0.131,-0.0857,-0.0913,-0.1335,-0.1343,-0.0847,0.0,0.0,0.0,0.0,0.0,0.0,0.0,0.0,0.0,0.0,0.0,0.0,0.0,0.0,0.0,0.0,0.0,0.0,-0.8374,-0.8462,0.0,0.0,0.0,0.0,0.0,-0.8015,-0.7998,-0.7995,-0.7988,-0.7988,-0.7988,-0.7988,0.0,0.0,-0.7988,-0.7988,-0.7988,-0.7988,-0.7988,-0.8211,-0.8686,-0.8537,-0.8703,-0.9163,-0.8672,-0.8638,-0.8854,-0.8757,-0.8608,-0.8448,-0.8157,-0.7992,-0.8025,-0.836,-0.8289,-0.8025,-0.8364,-0.8282,-0.7988,-0.7988,-0.7988,-0.7988,-0.7988,-0.7988,-0.7988,-0.7988,-0.7988,-0.7988,0.0,0.0,0.0,-0.8225,-0.815,-0.8066,-0.8404,-0.8364,-0.8354,-0.8445,-0.8476,-0.8476,-0.8476,-0.8479,-0.8479,-0.8469,-0.8601,-0.8652,-0.8499,-0.8357,-0.832,-0.8316,-0.813,-0.7988,-0.7988,-0.7988,-0.7988,-0.7988,-0.7988,-0.7988,-0.7988,-0.7988,-0.7988,-0.7988,-0.6734,-0.6029,-0.5979,-0.4718,-0.4016,-0.3966,-0.2665,-0.2765,-0.3966,-0.2665,-0.2764,-0.4021,-0.399,-0.253,-0.0109,-0.0055,-0.0055,-0.0056,0.0,0.0,0.0,0.0,0.0,0.0,0.0,0.0,0.0,0.0,0.0,-0.8221,-0.8316,-0.8323,-0.8374,0.0,0.0,0.0,-0.8472,-0.8445,-0.8408,-0.8364,-0.8265,-0.816,-0.7995,-0.7988,-0.7988,-0.7988,-0.7988,-0.7988,-0.7988,-0.7988,-0.7988,-0.7988,-0.7988,-0.8052,-0.8174,-0.818,-0.8289,-0.8562,-0.8436,-0.8377,-0.8445,-0.8289,-0.8265,-0.8313,-0.8116,-0.8106,-0.8204,-0.8174,-0.8059,-0.8002,-0.8083,-0.8059,-0.7988,-0.7988,-0.7988,-0.7988,-0.7988,-0.7988,-0.7988,-0.7988,-0.7988,-0.7988,-0.7988,0.0,0.0,0.0,0.0,0.0,-0.8093,-0.8133,-0.8147,-0.8299,-0.8381,-0.8381,-0.8381,-0.8414,-0.8411,-0.8197,-0.8377,-0.8492,-0.835,-0.8347,-0.8231,-0.8116,-0.8015,-0.7988,-0.7988,-0.7988,-0.7988,-0.7988,-0.7988,-0.7988,-0.7988,-0.7988,-0.7988,-0.7988,-0.7637,-0.6983,-0.6029,-0.5627,-0.497,-0.4016,-0.3615,-0.3667,-0.3966,-0.3615,-0.3667,-0.4016,-0.3987,-0.3591,-0.2839,-0.1837,-0.1489,-0.151,-0.0392,0.0,0.0,0.0,0.0,0.0,0.0,0.0,-0.8136,-0.8136,-0.8313,-0.8455,-0.8455,-0.8455,-0.8482,0.0,0.0,0.0,-0.8567,-0.8635,-0.8598,-0.8411,-0.8371,-0.8204,-0.8002,-0.7988,-0.7988,-0.7988,-0.8102,-0.8136,-0.8136,-0.8136,-0.8136,-0.8136,-0.8022,-0.7988,-0.7988,-0.7988,-0.8089,-0.8174,-0.8174,-0.8174,-0.8167,-0.8029,-0.8092,-0.8167,-0.8025,-0.8133,-0.8275,-0.8306,-0.8279,-0.8241,-0.8319,-0.8322,-0.8299,-0.8177,-0.8092,-0.7988,-0.7988,-0.7988,-0.7988,-0.7988,-0.7988,-0.7988,-0.7988,-0.7988,-0.8005,-0.8119,0.0,0.0,-0.8123,-0.8035,-0.8015,-0.8153,-0.8174,-0.8174,-0.8174,-0.8241,-0.8241,-0.8019,-0.8184,-0.8269,-0.8184,-0.8174,-0.814,-0.8002,-0.7988,-0.7988,-0.7988,-0.7988,-0.7988,-0.7988,-0.7988,-0.7988,-0.7988,-0.7988,-0.7988,-0.7988,-0.7988,-0.7637,-0.6833,-0.6833,-0.6429,-0.5672,-0.512,-0.512,-0.5672,-0.507,-0.512,-0.567,-0.567,-0.5732,-0.5691,-0.4365,-0.3484,-0.2932,-0.2175,-0.1903,-0.1791,-0.1176,-0.0905,-0.0806,0.0,0.0,-0.8327,-0.8344,-0.854,-0.874,-0.8757,-0.8747,-0.8747,0.0,-0.8784,-0.8791,-0.8808,-0.8834,-0.8777,-0.8381,-0.835,-0.8204,-0.8002,-0.7988,-0.7995,-0.8015,-0.8197,-0.833,-0.8344,-0.8344,-0.8337,-0.8323,-0.8133,-0.8005,-0.7988,-0.7988,-0.7988,-0.7988,-0.7988,-0.7988,-0.7988,-0.7988,-0.7988,-0.7988,-0.7988,-0.8143,-0.8323,-0.8567,-0.8587,-0.8516,-0.8771,-0.8777,-0.8618,-0.834,-0.8153,-0.7988,-0.7988,-0.7988,-0.7988,-0.7988,-0.7988,-0.7988,-0.7988,-0.7988,-0.8022,-0.8211,-0.814,0.0,-0.8214,-0.814,-0.7988,-0.7988,-0.7988,-0.7988,-0.7988,-0.7988,-0.7988,-0.7988,-0.7988,-0.7988,-0.7988,-0.7988,-0.7988,-0.7988,-0.7988,-0.7988,-0.7988,-0.7988,-0.7988,-0.7988,-0.7988,-0.7988,-0.7988,-0.7988,-0.7988,-0.7988,-0.7988,-0.7988,-0.7988,-0.7988,-0.7988,-0.7988,-0.6783,-0.6833,-0.7939,-0.6781,-0.6883,-0.7988,-0.7988,-0.8126,-0.8228,-0.7052,-0.5729,-0.4473,-0.4497,-0.4526,-0.4359,-0.2961,-0.2482,-0.2234,-0.7988,-0.8163,-0.8357,-0.8421,-0.8693,-0.8933,-0.9105,-0.8967,-0.8981,-0.9218,-0.9252,-0.9296,-0.9422,-0.9137,-0.8848,-0.8815,-0.8479,-0.8204,-0.8002,-0.7988,-0.8096,-0.8221,-0.8255,-0.8374,-0.8438,-0.8442,-0.8384,-0.8323,-0.8241,-0.8163,-0.7988,-0.7988,-0.7988,-0.7988,-0.7988,-0.7988,-0.7988,-0.7988,-0.7988,-0.7988,-0.7988,-0.8201,-0.8435,-0.8377,-0.8408,-0.8476,-0.8421,-0.8381,-0.833,-0.8147,-0.8015,-0.7988,-0.7988,-0.7988,-0.7988,-0.7988,-0.7988,-0.7988,-0.7988,-0.7988,-0.7995,-0.8025,-0.8012,0.0,-0.8025,-0.8012,-0.7988,-0.7988,-0.7988,-0.7988,-0.7988,-0.7988,-0.7988,-0.7988,-0.7988,-0.7988,-0.7988,-0.7988,-0.7988,-0.7988,-0.7988,-0.7988,-0.7988,-0.7988,-0.7988,-0.7988,-0.7988,-0.7988,-0.7988,-0.7988,-0.7988,-0.7988,-0.7988,-0.7988,-0.7988,-0.7988,-0.7988,-0.7988,-0.7739,-0.7739,-0.7988,-0.7739,-0.7736,-0.7988,-0.7988,-0.8126,-0.8282,-0.8161,-0.7284,-0.5943,-0.4884,-0.4526,-0.447,-0.4134,-0.4032,-0.3836,-0.7988,-0.8163,-0.8368,-0.8459,-0.8733,-0.8988,-0.9187,-0.9093,-0.91,-0.9306,-0.9334,-0.9381,-0.9381,-0.9181,-0.8957,-0.873,-0.8442,-0.8204,-0.8002,-0.7988,-0.8022,-0.815,-0.8296,-0.8411,-0.8479,-0.8482,-0.8445,-0.8377,-0.8228,-0.8116,-0.7988,-0.7988,-0.7988,-0.7988,-0.7988,-0.7988,-0.7988,-0.7988,-0.7988,-0.7988,-0.7988,-0.8174,-0.837,-0.8347,-0.836,-0.8472,-0.8401,-0.8381,-0.832,-0.8262,-0.8214,-0.814,-0.8015,-0.8092,-0.814,-0.8012,-0.7988,-0.7988,-0.7988,-0.8096,-0.8136,-0.8008,-0.8099,0.0,0.0,-0.7988,-0.7988,-0.7988,-0.7988,-0.7988,-0.7988,-0.7988,-0.7988,-0.7988,-0.7988,-0.7988,-0.7988,-0.7988,-0.7988,-0.7988,-0.7988,-0.7988,-0.7988,-0.7988,-0.7988,-0.7988,-0.7988,-0.7988,-0.7988,-0.7988,-0.7988,-0.7988,-0.7988,-0.7988,-0.7988,-0.7988,-0.7988,-0.7988,-0.7988,-0.7988,-0.7988,-0.7988,-0.7988,-0.7988,-0.7988,-0.8126,-0.8333,-0.8425,-0.8143,-0.7522,-0.6932,-0.6702,-0.6589,-0.5864,-0.5586,-0.5388,-0.7988,-0.8187,-0.8357,-0.8503,-0.8777,-0.9028,-0.9231,-0.9228,-0.9221,-0.9251,-0.933,-0.9388,-0.935,-0.9238,-0.9011,-0.876,-0.8425,-0.8221,-0.8164,-0.8056,-0.8002,-0.8032,-0.8313,-0.8455,-0.8482,-0.8482,-0.8469,-0.8442,-0.8201,-0.8019,-0.7988,-0.7988,-0.7988,-0.7988,-0.7988,-0.7988,-0.7988,-0.7988,-0.7988,-0.7988,-0.7988,-0.8133,-0.8323,-0.8323,-0.836,-0.8482,-0.8482,-0.8408,-0.8381,-0.8442,-0.8387,-0.8252,-0.8153,-0.817,-0.8208,-0.8113,-0.8032,-0.8032,-0.8032,-0.8194,-0.8282,-0.8157,-0.8197,-0.8238,0.0,0.0,0.0,-0.7988,-0.7988,-0.7988,0.0,0.0,0.0,-0.7988,-0.7988,-0.7988,-0.7988,-0.7988,-0.7988,-0.7988,-0.7988,-0.7988,-0.7988,-0.7988,-0.7988,-0.7988,-0.7988,-0.7988,-0.7988,-0.7988,-0.7988,-0.7988,-0.7988,-0.7988,-0.7988,-0.7988,-0.7988,-0.7988,-0.7988,-0.7988,-0.7988,-0.7988,-0.7988,-0.7988,-0.7988,-0.8126,-0.8333,-0.8425,-0.857,-0.8726,-0.8824,-0.8885,-0.8771,-0.754,-0.7146,-0.6953,-0.7988,-0.8265,-0.8506,-0.8659,-0.893,-0.9234,-0.9334,-0.9299,-0.9258,-0.9337,-0.949,-0.9625,-0.9734,-0.9276,-0.9154,-0.9625,-0.8686,-0.8234,-0.8747,-0.8285,-0.8099,-0.8238,-0.8327,-0.8353,-0.8479,-0.8482,-0.8421,-0.8347,-0.8262,-0.8174,-0.7988,-0.7988,-0.7988,-0.7988,-0.7988,-0.7988,-0.7988,-0.7988,-0.7988,-0.7988,-0.7988,-0.8133,-0.8323,-0.8323,-0.836,-0.8482,-0.8482,-0.8472,-0.8462,-0.8476,-0.8387,-0.834,-0.8397,-0.8262,-0.8089,-0.8208,-0.8245,-0.8245,-0.8245,-0.835,-0.8455,-0.8435,-0.835,-0.8316,-0.8248,0.0,-0.7988,-0.7988,0.0,-0.7988,-0.7988,0.0,0.0,-0.7988,-0.7988,-0.7988,-0.7988,-0.7988,-0.7988,-0.7988,-0.7988,-0.7988,-0.7988,-0.7988,-0.7988,-0.7988,-0.7988,-0.7988,-0.7988,-0.7988,-0.7988,-0.7988,-0.7988,-0.7988,-0.7988,-0.7988,-0.7988,-0.7988,-0.7988,-0.7988,-0.7988,-0.7988,-0.7988,-0.7988,-0.7988,-0.8126,-0.8333,-0.8425,-0.857,-0.8726,-0.8824,-0.8885,-0.8881,-0.8716,-0.8657,-0.8455,-0.7988,-0.8089,-0.8299,-0.8537,-0.8682,-0.8927,-0.9255,-0.9415,-0.9534,-0.9517,-0.9642,-0.9754,-0.9815,-0.9449,-0.9296,-0.9544,-0.895,-0.8541,-0.8669,-0.836,-0.8163,-0.8136,-0.8221,-0.835,-0.836,-0.836,-0.833,-0.8323,-0.818,-0.8102,-0.7988,-0.7988,-0.7988,-0.7988,-0.7988,-0.8089,-0.8167,-0.8025,-0.8089,-0.8282,-0.8059,-0.818,-0.8384,-0.8354,-0.836,-0.8482,-0.8482,-0.8482,-0.8482,-0.8482,-0.8503,-0.852,-0.8489,-0.8455,-0.8408,-0.8303,-0.8381,-0.8374,-0.8344,-0.8438,-0.8594,-0.8506,-0.8506,-0.8503,-0.8414,-0.8279,-0.8174,-0.8174,0.0,0.0,0.0,0.0,0.0,0.0,-0.7988,-0.7988,-0.7988,0.0,-0.7988,-0.7988,-0.7988,-0.7988,-0.7988,-0.7988,-0.7988,-0.7988,-0.7988,-0.7988,-0.7988,-0.7988,-0.7988,-0.7988,-0.7988,-0.7988,-0.7988,-0.7988,-0.7988,-0.7988,-0.7988,-0.7988,-0.7988,-0.7988,-0.7988,-0.7988,-0.7988,-0.8126,-0.8333,-0.8425,-0.857,-0.8726,-0.8824,-0.8885,-0.8885,-0.8885,-0.8885,-0.8846,-0.7988,-0.8022,-0.817,-0.8387,-0.8489,-0.8669,-0.9039,-0.9371,-0.9557,-0.9493,-0.9574,-0.97,-0.9866,-0.9656,-0.9602,-0.9849,-0.9449,-0.9103,-0.8923,-0.8587,-0.8323,-0.8167,-0.8191,-0.8228,-0.832,-0.8231,-0.8208,-0.8208,-0.8096,-0.7988,-0.7988,-0.7988,-0.7988,-0.7992,-0.8032,-0.8167,-0.8316,-0.8191,-0.8286,-0.8462,-0.7782,-0.7428,-0.7405,-0.8069,-0.8418,-0.8547,-0.8547,-0.857,-0.8608,-0.8608,-0.8652,-0.8699,-0.8628,-0.8625,-0.8615,-0.8442,-0.8465,-0.8523,-0.8418,-0.8577,-0.8747,-0.8635,-0.8659,-0.8679,-0.857,-0.8431,-0.8381,-0.8381,-0.8208,0.0,0.0,0.0,-0.7988,-0.7988,0.0,-0.7988,-0.7988,-0.7988,-0.7988,-0.7988,-0.7988,-0.7988,-0.7988,-0.7988,-0.7988,-0.7988,-0.7988,-0.7988,-0.7988,-0.7988,-0.7988,-0.7988,-0.7988,-0.7988,-0.7988,-0.7988,-0.7988,-0.7988,-0.7988,-0.7988,-0.7988,-0.7988,-0.7988,-0.7988,-0.7988,-0.8102,-0.8221,-0.8408,-0.8547,-0.8665,-0.8807,-0.8885,-0.8885,-0.8885,-0.8885,-0.8898,-0.7988,-0.816,-0.832,-0.8327,-0.8513,-0.8757,-0.8865,-0.8902,-0.9015,-0.9207,-0.9228,-0.9395,-0.9916,-0.9839,-1.0158,-1.1029,-1.03,-0.9852,-1.0053,-0.9181,-0.8628,-0.8476,-0.8197,-0.8116,-0.832,-0.8123,-0.7995,-0.7995,-0.7992,-0.7988,-0.7988,-0.7988,-0.7988,-0.7995,-0.8197,-0.8316,-0.833,-0.8411,-0.8472,-0.8374,-0.6931,-0.5563,-0.4669,-0.7411,-0.857,-0.8703,-0.8703,-0.8798,-0.8868,-0.8868,-0.8828,-0.8733,-0.8824,-0.8723,-0.8516,-0.8655,-0.8699,-0.8703,-0.8699,-0.8811,-0.8875,-0.8868,-0.8815,-0.871,-0.8703,-0.8584,-0.8476,-0.8476,-0.8364,-0.8313,-0.8313,-0.814,-0.7988,-0.7988,-0.7988,0.0,0.0,-0.7988,-0.7988,-0.7988,-0.7988,-0.7988,-0.7988,-0.7988,-0.7988,-0.7988,-0.7988,-0.7988,-0.7988,-0.7988,-0.7988,-0.7988,-0.7988,-0.7988,-0.7988,-0.7988,-0.7988,-0.7988,-0.7988,-0.7988,-0.7988,-0.7988,-0.7988,-0.7988,-0.7988,-0.7992,-0.8019,-0.836,-0.8486,-0.852,-0.8821,-0.8885,-0.8885,-0.8885,-0.8885,-0.8885,-0.8174,-0.815,-0.815,-0.8252,-0.8353,-0.8503,-0.875,-0.9039,-0.9391,-0.9839,-0.9981,-1.0307,-1.1012,-1.0951,-1.0982,-1.1287,-1.0856,-1.0463,-1.0219,-0.9544,-0.9045,-0.8794,-0.8492,-0.8357,-0.8411,-0.8265,-0.8194,-0.8194,-0.8089,-0.7988,-0.7988,-0.7988,-0.7988,-0.7992,-0.8096,-0.8228,-0.8352,-0.7312,-0.702,-0.7187,-0.5709,-0.5397,-0.5856,-0.5701,-0.6379,-0.7251,-0.6256,-0.7224,-0.8771,-0.7762,-0.8066,-0.8814,-0.8868,-0.8814,-0.8774,-0.8723,-0.8781,-0.8838,-0.8737,-0.8821,-0.8885,-0.8885,-0.8844,-0.8807,-0.8807,-0.8743,-0.8632,-0.8632,-0.8516,-0.8381,-0.834,-0.8228,-0.816,-0.8005,-0.7988,-0.7988,0.0,-0.7988,-0.7988,-0.7988,-0.7988,-0.7988,-0.7988,-0.7988,-0.7988,-0.7988,-0.7988,-0.7988,-0.7988,-0.7988,-0.7988,-0.7988,-0.7988,-0.7988,-0.7988,-0.7988,-0.7988,-0.7988,-0.7988,-0.7988,-0.7988,-0.7988,-0.7988,-0.7988,-0.7988,-0.8099,-0.8208,-0.8401,-0.854,-0.8655,-0.8804,-0.8885,-0.8885,-0.8885,-0.8885,-0.8912,-0.817,-0.8153,-0.8153,-0.8252,-0.8364,-0.8445,-0.8747,-0.9215,-0.9676,-1.0066,-1.0385,-1.0839,-1.1545,-1.1531,-1.1538,-1.1697,-1.1436,-1.1002,-1.0395,-0.9944,-0.952,-0.9113,-0.8855,-0.8774,-0.8774,-0.8526,-0.8401,-0.8347,-0.8194,-0.8123,-0.8123,-0.8015,-0.7988,-0.7992,-0.8096,-0.7945,-0.7629,-0.6592,-0.6088,-0.5808,-0.4301,-0.3911,-0.4185,-0.3092,-0.4386,-0.6585,-0.5039,-0.5697,-0.7204,-0.6255,-0.6924,-0.8097,-0.8097,-0.8491,-0.8865,-0.8821,-0.8807,-0.8861,-0.8818,-0.8807,-0.8885,-0.8885,-0.8885,-0.8885,-0.8885,-0.8807,-0.8791,-0.8791,-0.8669,-0.852,-0.8374,-0.8354,-0.8218,-0.8015,-0.7988,-0.7988,0.0,-0.7988,-0.7988,-0.7988,-0.7988,-0.7988,-0.7988,-0.7988,-0.7988,-0.7988,-0.7988,-0.7988,-0.7988,-0.7988,-0.7988,-0.7988,-0.7988,-0.7988,-0.7988,-0.7988,-0.7988,-0.7988,-0.7988,-0.7988,-0.7988,-0.7988,-0.8019,-0.8123,-0.8123,-0.8208,-0.8357,-0.8503,-0.8621,-0.8726,-0.8824,-0.8885,-0.8885,-0.8885,-0.8971,-0.9052,-0.8008,-0.8187,-0.8344,-0.8344,-0.8404,-0.8591,-0.8828,-0.9435,-0.9836,-0.9873,-1.0409,-1.1012,-1.1609,-1.1681,-1.1853,-1.2264,-1.202,-1.1477,-1.0616,-1.0395,-1.0042,-0.9462,-0.9333,-0.9241,-0.9231,-0.8882,-0.8659,-0.8506,-0.8347,-0.8323,-0.832,-0.8113,-0.7988,-0.7895,-0.8201,0.0,-0.6207,-0.6319,-0.5553,-0.4136,-0.2682,-0.1288,-0.0112,-0.0056,-0.2766,-0.6445,-0.4832,-0.4414,-0.4582,-0.4528,-0.553,-0.6813,-0.6813,-0.7762,-0.8885,-0.8885,-0.8888,-0.8892,-0.8885,-0.8888,-0.8892,-0.8885,-0.8885,-0.8885,-0.8885,-0.8885,-0.8885,-0.8885,-0.8821,-0.8676,-0.852,-0.8377,-0.8231,-0.8025,-0.7995,-0.7988,-0.7988,-0.7988,-0.7988,-0.7988,-0.7988,-0.7988,-0.7988,-0.7988,-0.7988,-0.7988,-0.7988,-0.7988,-0.7988,-0.7988,-0.7988,-0.7988,-0.7988,-0.7988,-0.7988,-0.7988,-0.7988,-0.7988,-0.7988,-0.7992,-0.8002,-0.8002,-0.8136,-0.8333,-0.8333,-0.8364,-0.8506,-0.8652,-0.8716,-0.8737,-0.8828,-0.8885,-0.8885,-0.8885,-0.9025,-0.9221,-0.8323,-0.8492,-0.8598,-0.8598,-0.8628,-0.8679,-0.8757,-0.9367,-1.0022,-1.052,-1.1277,-1.1901,-1.2393,-1.2549,-1.2573,-1.2457,-1.2176,-1.1857,-1.1511,-1.0934,-1.0487,-1.0219,-0.9849,-0.9598,-0.9496,-0.9195,-0.8967,-0.8821,-0.8452,-0.8323,-0.832,-0.8113,-0.7484,-0.6587,0.0,-0.699,-0.4725,-0.4755,-0.3411,-0.112,-0.0728,-0.1072,-0.1708,-0.045,-0.1526,-0.3427,-0.1745,-0.3297,-0.5975,-0.4862,-0.6197,-0.8322,-0.8322,-0.8602,-0.8885,-0.8885,-0.9015,-0.9076,-0.8967,-0.9018,-0.9072,-0.8908,-0.8885,-0.8885,-0.8885,-0.8885,-0.8885,-0.8885,-0.8851,-0.8832,-0.8679,-0.853,-0.8381,-0.8235,-0.8113,-0.7988,-0.7988,-0.7988,-0.7988,-0.7988,-0.7988,-0.7988,-0.7988,-0.7988,-0.7988,-0.7988,-0.7988,-0.7988,-0.7988,-0.7988,-0.7988,-0.7988,-0.7988,-0.7988,-0.7988,-0.7988,-0.7988,-0.7988,-0.7988,-0.8099,-0.8211,-0.8211,-0.8289,-0.8428,-0.8428,-0.8513,-0.8655,-0.8696,-0.8777,-0.8828,-0.8868,-0.8885,-0.8885,-0.8885,-0.8905,-0.9015,-0.8357,-0.8618,-0.8811,-0.8811,-0.9025,-0.9174,-0.9113,-0.9513,-1.0046,-1.0666,-1.1402,-1.1989,-1.2305,-1.2535,-1.2623,-1.2511,-1.2169,-1.1813,-1.1396,-1.1111,-1.0761,-1.0415,-1.0158,-0.992,-0.9707,-0.9408,-0.9117,-0.8838,-0.7933,-0.7808,-0.8265,0.0,0.0,0.0,0.0,-0.559,-0.4143,-0.3597,-0.2051,0.0,0.0,-0.0564,0.0,-0.0337,-0.0564,-0.136,-0.1067,-0.2571,-0.4634,-0.3798,-0.547,-0.7931,-0.7931,-0.838,-0.8895,-0.9015,-0.9045,-0.9069,-0.912,-0.9096,-0.9055,-0.9035,-0.8984,-0.8885,-0.8885,-0.8885,-0.8885,-0.8885,-0.8885,-0.8838,-0.8737,-0.8638,-0.8533,-0.8387,-0.8289,-0.8211,-0.815,-0.814,-0.8116,-0.7998,-0.7988,-0.7988,-0.7988,-0.7988,-0.7988,-0.7988,-0.7988,-0.7988,-0.7988,-0.7988,-0.7988,-0.7988,-0.8106,-0.8109,-0.7988,-0.8106,-0.814,-0.814,-0.814,-0.8218,-0.8364,-0.8364,-0.8442,-0.8581,-0.8581,-0.8669,-0.8811,-0.8811,-0.8807,-0.8885,-0.8885,-0.8885,-0.8892,-0.9008,-0.9032,-0.9045,-0.8319,-0.8672,-0.8905,-0.8888,-0.9412,-0.9771,-0.9707,-0.9866,-1.0137,-1.0527,-1.1236,-1.1745,-1.185,-1.2118,-1.2325,-1.2406,-1.204,-1.1504,-1.0975,-1.1087,-1.0904,-1.0388,-1.0331,-1.0164,-0.9859,-0.9561,-0.9134,-0.8463,-0.7331,-0.7093,-0.7696,0.0,0.0,0.0,0.0,0.0,0.0,-0.2481,-0.1175,0.0,0.0,0.0,0.0,0.0,0.0,-0.0169,-0.1683,-0.2352,-0.2516,-0.2744,-0.4704,-0.7004,-0.7022,-0.7914,-0.8994,-0.9197,-0.9096,-0.9052,-0.931,-0.9208,-0.9045,-0.9187,-0.9059,-0.8905,-0.8888,-0.8885,-0.8885,-0.8885,-0.8885,-0.8844,-0.8764,-0.8723,-0.8659,-0.8506,-0.8482,-0.8438,-0.8368,-0.8333,-0.8221,-0.8035,-0.8002,0.0,-0.7988,-0.7988,-0.7988,-0.7988,-0.7988,-0.7988,-0.7988,-0.7988,-0.7988,-0.7988,-0.817,-0.8184,-0.8022,-0.8204,-0.833,-0.835,-0.835,-0.8374,-0.8513,-0.8513,-0.8598,-0.874,-0.874,-0.8815,-0.8885,-0.8885,-0.8885,-0.8885,-0.8905,-0.8912,-0.8981,-0.9163,-0.9221,-0.9234,-0.8584,-0.8893,-0.9079,-0.8905,-0.933,-0.9764,-1.011,-1.0599,-1.0955,-1.1104,-1.1704,-1.2132,-1.2033,-1.2182,-1.2199,-1.1969,-1.1769,-1.1558,-1.1328,-1.1107,-1.0941,-1.0769,-1.0588,-1.0314,-0.9953,-0.972,-0.8817,-0.7216,-0.7858,-0.7038,-0.4953,-0.542,0.0,0.0,0.0,0.0,-0.2447,-0.1,0.0,0.0,0.0,0.0,0.0,0.0,0.0,-0.0229,-0.1884,-0.3167,-0.4311,-0.5612,-0.7288,-0.8794,-0.8915,-0.9044,-0.92,-0.9296,-0.9323,-0.9317,-0.9367,-0.9435,-0.9435,-0.9265,-0.919,-0.9086,-0.8964,-0.8885,-0.8885,-0.8885,-0.8885,-0.8875,-0.8848,-0.8794,-0.8659,-0.8506,-0.8482,-0.8472,-0.8448,-0.8343,-0.831,-0.8235,-0.8116,-0.7988,-0.7988,-0.7988,-0.7988,-0.7988,-0.7988,-0.7988,-0.7988,-0.7988,-0.7988,-0.7988,-0.8015,-0.813,-0.8231,-0.8306,-0.8381,-0.8445,-0.8445,-0.8523,-0.8669,-0.8669,-0.8754,-0.8844,-0.8844,-0.8858,-0.8885,-0.8885,-0.8885,-0.8895,-0.9069,-0.9173,-0.9176,-0.92,-0.9292,-0.9323,-0.9015,-0.9174,-0.93,-0.9381,-0.9768,-1.0195,-1.0571,-1.1067,-1.1314,-1.1084,-1.1433,-1.165,-1.1501,-1.1759,-1.185,-1.1623,-1.1467,-1.1321,-1.1172,-1.0961,-1.0847,-1.0766,-1.0541,-1.028,-1.0056,-0.8894,-0.8199,-0.7925,-0.6146,-0.5252,-0.5259,-0.365,-0.2565,-0.2015,0.0,-0.2396,0.0,0.0,-0.0672,0.0,0.0,0.0,0.0,0.0,0.0,-0.0291,-0.2784,-0.4038,-0.4875,-0.647,-0.8051,-0.9344,-0.9357,-0.933,-0.9303,-0.9456,-0.9442,-0.9415,-0.9568,-0.9551,-0.9473,-0.9408,-0.9326,-0.9214,-0.9164,-0.9049,-0.8905,-0.9035,-0.8991,-0.8885,-0.8885,-0.8824,-0.8804,-0.873,-0.872,-0.8693,-0.8611,-0.854,-0.8442,-0.834,-0.8204,-0.813,-0.7995,-0.7988,-0.7988,-0.7988,-0.7988,-0.7988,-0.7988,-0.7988,-0.7988,-0.7988,-0.8187,-0.8269,-0.8323,-0.8421,-0.8533,-0.8601,-0.8601,-0.8679,-0.8828,-0.8828,-0.8814,-0.8885,-0.8885,-0.8885,-0.8885,-0.8885,-0.8984,-0.9055,-0.9183,-0.9258,-0.934,-0.9361,-0.9388,-0.9361,-0.9401,-0.9479,-0.9595,-0.9829,-1.027,-1.067,-1.0843,-1.1331,-1.1491,-1.1069,-1.1162,-1.1168,-1.0985,-1.1331,-1.146,-1.1311,-1.1185,-1.1056,-1.0843,-1.0833,-1.0779,-1.0724,-1.011,-0.9693,-0.9548,-0.7589,-0.6887,-0.7479,-0.4241,-0.3444,-0.4901,-0.1836,-0.0812,0.0,0.0,0.0,-0.0055,-0.1223,-0.1066,0.0,0.0,0.0,-0.0058,-0.0404,-0.0525,-0.0946,-0.4126,-0.5254,-0.5505,-0.7159,-0.8448,-0.9435,-0.9466,-0.9452,-0.9459,-0.9608,-0.9547,-0.9486,-0.9751,-0.9652,-0.9496,-0.9588,-0.9429,-0.933,-0.9361,-0.9201,-0.9055,-0.9193,-0.9062,-0.8984,-0.8984,-0.8984,-0.8974,-0.8888,-0.8885,-0.8841,-0.8774,-0.873,-0.8611,-0.8347,-0.834,-0.8211,-0.8005,-0.7988,-0.7988,-0.7988,-0.7988,-0.7988,-0.7988,-0.7988,-0.7988,-0.7988,-0.8299,-0.8397,-0.8368,-0.8577,-0.8726,-0.876,-0.876,-0.8821,-0.8885,-0.8885,-0.8885,-0.8885,-0.8885,-0.8885,-0.8885,-0.8971,-0.9052,-0.9217,-0.9282,-0.9323,-0.9445,-0.9564,-0.9551,-0.9452,-0.9557,-0.9802,-0.9933,-0.996,-1.0449,-1.0847,-1.0877,-1.1331,-1.1603,-1.1562,-1.1447,-1.1365,-1.1352,-1.1263,-1.1148,-1.0934,-1.0911,-1.0836,-1.0751,-1.0741,-1.0734,-1.0721,-0.8995,-0.7967,-0.7848,-0.5904,-0.4216,-0.2849,-0.362,-0.2824,-0.0622,-0.1447,-0.124,-0.0207,-0.0215,-0.0109,0.0,-0.0167,-0.0113,0.0,0.0,0.0,-0.0176,-0.1701,-0.225,-0.27,-0.599,-0.7128,-0.739,-0.8981,-0.9573,-0.9612,-0.9741,-0.9693,-0.9615,-0.9758,-0.97,-0.9622,-0.9778,-0.9802,-0.9751,-0.9639,-0.9588,-0.9534,-0.9408,-0.9361,-0.9303,-0.9234,-0.92,-0.919,-0.919,-0.919,-0.9089,-0.8905,-0.8885,-0.8878,-0.8865,-0.8798,-0.8648,-0.8482,-0.8398,-0.8211,-0.8005,-0.7988,-0.7988,-0.7988,-0.7988,-0.7988,-0.7988,-0.7988,-0.7988,-0.7988,-0.8204,-0.8347,-0.8462,-0.8628,-0.8781,-0.8861,-0.8861,-0.8868,-0.8885,-0.8885,-0.8885,-0.8885,-0.8885,-0.8885,-0.8895,-0.9079,-0.9197,-0.9238,-0.9459,-0.9578,-0.9591,-0.9605,-0.9683,-0.9758,-0.9998,-1.0032,-1.0071,-1.0341,-1.0649,-1.0904,-1.1172,-1.1447,-1.1586,-1.1494,-1.143,-1.1324,-1.1145,-1.107,-1.0975,-1.0756,-1.0812,-1.0785,-1.0724,-0.9709,-0.9105,-0.9105,-0.7233,-0.6145,-0.6108,-0.4291,-0.3512,-0.3677,-0.2326,-0.1551,-0.1304,-0.0958,-0.053,0.0,0.0,0.0,0.0,0.0,0.0,0.0,0.0,-0.0588,-0.155,-0.2265,-0.3127,-0.4264,-0.6568,-0.7385,-0.7667,-0.9265,-0.9785,-0.9747,-0.9802,-0.9781,-0.9747,-0.9805,-0.9781,-0.9747,-0.9805,-0.9822,-0.9805,-0.9751,-0.9673,-0.9615,-0.9639,-0.9507,-0.9391,-0.9418,-0.9354,-0.932,-0.9228,-0.921,-0.919,-0.9076,-0.8994,-0.8885,-0.8885,-0.8831,-0.8757,-0.8513,-0.8431,-0.8303,-0.8012,-0.7988,-0.7988,-0.7988,-0.7988,-0.7988,-0.7988,-0.7988,-0.8032,-0.8174,-0.8323,-0.8469,-0.8618,-0.8771,-0.8824,-0.8885,-0.8885,-0.8885,-0.8885,-0.8885,-0.8885,-0.8885,-0.8885,-0.8988,-0.9072,-0.9187,-0.932,-0.9439,-0.9561,-0.9663,-0.9737,-0.9737,-0.9771,-0.9812,-1.0334,-1.029,-1.0297,-1.0724,-1.0822,-1.0958,-1.1274,-1.1416,-1.143,-1.128,-1.126,-1.1179,-1.0904,-1.084,-1.0769,-1.0727,-1.0721,-1.0452,-0.9911,-0.8701,-0.7764,-0.7231,-0.5432,-0.4386,-0.4367,-0.267,-0.2247,-0.3305,-0.1106,-0.0513,-0.1523,-0.0496,0.0,0.0,0.0,0.0,0.0,0.0,-0.0292,-0.0711,-0.0711,-0.1733,-0.3268,-0.375,-0.4626,-0.5833,-0.7484,-0.8097,-0.8282,-0.939,-0.9822,-0.9822,-0.9822,-0.9822,-0.9822,-0.9822,-0.9822,-0.9822,-0.9822,-0.9822,-0.9822,-0.9822,-0.9744,-0.9696,-0.9798,-0.9659,-0.954,-0.9649,-0.9517,-0.9347,-0.9299,-0.9241,-0.9197,-0.9096,-0.9005,-0.8885,-0.8885,-0.8885,-0.8825,-0.852,-0.8482,-0.8364,-0.8019,-0.7988,-0.7988,-0.7988,-0.7988,-0.7988,-0.7988,-0.8032,-0.8157,-0.832,-0.8452,-0.8601,-0.871,-0.8807,-0.8885,-0.8885,-0.8885,-0.8885,-0.8885,-0.8885,-0.8905,-0.9001,-0.9001,-0.9086,-0.9279,-0.9326,-0.9415,-0.9612,-0.9656,-0.9734,-0.9822,-0.9822,-0.9822,-0.9822,-1.0463,-1.0609,-1.0761,-1.085,-1.1063,-1.1227,-1.1234,-1.1165,-1.1118,-1.0904,-1.0887,-1.0884,-1.088,-1.0812,-1.0721,-1.0721,-1.0721,-0.9911,-0.8163,-0.803,-0.7231,-0.5498,-0.3705,-0.2741,-0.2701,-0.0953,-0.0062,-0.006,0.0,0.0,0.0,0.0,0.0,0.0,0.0,0.0,0.0,0.0,-0.095,-0.2465,-0.2465,-0.3458,-0.5037,-0.6686,-0.736,-0.7606,-0.9204,-0.9758,-0.9758,-0.9822,-0.9822,-0.9822,-0.9822,-0.9822,-0.9822,-0.9822,-0.9822,-0.9822,-0.9822,-0.9822,-0.9822,-0.9822,-0.9819,-0.9819,-0.9822,-0.9819,-0.9815,-0.9819,-0.9585,-0.9381,-0.9381,-0.9313,-0.9163,-0.8964,-0.8885,-0.8885,-0.8885,-0.8885,-0.8825,-0.852,-0.8482,-0.8364,-0.8019,-0.7988,-0.7988,-0.7988,-0.7988,-0.7988,-0.7988,-0.8184,-0.832,-0.8323,-0.8557,-0.871,-0.871,-0.8807,-0.8885,-0.8885,-0.8885,-0.8885,-0.8885,-0.8885,-0.9015,-0.9207,-0.9207,-0.9296,-0.9391,-0.954,-0.9605,-0.9625,-0.9764,-0.9819,-0.9822,-0.9822,-0.9822,-0.9822,-1.0639,-1.0687,-1.0734,-1.0785,-1.0917,-1.1016,-1.1016,-1.1101,-1.1111,-1.09,-1.088,-1.088,-1.088,-1.0812,-1.0721,-1.0721,-1.0721,-1.0452,-0.9911,-0.7567,-0.5964,-0.5431,-0.2516,-0.085,-0.0838,-0.0318,0.0,0.0,0.0,0.0,0.0,0.0,0.0,0.0,0.0,0.0,0.0,0.0,-0.0302,-0.0918,-0.2017,-0.349,-0.51,-0.675,-0.8097,-0.9083,-0.9636,-0.9822,-0.9822,-0.9822,-0.9822,-0.9822,-0.9822,-0.9822,-0.9822,-0.9822,-0.9822,-0.9822,-0.9822,-0.9822,-0.9822,-0.9822,-0.9822,-0.9822,-0.9822,-0.9822,-0.9791,-0.9696,-0.968,-0.9622,-0.9418,-0.934,-0.9259,-0.911,-0.9001,-0.8885,-0.8885,-0.8885,-0.8807,-0.8662,-0.8638,-0.856,-0.836,-0.8255,-0.8197,-0.8197,-0.8099,-0.8035,-0.8191,-0.8245,-0.8364,-0.8564,-0.8662,-0.876,-0.8811,-0.8858,-0.8885,-0.8885,-0.8885,-0.8885,-0.8888,-0.9042,-0.9166,-0.9214,-0.932,-0.9395,-0.954,-0.9591,-0.9666,-0.9758,-0.9802,-0.9822,-0.9822,-0.9822,-0.9822,-0.9822,-1.0721,-1.0721,-1.0721,-1.0721,-1.0799,-1.0796,-1.0796,-1.0938,-1.0965,-1.0806,-1.0796,-1.0796,-1.0796,-1.0778,-1.0744,-1.0802,-1.0755,-1.0382,-0.9709,-0.6967,-0.5095,-0.4426,-0.1599,0.0,0.0,0.0,0.0,0.0,0.0,0.0,0.0,0.0,0.0,0.0,0.0,0.0,-0.0061,-0.0669,-0.1283,-0.1971,-0.3689,-0.5282,-0.6877,-0.7914,-0.8897,-0.9822,-0.9822,-0.9822,-0.9822,-0.9822,-0.9822,-0.9822,-0.9822,-0.9822,-0.9822,-0.9822,-0.9822,-0.9822,-0.9822,-0.9822,-0.9822,-0.9822,-0.9822,-0.9822,-0.9822,-0.9822,-0.9795,-0.9707,-0.9717,-0.9686,-0.95,-0.9371,-0.932,-0.9224,-0.9032,-0.8885,-0.8885,-0.8885,-0.8828,-0.8726,-0.871,-0.8652,-0.8496,-0.8404,-0.835,-0.835,-0.8262,-0.8272,-0.8428,-0.8381,-0.8462,-0.8703,-0.8767,-0.8842,-0.8881,-0.8885,-0.8885,-0.8885,-0.8994,-0.9018,-0.9025,-0.9171,-0.9326,-0.933,-0.9425,-0.9551,-0.969,-0.969,-0.9741,-0.9822,-0.9822,-0.9822,-0.9822,-0.9822,-0.9822,-0.9822,-1.0721,-1.0721,-1.0721,-1.0721,-1.0721,-1.0721,-1.0721,-1.0721,-1.0721,-1.0721,-1.0721,-1.0724,-1.0734,-1.0727,-1.0782,-1.0867,-1.0809,-0.9978,-0.8299,-0.6431,-0.4628,-0.2953,-0.1008,0.0,0.0,0.0,0.0,0.0,0.0,0.0,0.0,0.0,0.0,0.0,0.0,0.0,-0.0123,-0.1787,-0.3383,-0.4916,-0.6689,-0.8282,-0.9636,-0.9758,-0.9822,-0.9822,-0.9822,-0.9822,-0.9822,-0.9832,-0.9829,-0.9822,-0.9832,-0.9829,-0.9822,-0.9822,-0.9822,-0.9822,-0.9822,-0.9822,-0.9822,-0.9822,-0.9822,-0.9822,-0.9822,-0.9822,-0.9822,-0.9822,-0.9717,-0.9622,-0.9612,-0.9374,-0.9234,-0.9214,-0.9042,-0.8895,-0.8885,-0.8885,-0.8831,-0.8743,-0.8726,-0.8669,-0.8526,-0.8506,-0.8499,-0.8499,-0.8486,-0.855,-0.8703,-0.8574,-0.8567,-0.872,-0.8811,-0.8885,-0.8885,-0.8885,-0.8888,-0.8898,-0.91,-0.9224,-0.9231,-0.9327,-0.9473,-0.9608,-0.9618,-0.97,-0.9822,-0.9822,-0.9822,-0.9822,-0.9822,-0.9822,-0.9822,-0.9822,-0.9822,-0.9822,-1.0721,-1.0721,-1.0721,-1.0721,-1.0721,-1.0721,-1.0721,-1.0721,-1.0721,-1.0721,-1.0721,-1.0765,-1.0813,-1.0792,-1.0782,-1.0867,-1.0809,-1.0518,-1.0114,-0.7167,-0.5228,-0.4762,-0.168,0.0,0.0,0.0,0.0,0.0,0.0,0.0,0.0,0.0,0.0,0.0,0.0,0.0,-0.0123,-0.1787,-0.2708,-0.3322,-0.6259,-0.7606,-0.8097,-0.9329,-0.9822,-0.9822,-0.9822,-0.9822,-0.9839,-0.9896,-0.9856,-0.9842,-0.9896,-0.9856,-0.9822,-0.9822,-0.9822,-0.9822,-0.9822,-0.9822,-0.9822,-0.9822,-0.9822,-0.9822,-0.9822,-0.9822,-0.9822,-0.9822,-0.9795,-0.9737,-0.9629,-0.9551,-0.9425,-0.9248,-0.918,-0.9062,-0.8898,-0.8885,-0.8868,-0.8834,-0.8828,-0.8814,-0.8832,-0.8723,-0.8655,-0.8655,-0.855,-0.855,-0.8703,-0.8676,-0.8726,-0.8824,-0.8865,-0.8885,-0.8885,-0.8885,-0.8994,-0.9103,-0.9256,-0.9327,-0.9334,-0.9486,-0.9574,-0.9615,-0.9724,-0.9788,-0.9822,-0.9822,-0.9822,-0.9822,-0.9822,-0.9822,-0.9822,-0.9822,-0.9822,-0.9822,-1.0721,-1.0721,-1.0721,-1.0721,-1.0721,-1.0721,-1.0721,-1.0721,-1.0721,-1.0721,-1.0721,-1.0751,-1.0766,-1.0768,-1.0755,-1.0769,-1.0768,-1.0721,-1.0721,-0.8102,-0.6231,-0.5431,-0.2752,-0.0871,0.0,0.0,0.0,0.0,0.0,0.0,0.0,0.0,0.0,-0.0063,-0.0875,-0.125,-0.1384,-0.3891,-0.4873,-0.5031,-0.7684,-0.8673,-0.8688,-0.9689,-0.9988,-0.9872,-1.0005,-0.9985,-0.9886,-1.0103,-1.01,-1.0032,-0.9984,-0.993,-0.9852,-0.9842,-0.9822,-0.9822,-0.9822,-0.9822,-0.9822,-0.9822,-0.9822,-0.9822,-0.9822,-0.9822,-0.9822,-0.9822,-0.9822,-0.9798,-0.972,-0.9652,-0.9534,-0.9354,-0.9255,-0.9103,-0.8902,-0.8885,-0.8908,-0.9028,-0.9035,-0.9035,-0.9035,-0.896,-0.8886,-0.8818,-0.8737,-0.8726,-0.8811,-0.8815,-0.8797,-0.8881,-0.8885,-0.8971,-0.9035,-0.9106,-0.9181,-0.9316,-0.9412,-0.9486,-0.949,-0.9639,-0.9707,-0.971,-0.9788,-0.9822,-0.9822,-0.9822,-0.9822,-0.9822,-0.9822,-0.9822,-0.9822,-0.9822,-0.9822,-0.9822,-1.0751,-1.0755,-1.0755,-1.0755,-1.0755,-1.0748,-1.0724,-1.0721,-1.0721,-1.0721,-1.0721,-1.0721,-1.0721,-1.0721,-1.0721,-1.0721,-1.0721,-1.0721,-1.0721,-0.9039,-0.7365,-0.583,-0.3823,-0.1948,-0.0471,-0.0135,0.0,0.0,0.0,0.0,0.0,0.0,0.0,-0.0065,-0.1906,-0.2669,-0.2892,-0.6353,-0.7709,-0.7817,-0.9586,-1.0202,-1.0038,-1.0229,-1.0198,-1.01,-1.0232,-1.0195,-1.0044,-1.0259,-1.0297,-1.0259,-1.0151,-1.0021,-0.996,-0.9893,-0.9839,-0.9822,-0.9822,-0.9822,-0.9822,-0.9822,-0.9822,-0.9822,-0.9822,-0.9822,-0.9822,-0.9822,-0.9822,-0.9822,-0.9822,-0.9724,-0.9585,-0.9408,-0.933,-0.913,-0.8905,-0.8902,-0.9015,-0.9193,-0.9231,-0.9245,-0.9245,-0.9245,-0.9137,-0.9015,-0.8949,-0.8949,-0.8949,-0.8949,-0.8949,-0.8949,-0.8984,-0.9039,-0.9245,-0.934,-0.9415,-0.9418,-0.9568,-0.9642,-0.9646,-0.9768,-0.9822,-0.9822,-0.9822,-0.9822,-0.9822,-0.9822,-0.9822,-0.9822,-0.9822,-0.9822,-0.9822,-0.9822,-0.9822,-0.9822,-1.082,-1.0847,-1.0847,-1.0847,-1.0847,-1.0803,-1.0741,-1.0721,-1.0721,-1.0721,-1.0721,-1.0721,-1.0721,-1.0721,-1.0721,-1.0721,-1.0721,-1.0721,-1.0721,-0.9039,-0.7897,-0.7631,-0.4424,-0.2551,-0.2283,-0.0807,0.0,0.0,0.0,0.0,0.0,0.0,0.0,-0.0065,-0.1863,-0.2694,-0.2892,-0.6353,-0.7758,-0.7933,-0.9624,-1.0266,-1.0246,-1.0273,-1.0266,-1.0249,-1.0273,-1.0263,-1.0266,-1.0412,-1.0378,-1.0297,-1.0392,-1.0249,-0.998,-0.996,-0.9862,-0.9822,-0.9822,-0.9822,-0.9822,-0.9822,-0.9822,-0.9822,-0.9822,-0.9822,-0.9822,-0.9822,-0.9822,-0.9822,-0.9822,-0.9802,-0.97,-0.9425,-0.9361,-0.9249,-0.8922,-0.9045,-0.9183,-0.9207,-0.9323,-0.9347,-0.9347,-0.9347,-0.9337,-0.9313,-0.9313,-0.9313,-0.9313,-0.9313,-0.9313,-0.9313,-0.9188,-0.9251,-0.9344,-0.9496,-0.9574,-0.9578,-0.972,-0.9788,-0.9788,-0.9812,-0.9822,-0.9822,-0.9822,-0.9822,-0.9822,-0.9822,-0.9822,-0.9822,-0.9822,-0.9822,-0.9822,-0.9822,-0.9822,-0.9822,-1.0812,-1.0826,-1.0853,-1.0772,-1.0826,-1.083,-1.0744,-1.0721,-1.0721,-1.0721,-1.0721,-1.0721,-1.0721,-1.0721,-1.0721,-1.0721,-1.0721,-1.0721,-1.0721,-0.9039,-0.7564,-0.6631,-0.4091,-0.2216,-0.1277,-0.0404,0.0,0.0,0.0,0.0,0.0,0.0,-0.0524,-0.1516,-0.333,-0.4697,-0.5713,-0.8274,-0.9352,-0.9355,-1.0156,-1.047,-1.0405,-1.0487,-1.0466,-1.0405,-1.0487,-1.0463,-1.0415,-1.0565,-1.0571,-1.05,-1.0409,-1.0337,-1.0256,-1.0034,-0.9879,-0.9822,-0.9822,-0.9822,-0.9822,-0.9822,-0.9822,-0.9822,-0.9822,-0.9822,-0.9822,-0.9822,-0.9822,-0.9822,-0.9822,-0.9822,-0.9751,-0.954,-0.9503,-0.9429,-0.9208,-0.9235,-0.9364,-0.9388,-0.9462,-0.9503,-0.9503,-0.9503,-0.9469,-0.9388,-0.9381,-0.9381,-0.9381,-0.9381,-0.9381,-0.9381,-0.9395,-0.9432,-0.9503,-0.9649,-0.9724,-0.9724,-0.9788,-0.9822,-0.9822,-0.9822,-0.9822,-0.9822,-0.9822,-0.9822,-0.9822,-0.9822,-0.9822,-0.9822,-0.9822,-0.9822,-0.9822,-0.9822,-0.9822,-0.9822,-1.0765,-1.0894,-1.0962,-1.0843,-1.0948,-1.0999,-1.0846,-1.0822,-1.0822,-1.0822,-1.0822,-1.0822,-1.0822,-1.0792,-1.0772,-1.0772,-1.0741,-1.0721,-1.0721,-0.9039,-0.7564,-0.67,-0.4492,-0.2283,-0.0067,0.0,0.0,0.0,0.0,0.0,0.0,-0.0399,-0.1397,-0.2818,-0.5036,-0.6762,-0.8097,-0.9911,-1.0653,-1.0555,-1.0673,-1.0649,-1.0558,-1.0677,-1.0646,-1.0561,-1.0677,-1.0643,-1.0561,-1.068,-1.0721,-1.068,-1.0456,-1.0412,-1.0405,-1.0209,-1.0046,-0.992,-0.9883,-0.9846,-0.9839,-0.991,-0.99,-0.9883,-0.992,-0.99,-0.9873,-0.9873,-0.9846,-0.9822,-0.9822,-0.9822,-0.9774,-0.9632,-0.9608,-0.9557,-0.9401,-0.9412,-0.9479,-0.9595,-0.9639,-0.9659,-0.9659,-0.9659,-0.9608,-0.9493,-0.9483,-0.9483,-0.9483,-0.9483,-0.9483,-0.9483,-0.9564,-0.9625,-0.9659,-0.9768,-0.9822,-0.9822,-0.9822,-0.9822,-0.9822,-0.9822,-0.9822,-0.9822,-0.9822,-0.9822,-0.9822,-0.9822,-0.9822,-0.9822,-0.9822,-0.9822,-0.9822,-0.9822,-0.9822,-0.9825,-1.0836,-1.105,-1.1141,-1.1131,-1.1257,-1.1307,-1.1155,-1.1131,-1.1131,-1.1131,-1.1131,-1.1131,-1.1131,-1.1012,-1.0863,-1.0863,-1.0802,-1.0721,-1.0721,-0.9039,-0.8701,-1.025,-0.7034,-0.3556,-0.0067,0.0,0.0,0.0,0.0,0.0,-0.0067,-0.1745,-0.2549,-0.2819,-0.6287,-0.789,-0.8097,-0.9911,-1.0714,-1.0704,-1.0714,-1.0714,-1.0704,-1.0717,-1.0714,-1.0704,-1.0717,-1.0714,-1.0704,-1.0717,-1.0721,-1.0717,-1.0694,-1.0507,-1.0317,-1.0426,-1.0358,-1.0215,-1.007,-0.9866,-0.989,-1.0175,-1.0137,-1.0007,-1.0212,-1.0134,-0.997,-0.997,-0.9859,-0.9822,-0.9822,-0.9822,-0.9774,-0.9632,-0.9608,-0.9557,-0.9401,-0.9503,-0.9598,-0.9608,-0.9727,-0.9805,-0.9805,-0.9805,-0.9798,-0.9788,-0.9788,-0.9788,-0.9788,-0.9788,-0.9788,-0.9788,-0.9673,-0.9673,-0.9802,-0.9815,-0.9822,-0.9822,-0.9822,-0.9822,-0.9822,-0.9822,-0.9822,-0.9822,-0.9822,-0.9822,-0.9822,-0.9822,-0.9822,-0.9822,-0.9822,-0.9822,-0.9822,-0.9822,-0.9822,-0.9842,-1.085,-1.1063,-1.1231,-1.1231,-1.129,-1.1341,-1.1185,-1.1231,-1.1231,-1.1231,-1.1231,-1.1128,-1.104,-1.0982,-1.088,-1.088,-1.083,-1.09,-1.0989,-0.9267,-0.7432,-0.583,-0.4426,-0.2551,-0.0067,0.0,0.0,0.0,0.0,0.0,-0.0067,-0.1881,-0.3288,-0.4492,-0.6896,-0.8634,-0.9709,-1.0382,-1.0721,-1.0721,-1.0721,-1.0721,-1.0721,-1.0721,-1.0721,-1.0721,-1.0721,-1.0721,-1.0721,-1.0721,-1.0721,-1.0704,-1.0609,-1.0568,-1.0544,-1.0504,-1.0453,-1.0399,-1.0341,-1.0215,-1.0134,-1.0249,-1.0236,-1.0209,-1.0266,-1.0236,-1.0195,-1.0195,-1.0148,-1.0076,-0.992,-0.9903,-0.9852,-0.9764,-0.9741,-0.972,-0.9663,-0.9703,-0.9741,-0.9741,-0.9788,-0.9822,-0.9822,-0.9822,-0.9822,-0.9822,-0.9822,-0.9822,-0.9822,-0.9822,-0.9822,-0.9822,-0.9768,-0.9768,-0.9822,-0.9822,-0.9822,-0.9822,-0.9822,-0.9822,-0.9822,-0.9822,-0.9822,-0.9822,-0.9822,-0.9822,-0.9822,-0.9822,-0.9822,-0.9822,-0.9822,-0.9822,-0.9832,-0.9866,-0.9903,-0.9923,-1.085,-1.1063,-1.1179,-1.1226,-1.1362,-1.1426,-1.1321,-1.1307,-1.1307,-1.1307,-1.1307,-1.127,-1.1099,-1.1049,-1.1087,-1.1087,-1.1043,-1.1056,-1.1155,-0.9918,-0.7474,-0.3691,-0.3021,-0.2149,-0.0874,-0.0269,0.0,0.0,0.0,-0.0269,-0.0874,-0.2685,-0.4492,-0.6297,-0.8033,-0.951,-1.0721,-1.0721,-1.0721,-1.0721,-1.0721,-1.0721,-1.0721,-1.0721,-1.0721,-1.0721,-1.0721,-1.0721,-1.0721,-1.0721,-1.0721,-1.0704,-1.0599,-1.0636,-1.069,-1.0538,-1.0524,-1.0565,-1.0565,-1.0493,-1.0419,-1.0419,-1.0382,-1.0358,-1.0409,-1.0382,-1.0348,-1.0348,-1.0314,-1.0249,-1.0141,-1.0058,-1.0086,-0.9981,-0.9964,-0.9947,-0.99,-0.9893,-0.9876,-0.9825,-0.9822,-0.9822,-0.9822,-0.9822,-0.9822,-0.9822,-0.9822,-0.9822,-0.9822,-0.9822,-0.9822,-0.9822,-0.9822,-0.9822,-0.9822,-0.9822,-0.9846,-0.989,-0.9842,-0.9846,-0.989,-0.9842,-0.9822,-0.9822,-0.9822,-0.9849,-0.9893,-0.9893,-0.992,-0.9964,-0.9964,-0.9964,-0.9978,-1.0083,-1.0058,-1.0144,-1.0853,-1.1067,-1.1212,-1.1365,-1.1518,-1.1619,-1.1619,-1.1619,-1.1619,-1.1619,-1.1619,-1.1619,-1.1616,-1.1484,-1.1392,-1.1392,-1.1253,-1.1234,-1.1234,-1.1029,-0.9247,-0.5568,-0.369,-0.2752,-0.2752,-0.0941,0.0,0.0,-0.0067,-0.0941,-0.2752,-0.4559,-0.6364,-0.8097,-0.9911,-1.0721,-1.0721,-1.0721,-1.0721,-1.0721,-1.0721,-1.0721,-1.0721,-1.0721,-1.0721,-1.0721,-1.0721,-1.0721,-1.0721,-1.0721,-1.0721,-1.0721,-1.0721,-1.0721,-1.069,-1.0538,-1.0602,-1.0721,-1.0721,-1.0721,-1.0721,-1.0721,-1.0605,-1.0534,-1.0683,-1.0602,-1.0493,-1.0493,-1.0382,-1.0283,-1.0283,-1.0283,-1.0283,-1.028,-1.028,-1.0226,-1.0011,-0.9987,-0.993,-0.9839,-0.9822,-0.9822,-0.9822,-0.9822,-0.9822,-0.9822,-0.9825,-0.9825,-0.9822,-0.9822,-0.9822,-0.9822,-0.9822,-0.9822,-0.9822,-0.9822,-0.9897,-0.9984,-0.9893,-0.9839,-0.998,-0.989,-0.9822,-0.9825,-0.9825,-0.9849,-0.9987,-0.9987,-1.0141,-1.028,-1.028,-1.028,-1.028,-1.0283,-1.0283,-1.03,-1.1229,-1.1294,-1.1372,-1.1525,-1.1589,-1.1619,-1.1619,-1.1619,-1.1619,-1.1619,-1.1619,-1.1579,-1.147,-1.1419,-1.1392,-1.1392,-1.1348,-1.1321,-1.1321,-1.0077,-0.8769,-0.7484,-0.5591,-0.4626,-0.4626,-0.2819,-0.1881,-0.1881,-0.3154,-0.3422,-0.2752,-0.5828,-0.7498,-0.8097,-0.9911,-1.0721,-1.0721,-1.0721,-1.0721,-1.0721,-1.0721,-1.0721,-1.0721,-1.0721,-1.0721,-1.0721,-1.0721,-1.0721,-1.0721,-1.0721,-1.0721,-1.0721,-1.0721,-1.0721,-1.0711,-1.0666,-1.0683,-1.0721,-1.0721,-1.0721,-1.0721,-1.0721,-1.0683,-1.0663,-1.0711,-1.0683,-1.0653,-1.0653,-1.0619,-1.0558,-1.0449,-1.0429,-1.0395,-1.0297,-1.028,-1.0263,-1.0219,-1.0117,-0.997,-0.9923,-0.9886,-0.9822,-0.9822,-0.9856,-0.992,-0.992,-1.0083,-1.0097,-0.9923,-0.992,-0.9869,-0.9825,-0.9822,-0.9822,-0.9822,-0.9822,-0.9842,-0.9886,-0.9842,-0.9839,-0.9984,-0.994,-1.0042,-1.0144,-1.0144,-1.0168,-1.0212,-1.0212,-1.0239,-1.028,-1.028,-1.028,-1.0293,-1.0392,-1.0429,-1.0449,-1.1352,-1.1392,-1.144,-1.1592,-1.1619,-1.1619,-1.1619,-1.1619,-1.1619,-1.1619,-1.1619,-1.1586,-1.1491,-1.148,-1.1504,-1.1558,-1.1565,-1.1514,-1.1399,-1.0389,-0.9654,-0.9448,-0.766,-0.6234,-0.5431,-0.3623,-0.302,-0.3757,-0.4894,-0.5162,-0.4824,-0.7027,-0.8366,-0.9105,-1.0183,-1.0721,-1.0721,-1.0721,-1.0721,-1.0721,-1.0721,-1.0721,-1.0721,-1.0721,-1.0721,-1.0721,-1.0721,-1.0721,-1.0721,-1.0721,-1.0721,-1.0721,-1.0721,-1.0721,-1.0721,-1.0721,-1.0721,-1.0721,-1.0721,-1.0721,-1.0721,-1.0721,-1.0721,-1.0721,-1.0721,-1.0721,-1.0721,-1.0721,-1.0721,-1.0694,-1.0599,-1.0582,-1.0555,-1.047,-1.0456,-1.0432,-1.0371,-1.0283,-1.0202,-1.0148,-1.0059,-1.0002,-1.0002,-1.0086,-1.0141,-1.0141,-1.0226,-1.0239,-1.0144,-1.0141,-1.0097,-1.0005,-0.9944,-0.9941,-1.0002,-0.9941,-0.9941,-1.0002,-1.0002,-1.008,-1.0222,-1.0164,-1.0192,-1.028,-1.028,-1.0314,-1.0365,-1.0365,-1.0399,-1.0456,-1.0456,-1.0456,-1.0466,-1.0551,-1.0582,-1.0595,-1.1355,-1.1413,-1.1457,-1.1596,-1.1619,-1.1619,-1.1619,-1.1619,-1.1619,-1.1619,-1.1619,-1.1619,-1.1619,-1.1619,-1.167,-1.1799,-1.1813,-1.1697,-1.143,-1.1268,-1.1127,-1.0978,-0.9226,-0.7461,-0.5722,-0.4039,-0.4037,-0.564,-0.5843,-0.664,-0.803,-0.8166,-0.9105,-1.0721,-1.0721,-1.0721,-1.0721,-1.0721,-1.0721,-1.0721,-1.0721,-1.0721,-1.0721,-1.0721,-1.0721,-1.0721,-1.0721,-1.0721,-1.0721,-1.0721,-1.0721,-1.0721,-1.0721,-1.0721,-1.0721,-1.0721,-1.0721,-1.0721,-1.0721,-1.0721,-1.0721,-1.0721,-1.0721,-1.0721,-1.0721,-1.0721,-1.0721,-1.0721,-1.0721,-1.0721,-1.0721,-1.0721,-1.0721,-1.0721,-1.0721,-1.067,-1.0531,-1.05,-1.0443,-1.0314,-1.0287,-1.028,-1.028,-1.0293,-1.0304,-1.0321,-1.0321,-1.0314,-1.03,-1.03,-1.0293,-1.028,-1.0144,-1.0137,-1.028,-1.0151,-1.0154,-1.028,-1.028,-1.0354,-1.0487,-1.0358,-1.0307,-1.0321,-1.0321,-1.0392,-1.0514,-1.0514,-1.0595,-1.0721,-1.0721,-1.0721,-1.0721,-1.0721,-1.0721,-1.0721,-1.1535,-1.1569,-1.1582,-1.1613,-1.1619,-1.1619,-1.1619,-1.1619,-1.1619,-1.1619,-1.1619,-1.1619,-1.1619,-1.1619,-1.1633,-1.166,-1.1664,-1.164,-1.1572,-1.0117,-0.9262,-0.9211,-0.744,-0.6824,-0.7821,-0.7472,-0.7365,-0.7692,-0.9056,-0.9139,-0.803,-0.944,-1.0316,-1.0721,-1.0721,-1.0721,-1.0721,-1.0721,-1.0721,-1.0721,-1.0721,-1.0721,-1.0721,-1.0721,-1.0721,-1.0721,-1.0721,-1.0721,-1.0721,-1.0721,-1.0721,-1.0721,-1.0721,-1.0721,-1.0721,-1.0721,-1.0721,-1.0721,-1.0721,-1.0721,-1.0721,-1.0721,-1.0721,-1.0721,-1.0721,-1.0721,-1.0721,-1.0721,-1.0721,-1.0721,-1.0721,-1.0721,-1.0721,-1.0721,-1.0721,-1.0707,-1.0673,-1.0568,-1.048,-1.0449,-1.0348,-1.028,-1.028,-1.0382,-1.0493,-1.0616,-1.0626,-1.0571,-1.0453,-1.0446,-1.0395,-1.0283,-1.0249,-1.0246,-1.028,-1.0358,-1.0358,-1.028,-1.028,-1.0354,-1.049,-1.046,-1.051,-1.0626,-1.0626,-1.0643,-1.067,-1.067,-1.069,-1.0721,-1.0721,-1.0721,-1.0721,-1.0721,-1.0721,-1.0721,-1.1589,-1.1619,-1.1619,-1.1619,-1.1619,-1.1619,-1.1619,-1.1677,-1.1694,-1.163,-1.1742,-1.1803,-1.1728,-1.1721,-1.1694,-1.1626,-1.1681,-1.1691,-1.1623,-1.0668,-1.0054,-1.0057,-0.9122,-0.9024,-0.9959,-0.9959,-0.9832,-0.9573,-1.0467,-1.0325,-0.9305,-1.0246,-1.0721,-1.0721,-1.0721,-1.0721,-1.0721,-1.0721,-1.0721,-1.0721,-1.0721,-1.0721,-1.0721,-1.0721,-1.0721,-1.0721,-1.0721,-1.0721,-1.0721,-1.0721,-1.0721,-1.0721,-1.0721,-1.0721,-1.0721,-1.0721,-1.0721,-1.0734,-1.0809,-1.0829,-1.0846,-1.0914,-1.088,-1.0809,-1.0734,-1.0721,-1.0721,-1.0721,-1.0721,-1.0721,-1.0721,-1.0721,-1.0721,-1.0721,-1.0721,-1.0721,-1.0721,-1.0653,-1.0602,-1.0602,-1.0534,-1.049,-1.049,-1.0558,-1.0633,-1.0714,-1.0721,-1.0683,-1.0605,-1.0602,-1.0568,-1.0493,-1.0419,-1.0415,-1.049,-1.049,-1.049,-1.049,-1.049,-1.0527,-1.0602,-1.0602,-1.0643,-1.0721,-1.0721,-1.0721,-1.0721,-1.0721,-1.0721,-1.0721,-1.0721,-1.0721,-1.0721,-1.0721,-1.0721,-1.0721,-1.1589,-1.1619,-1.1619,-1.1619,-1.164,-1.1657,-1.1657,-1.1779,-1.1826,-1.1711,-1.1887,-1.1972,-1.1843,-1.1809,-1.1748,-1.163,-1.1728,-1.1745,-1.1626,-1.1253,-1.1253,-1.1619,-1.1253,-1.1253,-1.1619,-1.1619,-1.1423,-1.0958,-1.0958,-1.0934,-1.0758,-1.0758,-1.0744,-1.0721,-1.0721,-1.0721,-1.0721,-1.0721,-1.0721,-1.0721,-1.0721,-1.0721,-1.0721,-1.0721,-1.0721,-1.0721,-1.0721,-1.0721,-1.0721,-1.0721,-1.0721,-1.0724,-1.0751,-1.0758,-1.0758,-1.0758,-1.0775,-1.0816,-1.0853,-1.0897,-1.1016,-1.1131,-1.1073,-1.0951,-1.0826,-1.0758,-1.0721,-1.0721,-1.0721,-1.0721,-1.0721,-1.0721,-1.0721,-1.0721,-1.0721,-1.0721,-1.0721,-1.0721,-1.0721,-1.0721,-1.0721,-1.0721,-1.0721,-1.0721,-1.0721,-1.0721,-1.0721,-1.0721,-1.0721,-1.0721,-1.0721,-1.0721,-1.0599,-1.0592,-1.0717,-1.0595,-1.0595,-1.0721,-1.0721,-1.0721,-1.0721,-1.0721,-1.0721,-1.0721,-1.0721,-1.0721,-1.0721,-1.0721,-1.0721,-1.0721,-1.0721,-1.0721,-1.0721,-1.0721,-1.0721,-1.0721,-1.1589,-1.1619,-1.1619,-1.1619,-1.1721,-1.1803,-1.1803,-1.1932,-1.2023,-1.2006,-1.1921,-1.1853,-1.1833,-1.1721,-1.164,-1.1619,-1.1636,-1.164,-1.1619,-1.0014,-0.9867,-1.1548,-1.0011,-0.9867,-1.1548,-1.1619,-1.1525,-1.1331,-1.1331,-1.1189,-1.085,-1.085,-1.0779,-1.0721,-1.0721,-1.0721,-1.0721,-1.0721,-1.0721,-1.0721,-1.0721,-1.0721,-1.0721,-1.0721,-1.0721,-1.0721,-1.0721,-1.0721,-1.0721,-1.0721,-1.0721,-1.0744,-1.0809,-1.085,-1.085,-1.085,-1.1006,-1.108,-1.0911,-1.104,-1.1138,-1.1158,-1.1148,-1.1128,-1.1107,-1.0904,-1.0721,-1.0721,-1.0721,-1.0721,-1.0721,-1.0721,-1.0721,-1.0721,-1.0721,-1.0721,-1.0721,-1.0721,-1.0721,-1.0721,-1.0721,-1.0721,-1.0721,-1.0721,-1.0721,-1.0721,-1.0721,-1.0721,-1.0721,-1.0721,-1.0721,-1.0721,-1.07,-1.07,-1.0721,-1.07,-1.07,-1.0721,-1.0721,-1.0721,-1.0721,-1.0721,-1.0721,-1.0721,-1.0721,-1.0721,-1.0721,-1.0721,-1.0721,-1.0721,-1.0721,-1.0721,-1.0721,-1.0721,-1.0721,-1.0721,-1.1708,-1.1738,-1.1765,-1.185,-1.1918,-1.1962,-1.1962,-1.2091,-1.2159,-1.2149,-1.2077,-1.2054,-1.1969,-1.1826,-1.1738,-1.1738,-1.1738,-1.1738,-1.1738,-1.0926,-1.0746,-1.1551,-1.0815,-1.074,-1.1548,-1.1619,-1.1586,-1.1518,-1.1348,-1.1196,-1.1063,-1.0897,-1.0829,-1.0843,-1.0758,-1.0721,-1.0721,-1.0721,-1.0721,-1.0721,-1.0721,-1.0721,-1.0721,-1.0721,-1.0721,-1.0721,-1.0721,-1.0775,-1.0782,-1.0782,-1.09,-1.0978,-1.1046,-1.1067,-1.1067,-1.1067,-1.1114,-1.1168,-1.1189,-1.1243,-1.1311,-1.1396,-1.1355,-1.129,-1.129,-1.1124,-1.0968,-1.0968,-1.0904,-1.0782,-1.0782,-1.0778,-1.0721,-1.0721,-1.0721,-1.0721,-1.0721,-1.0721,-1.0721,-1.0721,-1.0721,-1.0721,-1.0721,-1.0721,-1.0721,-1.0721,-1.0721,-1.0721,-1.0721,-1.0721,-1.0721,-1.0721,-1.0721,-1.0721,-1.0721,-1.0721,-1.0721,-1.0721,-1.0721,-1.0721,-1.0721,-1.0721,-1.0721,-1.0721,-1.0721,-1.0721,-1.0721,-1.0721,-1.0721,-1.0721,-1.0721,-1.0721,-1.0721,-1.0721,-1.0721,-1.0721]}]]